[[{"header":{"parameterUnit":"m.s-1","parameterCategory":1,"la1":31.0,"la2":29.5877,"lo1":-88.7671,"lo2":-86.6584,"dy":0.0162,"dx":0.0185,"nx":115,"ny":88,"refTime":"2023-11-05T18:00:00:Z","depth":0,"parameterNumber":2,"parameterNumberName":"U-component_of_WINDS"},"data":[0.0,0.0,0.0,0.0,0.0,0.0,0.0,0.0,0.0,0.0,0.0,0.0,0.0,0.0,0.0,0.0,0.0,0.0,0.0,0.0,0.0,0.0,0.0,0.0,0.0,0.0,0.0,0.0,0.0,0.0,0.0,0.0,0.0,0.0,0.0,0.0,0.0,0.0,0.0,0.0,0.0,0.0,0.0,0.0,0.0,0.0,0.0,0.0,0.0,0.0,0.0,0.0,0.0,0.0,0.0,0.0,0.0,0.0,0.0,0.0,0.0,0.0,0.0,0.0,0.0,0.0,0.0,0.0,0.0,0.0,0.0,0.0,0.0,0.0,0.0,0.0,0.0,0.0,0.0,0.0,0.0,0.0,0.0,0.0,0.0,0.0,0.0,0.0,0.0,0.0,0.0,0.0,0.0,0.0,0.0,0.0,0.0,0.0,0.0,0.0,0.0,0.0,0.0,0.0,0.0,0.0,0.0,0.0,0.0,0.0,0.0,0.0,0.0,0.0,0.0,0.0,0.0,0.0,0.0,0.0,0.0,0.0,0.0,0.0,0.0,0.0,0.0,0.0,0.0,0.0,0.0,0.0,0.0,0.0,0.0,0.0,0.0,0.0,0.0,0.0,0.0,0.0,0.0,0.0,0.0,0.0,0.0,0.0,0.0,0.0,0.0,0.0,0.0,0.0,0.0,0.0,0.0,0.0,0.0,0.0,0.0,0.0,0.0,0.0,0.0,0.0,0.0,0.0,0.0,0.0,0.0,0.0,0.0,0.0,0.0,0.0,0.0,0.0,0.0,0.0,0.0,0.0,0.0,0.0,0.0,0.0,0.0,0.0,0.0,0.0,0.0,0.0,0.0,0.0,0.0,0.0,0.0,0.0,0.0,0.0,0.0,0.0,0.0,0.0,0.0,0.0,0.0,0.0,0.0,0.0,0.0,0.0,0.0,0.0,0.0,0.0,0.0,0.0,0.0,0.0,0.0,0.0,0.0,0.0,0.0,0.0,0.0,0.0,0.0,0.0,0.0,0.0,0.0,0.0,0.0,0.0,0.0,0.0,0.0,0.0,0.0,0.0,0.0,0.0,0.0,0.0,0.0,0.0,0.0,0.0,0.0,0.0,0.0,0.0,0.0,0.0,0.0,0.0,0.0,0.0,0.0,0.0,0.0,0.0,0.0,0.0,0.0,0.0,0.0,0.0,0.0,0.0,0.0,0.0,0.0,0.0,0.0,0.0,0.0,0.0,0.0,0.0,0.0,0.0,0.0,0.0,0.0,0.0,0.0,0.0,0.0,0.0,0.0,0.0,0.0,0.0,0.0,0.0,0.0,0.0,0.0,0.0,0.0,0.0,0.0,0.0,0.0,0.0,0.0,0.0,0.0,0.0,0.0,0.0,0.0,0.0,0.0,0.0,0.0,0.0,0.0,0.0,0.0,0.0,0.0,0.0,0.0,0.0,0.0,0.0,0.0,0.0,0.0,0.0,0.0,0.0,0.0,0.0,0.0,0.0,0.0,0.0,0.0,0.0,0.0,0.0,0.0,0.0,0.0,0.0,0.0,0.0,0.0,0.0,0.0,0.0,0.0,0.0,0.0,0.0,0.0,0.0,0.0,0.0,0.0,0.0,0.0,0.0,0.0,0.0,0.0,0.0,0.0,0.0,0.0,0.0,0.0,0.0,0.0,0.0,0.0,0.0,0.0,0.0,0.0,0.0,0.0,0.0,0.0,0.0,0.0,0.0,0.0,0.0,0.0,0.0,0.0,0.0,0.0,0.0,0.0,0.0,0.0,0.0,0.0,0.0,0.0,0.0,0.0,0.0,0.0,0.0,0.0,0.0,0.0,0.0,0.0,0.0,0.0,0.0,0.0,0.0,0.0,0.0,0.0,0.0,0.0,0.0,0.0,0.0,0.0,0.0,0.0,0.0,0.0,0.0,0.0,0.0,0.0,0.0,0.0,0.0,0.0,0.0,0.0,0.0,0.0,0.0,0.0,0.0,0.0,0.0,0.0,0.0,0.0,0.0,0.0,0.0,0.0,0.0,0.0,0.0,0.0,0.0,0.0,0.0,0.0,0.0,0.0,0.0,0.0,0.0,0.0,0.0,0.0,0.0,0.0,0.0,0.0,0.0,0.0,0.0,0.0,0.0,0.0,0.0,0.0,0.0,0.0,0.0,0.0,0.0,0.0,0.0,0.0,0.0,0.0,0.0,0.0,0.0,0.0,0.0,0.0,0.0,0.0,0.0,0.0,0.0,0.0,0.0,0.0,0.0,0.0,0.0,0.0,0.0,0.0,0.0,0.0,0.0,0.0,0.0,0.0,0.0,0.0,0.0,0.0,0.0,0.0,0.0,0.0,0.0,0.0,0.0,0.0,0.0,0.0,0.0,0.0,0.0,0.0,0.0,0.0,0.0,0.0,0.0,0.0,0.0,0.0,0.0,0.0,0.0,0.0,0.0,0.0,0.0,0.0,0.0,0.0,0.0,0.0,0.0,0.0,0.0,0.0,0.0,0.0,0.0,0.0,0.0,0.0,0.0,0.0,0.0,0.0,0.0,0.0,0.0,0.0,0.0,0.0,0.0,0.0,0.0,0.0,0.0,0.0,0.0,0.0,0.0,0.0,0.0,0.0,0.0,0.0,0.0,0.0,0.0,0.0,0.0,0.0,0.0,0.0,0.0,0.0,0.0,0.0,0.0,0.0,0.0,0.0,0.0,0.0,0.0,0.0,0.0,0.0,0.0,0.0,0.0,0.0,0.0,0.0,0.0,0.0,0.0,0.0,0.0,0.0,0.0,0.0,0.0,0.0,0.0,0.0,0.0,0.0,0.0,0.0,0.0,0.0,0.0,0.0,0.0,0.0,0.0,0.0,0.0,0.0,0.0,0.0,0.0,0.0,0.0,0.0,0.0,0.0,0.0,0.0,0.0,0.0,0.0,0.0,0.0,0.0,0.0,0.0,0.0,0.0,0.0,0.0,0.0,0.0,0.0,0.0,0.0,0.0,0.0,0.0,0.0,0.0,0.0,0.0,0.0,0.0,0.0,0.0,0.0,0.0,0.0,0.0,0.0,0.0,0.0,0.0,0.0,0.0,0.0,0.0,0.0,0.0,0.0,0.0,0.0,0.0,0.0,0.0,0.0,0.0,0.0,0.0,0.0,0.0,0.0,0.0,0.0,0.0,0.0,0.0,0.0,0.0,0.0,0.0,0.0,0.0,0.0,0.0,0.0,0.0,0.0,0.0,0.0,0.0,0.0,0.0,0.0,0.0,0.0,0.0,0.0,0.0,0.0,0.0,0.0,0.0,0.0,0.0,0.0,0.0,0.0,0.0,0.0,0.0,0.0,0.0,0.0,0.0,0.0,0.0,0.0,0.0,0.0,0.0,0.0,0.0,0.0,0.0,0.0,0.0,0.0,0.0,0.0,0.0,0.0,0.0,0.0,0.0,0.0,0.0,0.0,0.0,0.0,0.0,0.0,0.0,0.0,0.0,0.0,0.0,0.0,0.0,0.0,0.0,0.0,0.0,0.0,0.0,0.0,0.0,0.0,0.0,0.0,0.0,0.0,0.0,0.0,0.0,0.0,0.0,0.0,0.0,0.0,0.0,0.0,0.0,0.0,0.0,0.0,0.0,0.0,0.0,0.0,0.0,0.0,0.0,0.0,0.0,0.0,0.0,0.0,0.0,0.0,0.0,0.0,0.0,0.0,0.0,0.0,0.0,0.0,0.0,0.0,0.0,0.0,0.0,0.0,0.0,0.0,0.0,0.0,0.0,0.0,0.0,0.0,0.0,0.0,0.0,0.0,0.0,0.0,0.0,0.0,0.0,0.0,0.0,0.0,0.0,0.0,0.0,0.0,0.0,0.0,0.0,0.0,0.0,0.0,0.0,0.0,0.0,0.0,0.0,0.0,0.0,0.0,0.0,0.0,0.0,0.0,0.0,0.0,0.0,0.0,0.0,0.0,0.0,0.0,0.0,0.0,0.0,0.0,0.0,0.0,0.0,0.0,0.0,0.0,0.0,0.0,0.0,0.0,0.0,0.0,0.0,0.0,0.0,0.0,0.0,0.0,0.0,0.0,0.0,0.0,0.0,0.0,0.0,0.0,0.0,0.0,0.0,0.0,0.0,0.0,0.0,0.0,0.0,0.0,0.0,0.0,0.0,0.0,0.0,0.0,0.0,0.0,0.0,0.0,0.0,0.0,0.0,0.0,0.0,0.0,0.0,0.0,0.0,0.0,0.0,0.0,0.0,0.0,0.0,0.0,0.0,0.0,0.0,0.0,-2.0594,0.0,0.0,0.0,0.0,0.0,0.0,0.0,0.0,0.0,0.0,0.0,0.0,0.0,0.0,0.0,0.0,0.0,0.0,0.0,0.0,0.0,0.0,0.0,0.0,0.0,0.0,0.0,0.0,0.0,0.0,0.0,0.0,0.0,0.0,0.0,0.0,0.0,0.0,0.0,0.0,0.0,0.0,0.0,0.0,0.0,0.0,0.0,0.0,0.0,0.0,0.0,0.0,0.0,0.0,0.0,0.0,0.0,0.0,0.0,0.0,0.0,0.0,0.0,0.0,0.0,0.0,0.0,0.0,0.0,0.0,0.0,0.0,0.0,0.0,0.0,0.0,0.0,0.0,0.0,0.0,0.0,0.0,0.0,0.0,0.0,0.0,0.0,0.0,0.0,0.0,0.0,0.0,0.0,0.0,0.0,0.0,0.0,0.0,0.0,0.0,0.0,0.0,0.0,0.0,0.0,0.0,0.0,0.0,0.0,0.0,-2.0591,-2.0594,-2.0594,-2.0594,-2.0594,0.0,0.0,0.0,0.0,0.0,0.0,0.0,0.0,0.0,0.0,0.0,0.0,0.0,0.0,0.0,0.0,0.0,0.0,0.0,0.0,0.0,0.0,0.0,0.0,0.0,0.0,0.0,0.0,0.0,0.0,0.0,0.0,0.0,0.0,0.0,0.0,0.0,0.0,0.0,0.0,0.0,0.0,0.0,0.0,0.0,0.0,0.0,0.0,0.0,0.0,0.0,0.0,0.0,0.0,0.0,0.0,0.0,0.0,0.0,0.0,0.0,0.0,0.0,0.0,0.0,0.0,0.0,0.0,0.0,0.0,0.0,0.0,0.0,0.0,0.0,0.0,0.0,0.0,0.0,0.0,0.0,0.0,0.0,0.0,0.0,0.0,0.0,0.0,0.0,0.0,0.0,0.0,0.0,0.0,0.0,0.0,0.0,0.0,0.0,0.0,0.0,0.0,0.0,0.0,0.0,0.0,0.0,0.0,0.0,0.0,0.0,0.0,-2.0594,-2.0594,-2.0594,0.0,0.0,0.0,0.0,0.0,0.0,0.0,0.0,0.0,0.0,0.0,0.0,0.0,0.0,0.0,0.0,0.0,0.0,0.0,0.0,0.0,0.0,0.0,0.0,0.0,0.0,0.0,0.0,0.0,0.0,0.0,0.0,0.0,0.0,0.0,0.0,0.0,0.0,0.0,0.0,0.0,0.0,0.0,0.0,0.0,0.0,0.0,0.0,0.0,0.0,0.0,0.0,0.0,0.0,0.0,0.0,0.0,0.0,0.0,0.0,0.0,0.0,0.0,0.0,0.0,0.0,0.0,0.0,0.0,0.0,0.0,0.0,0.0,0.0,0.0,0.0,0.0,0.0,0.0,0.0,0.0,0.0,0.0,0.0,0.0,0.0,0.0,0.0,0.0,0.0,0.0,0.0,0.0,0.0,0.0,0.0,0.0,0.0,0.0,0.0,0.0,0.0,0.0,0.0,0.0,0.0,0.0,0.0,0.0,0.0,-2.0594,-2.0594,-2.0594,0.0,-2.0594,0.0,0.0,0.0,0.0,0.0,0.0,0.0,0.0,0.0,0.0,0.0,0.0,0.0,0.0,0.0,0.0,0.0,0.0,0.0,0.0,0.0,0.0,0.0,0.0,0.0,0.0,0.0,0.0,0.0,0.0,0.0,0.0,0.0,0.0,0.0,0.0,0.0,0.0,0.0,0.0,0.0,0.0,0.0,0.0,0.0,0.0,0.0,0.0,0.0,0.0,0.0,0.0,0.0,0.0,0.0,0.0,0.0,0.0,0.0,0.0,0.0,0.0,0.0,0.0,0.0,0.0,0.0,0.0,0.0,0.0,0.0,0.0,0.0,0.0,0.0,0.0,0.0,0.0,0.0,0.0,0.0,0.0,0.0,0.0,0.0,0.0,0.0,0.0,0.0,0.0,0.0,0.0,0.0,0.0,0.0,0.0,0.0,0.0,0.0,0.0,0.0,0.0,0.0,0.0,0.0,0.0,0.0,0.0,0.0,0.0,-2.0597,-2.0596,-2.0595,-2.0594,0.0,0.0,0.0,0.0,0.0,0.0,0.0,0.0,0.0,0.0,0.0,0.0,0.0,0.0,0.0,0.0,0.0,0.0,0.0,0.0,0.0,0.0,0.0,0.0,0.0,0.0,0.0,0.0,0.0,0.0,0.0,0.0,0.0,0.0,0.0,0.0,0.0,0.0,0.0,0.0,0.0,0.0,0.0,0.0,0.0,0.0,0.0,0.0,0.0,0.0,0.0,0.0,0.0,0.0,0.0,0.0,0.0,0.0,0.0,0.0,0.0,0.0,0.0,0.0,0.0,0.0,0.0,0.0,0.0,0.0,0.0,0.0,0.0,0.0,0.0,0.0,0.0,0.0,0.0,0.0,0.0,0.0,0.0,0.0,0.0,0.0,0.0,0.0,0.0,0.0,0.0,0.0,0.0,0.0,0.0,0.0,0.0,0.0,0.0,0.0,0.0,0.0,0.0,0.0,0.0,0.0,0.0,0.0,0.0,0.0,-2.0835,-2.0951,-2.0951,-2.0713,-2.0594,-2.0596,0.0,0.0,0.0,0.0,0.0,0.0,0.0,0.0,0.0,0.0,0.0,0.0,0.0,0.0,0.0,0.0,0.0,0.0,0.0,0.0,0.0,0.0,0.0,0.0,0.0,0.0,0.0,0.0,0.0,0.0,0.0,0.0,0.0,0.0,0.0,0.0,0.0,0.0,0.0,0.0,0.0,0.0,0.0,0.0,0.0,0.0,0.0,0.0,0.0,0.0,0.0,0.0,0.0,0.0,0.0,0.0,0.0,0.0,0.0,0.0,0.0,0.0,0.0,0.0,0.0,0.0,0.0,0.0,0.0,0.0,0.0,0.0,0.0,0.0,0.0,0.0,0.0,0.0,0.0,0.0,0.0,0.0,0.0,0.0,0.0,0.0,0.0,0.0,0.0,0.0,0.0,0.0,0.0,0.0,0.0,0.0,0.0,0.0,0.0,0.0,0.0,0.0,0.0,0.0,0.0,0.0,0.0,0.0,-2.0624,-2.1423,-2.1851,-2.1831,-2.1045,-2.0596,0.0,0.0,0.0,0.0,0.0,0.0,0.0,0.0,0.0,0.0,0.0,0.0,0.0,0.0,0.0,0.0,0.0,0.0,0.0,0.0,0.0,0.0,0.0,0.0,0.0,0.0,0.0,0.0,0.0,0.0,0.0,0.0,0.0,0.0,0.0,0.0,0.0,0.0,0.0,0.0,0.0,0.0,0.0,0.0,0.0,0.0,0.0,0.0,0.0,0.0,0.0,0.0,0.0,0.0,0.0,0.0,0.0,0.0,0.0,0.0,0.0,0.0,0.0,0.0,0.0,0.0,0.0,0.0,0.0,0.0,0.0,0.0,0.0,0.0,0.0,0.0,0.0,0.0,0.0,0.0,0.0,0.0,0.0,0.0,0.0,0.0,0.0,0.0,0.0,0.0,0.0,0.0,0.0,0.0,0.0,0.0,0.0,0.0,0.0,0.0,0.0,0.0,0.0,0.0,0.0,0.0,0.0,0.0,0.0,-2.1465,-2.2226,-2.2673,-2.2652,-2.1869,-2.1439,0.0,0.0,0.0,0.0,0.0,0.0,0.0,0.0,0.0,0.0,0.0,0.0,0.0,0.0,0.0,0.0,0.0,0.0,0.0,0.0,0.0,0.0,0.0,0.0,0.0,0.0,0.0,0.0,0.0,0.0,0.0,0.0,0.0,0.0,0.0,0.0,0.0,0.0,0.0,0.0,0.0,0.0,0.0,0.0,0.0,0.0,0.0,0.0,0.0,0.0,0.0,0.0,0.0,0.0,0.0,0.0,0.0,0.0,0.0,0.0,0.0,0.0,0.0,0.0,0.0,0.0,0.0,0.0,0.0,0.0,0.0,0.0,0.0,0.0,0.0,0.0,0.0,0.0,0.0,0.0,0.0,0.0,0.0,0.0,0.0,0.0,0.0,0.0,0.0,0.0,0.0,0.0,0.0,0.0,0.0,0.0,0.0,0.0,0.0,0.0,0.0,0.0,0.0,0.0,0.0,0.0,0.0,0.0,0.0,-2.2715,0.0,-2.3221,-2.3455,-2.2457,-2.191,0.0,0.0,0.0,0.0,0.0,0.0,0.0,0.0,0.0,0.0,0.0,0.0,0.0,0.0,0.0,0.0,0.0,0.0,0.0,0.0,0.0,0.0,0.0,0.0,0.0,0.0,0.0,0.0,0.0,0.0,0.0,0.0,0.0,0.0,0.0,0.0,0.0,0.0,0.0,0.0,0.0,0.0,0.0,0.0,0.0,0.0,0.0,0.0,0.0,0.0,0.0,0.0,0.0,0.0,0.0,0.0,0.0,0.0,0.0,0.0,0.0,0.0,0.0,0.0,0.0,0.0,0.0,0.0,0.0,0.0,0.0,0.0,0.0,0.0,0.0,0.0,0.0,0.0,0.0,0.0,0.0,0.0,0.0,0.0,0.0,0.0,0.0,0.0,0.0,0.0,0.0,0.0,0.0,0.0,0.0,0.0,0.0,0.0,0.0,0.0,0.0,0.0,0.0,0.0,0.0,0.0,0.0,0.0,-2.3555,-2.4336,-2.3574,-2.3612,-2.4315,-2.2849,-2.1951,0.0,0.0,0.0,0.0,0.0,0.0,0.0,0.0,0.0,0.0,0.0,0.0,0.0,0.0,0.0,0.0,0.0,0.0,0.0,0.0,0.0,0.0,0.0,0.0,0.0,0.0,0.0,0.0,0.0,0.0,0.0,0.0,0.0,0.0,0.0,0.0,0.0,0.0,0.0,0.0,0.0,0.0,0.0,0.0,0.0,0.0,0.0,0.0,0.0,0.0,0.0,0.0,0.0,0.0,0.0,0.0,0.0,0.0,0.0,0.0,0.0,0.0,0.0,0.0,0.0,0.0,0.0,0.0,0.0,0.0,0.0,0.0,0.0,0.0,0.0,0.0,0.0,0.0,0.0,0.0,0.0,0.0,0.0,0.0,0.0,0.0,0.0,0.0,0.0,0.0,0.0,0.0,0.0,0.0,0.0,0.0,0.0,0.0,0.0,0.0,0.0,0.0,0.0,0.0,0.0,0.0,0.0,0.0,0.0,-2.5293,-2.5039,-2.5019,-2.5254,-2.4218,-2.3339,0.0,0.0,0.0,0.0,0.0,0.0,0.0,0.0,0.0,0.0,0.0,0.0,0.0,0.0,0.0,0.0,0.0,0.0,0.0,0.0,0.0,0.0,0.0,0.0,0.0,0.0,0.0,0.0,0.0,0.0,0.0,0.0,0.0,0.0,0.0,0.0,0.0,0.0,0.0,0.0,0.0,0.0,0.0,0.0,0.0,0.0,0.0,0.0,0.0,0.0,0.0,0.0,0.0,0.0,0.0,0.0,0.0,0.0,0.0,0.0,0.0,0.0,0.0,0.0,0.0,0.0,0.0,0.0,0.0,0.0,0.0,0.0,0.0,0.0,0.0,0.0,0.0,0.0,0.0,0.0,0.0,0.0,0.0,0.0,0.0,0.0,0.0,0.0,0.0,0.0,0.0,0.0,0.0,0.0,0.0,0.0,0.0,0.0,0.0,0.0,0.0,0.0,0.0,0.0,0.0,0.0,0.0,0.0,0.0,-2.6172,-2.5859,-2.5703,-2.5703,-2.4844,-2.4141,-2.3593,0.0,0.0,0.0,0.0,0.0,0.0,0.0,0.0,0.0,0.0,0.0,0.0,0.0,0.0,0.0,0.0,0.0,0.0,0.0,0.0,0.0,0.0,0.0,0.0,0.0,0.0,0.0,0.0,0.0,0.0,0.0,0.0,0.0,0.0,0.0,0.0,0.0,0.0,0.0,0.0,0.0,0.0,0.0,0.0,0.0,0.0,0.0,0.0,0.0,0.0,0.0,0.0,0.0,0.0,0.0,0.0,0.0,0.0,0.0,0.0,0.0,0.0,0.0,0.0,0.0,0.0,0.0,0.0,0.0,0.0,0.0,0.0,0.0,0.0,0.0,0.0,0.0,0.0,0.0,0.0,0.0,0.0,0.0,0.0,0.0,0.0,0.0,0.0,0.0,0.0,0.0,0.0,0.0,0.0,0.0,0.0,0.0,0.0,0.0,0.0,0.0,0.0,0.0,0.0,0.0,0.0,0.0,0.0,-2.707,-2.6308,-2.5898,-2.578,-2.4998,-2.4489,0.0,0.0,0.0,0.0,0.0,0.0,0.0,0.0,0.0,0.0,0.0,0.0,0.0,0.0,0.0,0.0,0.0,0.0,0.0,0.0,0.0,0.0,0.0,0.0,0.0,0.0,0.0,0.0,0.0,0.0,0.0,0.0,0.0,0.0,0.0,0.0,0.0,0.0,0.0,0.0,0.0,0.0,0.0,0.0,0.0,0.0,0.0,0.0,0.0,0.0,0.0,0.0,0.0,0.0,0.0,0.0,0.0,0.0,0.0,0.0,0.0,0.0,0.0,0.0,0.0,0.0,0.0,0.0,0.0,0.0,0.0,0.0,0.0,0.0,0.0,0.0,0.0,0.0,0.0,0.0,0.0,0.0,0.0,0.0,0.0,0.0,0.0,0.0,0.0,0.0,0.0,0.0,0.0,0.0,0.0,0.0,0.0,0.0,0.0,0.0,0.0,0.0,0.0,0.0,0.0,0.0,0.0,0.0,0.0,-2.7929,-2.8357,-2.7966,-2.6718,-2.6443,-2.5719,0.0,0.0,0.0,0.0,0.0,0.0,0.0,0.0,0.0,0.0,0.0,0.0,0.0,0.0,0.0,0.0,0.0,0.0,0.0,0.0,0.0,0.0,0.0,0.0,0.0,0.0,0.0,0.0,0.0,0.0,0.0,0.0,0.0,0.0,0.0,0.0,0.0,0.0,0.0,0.0,0.0,0.0,0.0,0.0,0.0,0.0,0.0,0.0,0.0,0.0,0.0,0.0,0.0,0.0,0.0,0.0,0.0,0.0,0.0,0.0,0.0,0.0,0.0,0.0,0.0,0.0,0.0,0.0,0.0,0.0,0.0,0.0,0.0,0.0,0.0,0.0,0.0,0.0,0.0,0.0,0.0,0.0,0.0,0.0,0.0,0.0,0.0,0.0,0.0,0.0,0.0,0.0,0.0,0.0,0.0,0.0,0.0,0.0,0.0,0.0,0.0,0.0,0.0,0.0,0.0,0.0,0.0,0.0,-2.8144,-2.9374,-3.0231,-2.9996,-2.8668,-2.7923,-2.6906,0.0,0.0,0.0,0.0,0.0,0.0,0.0,0.0,0.0,0.0,0.0,0.0,0.0,0.0,0.0,0.0,0.0,0.0,0.0,0.0,0.0,0.0,0.0,0.0,0.0,0.0,0.0,0.0,0.0,0.0,0.0,0.0,0.0,0.0,0.0,0.0,0.0,0.0,0.0,0.0,0.0,0.0,0.0,0.0,0.0,0.0,0.0,0.0,0.0,0.0,0.0,0.0,0.0,0.0,0.0,0.0,0.0,0.0,0.0,0.0,0.0,0.0,0.0,0.0,0.0,0.0,0.0,0.0,0.0,0.0,0.0,0.0,0.0,0.0,0.0,0.0,0.0,0.0,0.0,0.0,0.0,0.0,0.0,0.0,0.0,0.0,0.0,0.0,0.0,0.0,0.0,0.0,0.0,0.0,0.0,0.0,0.0,0.0,0.0,0.0,0.0,0.0,0.0,0.0,0.0,0.0,0.0,0.0,-2.9277,-3.0994,-3.1891,-3.1985,-3.1141,-2.9398,-2.7991,0.0,0.0,0.0,0.0,0.0,0.0,0.0,0.0,0.0,0.0,0.0,0.0,0.0,0.0,0.0,0.0,0.0,0.0,0.0,0.0,0.0,0.0,0.0,0.0,0.0,0.0,0.0,0.0,0.0,0.0,0.0,0.0,0.0,0.0,0.0,0.0,0.0,0.0,0.0,0.0,0.0,0.0,0.0,0.0,0.0,0.0,0.0,0.0,0.0,0.0,0.0,0.0,0.0,0.0,0.0,0.0,0.0,0.0,0.0,0.0,0.0,0.0,0.0,0.0,0.0,0.0,0.0,0.0,0.0,0.0,0.0,0.0,0.0,0.0,0.0,0.0,0.0,0.0,0.0,0.0,0.0,0.0,0.0,0.0,0.0,0.0,0.0,0.0,0.0,0.0,0.0,0.0,0.0,0.0,0.0,0.0,0.0,0.0,0.0,0.0,0.0,0.0,0.0,0.0,0.0,0.0,0.0,0.0,-3.0156,-3.1812,-3.3335,-3.3741,-3.2872,-3.0568,-2.8597,0.0,0.0,0.0,0.0,0.0,0.0,0.0,0.0,0.0,0.0,0.0,0.0,0.0,0.0,0.0,0.0,0.0,0.0,0.0,0.0,0.0,0.0,0.0,0.0,0.0,0.0,0.0,0.0,0.0,0.0,0.0,0.0,0.0,0.0,0.0,0.0,0.0,0.0,0.0,0.0,0.0,0.0,0.0,0.0,0.0,0.0,0.0,0.0,-2.5507,0.0,0.0,0.0,0.0,0.0,0.0,0.0,0.0,0.0,0.0,0.0,0.0,0.0,0.0,0.0,0.0,0.0,0.0,0.0,0.0,0.0,0.0,0.0,0.0,0.0,0.0,0.0,0.0,0.0,0.0,0.0,0.0,0.0,0.0,0.0,0.0,0.0,0.0,0.0,0.0,0.0,0.0,0.0,0.0,0.0,0.0,0.0,0.0,0.0,0.0,0.0,0.0,0.0,0.0,0.0,0.0,0.0,0.0,0.0,-3.1034,-3.269,-3.4409,-3.4698,-3.3417,-3.1307,-2.9373,0.0,0.0,0.0,0.0,0.0,0.0,0.0,0.0,0.0,0.0,0.0,0.0,0.0,0.0,0.0,0.0,0.0,0.0,0.0,0.0,0.0,0.0,0.0,0.0,0.0,0.0,0.0,0.0,0.0,0.0,0.0,0.0,0.0,0.0,0.0,0.0,0.0,0.0,0.0,0.0,0.0,0.0,0.0,0.0,0.0,0.0,0.0,0.0,0.0,0.0,0.0,0.0,0.0,0.0,0.0,0.0,0.0,0.0,0.0,0.0,0.0,0.0,0.0,0.0,0.0,0.0,0.0,0.0,0.0,0.0,0.0,0.0,0.0,0.0,0.0,0.0,0.0,0.0,0.0,0.0,0.0,0.0,0.0,0.0,0.0,0.0,0.0,0.0,0.0,0.0,0.0,0.0,0.0,0.0,0.0,0.0,0.0,0.0,0.0,0.0,0.0,0.0,0.0,0.0,0.0,0.0,0.0,-3.0156,-3.1855,-3.3374,-3.5112,-3.5167,-3.3456,-3.1849,-3.0147,-2.8332,0.0,0.0,0.0,0.0,0.0,0.0,0.0,0.0,0.0,0.0,0.0,0.0,0.0,0.0,0.0,0.0,0.0,0.0,0.0,0.0,0.0,0.0,0.0,0.0,0.0,0.0,0.0,0.0,0.0,0.0,0.0,0.0,0.0,0.0,0.0,0.0,0.0,0.0,-2.5395,-2.5511,0.0,0.0,0.0,0.0,0.0,0.0,0.0,0.0,-2.5515,0.0,0.0,0.0,0.0,0.0,0.0,0.0,0.0,0.0,0.0,0.0,0.0,0.0,0.0,0.0,0.0,0.0,0.0,0.0,0.0,0.0,0.0,0.0,0.0,0.0,0.0,0.0,0.0,0.0,0.0,0.0,0.0,0.0,0.0,0.0,0.0,0.0,0.0,0.0,0.0,0.0,0.0,0.0,0.0,0.0,0.0,0.0,0.0,0.0,0.0,0.0,0.0,0.0,0.0,0.0,0.0,-2.832,-3.0723,-3.2441,-3.3393,-3.5092,-3.5167,-3.3455,-3.241,-3.0744,-2.8385,0.0,0.0,0.0,0.0,0.0,0.0,0.0,0.0,0.0,0.0,0.0,0.0,0.0,0.0,0.0,0.0,0.0,0.0,0.0,0.0,0.0,0.0,0.0,0.0,0.0,0.0,0.0,0.0,0.0,0.0,0.0,0.0,0.0,0.0,0.0,0.0,0.0,0.0,0.0,-2.5513,-2.5508,0.0,0.0,0.0,0.0,0.0,0.0,0.0,0.0,-2.5515,0.0,0.0,0.0,0.0,0.0,0.0,0.0,0.0,0.0,0.0,0.0,0.0,0.0,0.0,0.0,0.0,0.0,0.0,0.0,0.0,0.0,0.0,0.0,0.0,0.0,0.0,0.0,0.0,0.0,0.0,0.0,0.0,0.0,0.0,0.0,0.0,0.0,0.0,0.0,0.0,0.0,0.0,0.0,0.0,0.0,0.0,0.0,0.0,0.0,0.0,0.0,0.0,0.0,0.0,0.0,-2.8378,-3.0428,-3.1911,-3.2726,-3.3995,-3.4031,-3.2753,-3.1887,-3.0435,0.0,0.0,0.0,0.0,0.0,0.0,0.0,0.0,0.0,0.0,0.0,0.0,0.0,0.0,0.0,0.0,0.0,0.0,0.0,0.0,0.0,0.0,0.0,0.0,0.0,0.0,0.0,0.0,0.0,0.0,0.0,0.0,0.0,0.0,0.0,0.0,0.0,0.0,0.0,0.0,-2.5538,-2.5703,-2.6113,0.0,0.0,0.0,0.0,0.0,0.0,-2.5832,-2.5541,0.0,0.0,0.0,0.0,0.0,0.0,0.0,0.0,0.0,0.0,0.0,0.0,0.0,0.0,0.0,0.0,0.0,0.0,0.0,0.0,0.0,0.0,0.0,0.0,0.0,0.0,0.0,0.0,0.0,0.0,0.0,0.0,0.0,0.0,0.0,0.0,0.0,0.0,0.0,0.0,0.0,0.0,0.0,0.0,0.0,0.0,0.0,0.0,0.0,0.0,0.0,0.0,0.0,0.0,0.0,-2.8316,-3.0172,-3.1459,-3.2096,-3.2956,-3.2992,-3.2128,-3.1418,-3.0183,0.0,0.0,0.0,0.0,0.0,0.0,0.0,0.0,0.0,0.0,0.0,0.0,0.0,0.0,0.0,0.0,0.0,0.0,0.0,0.0,0.0,0.0,0.0,0.0,0.0,0.0,0.0,0.0,0.0,0.0,0.0,0.0,0.0,0.0,0.0,0.0,0.0,0.0,0.0,0.0,0.0,-2.6152,-2.6958,-2.7122,0.0,0.0,0.0,0.0,-2.7145,-2.6423,0.0,0.0,0.0,0.0,0.0,0.0,0.0,0.0,0.0,0.0,0.0,0.0,0.0,0.0,0.0,0.0,0.0,0.0,0.0,0.0,0.0,0.0,0.0,0.0,0.0,0.0,0.0,0.0,0.0,0.0,0.0,0.0,0.0,0.0,0.0,0.0,0.0,0.0,0.0,0.0,0.0,0.0,0.0,0.0,0.0,0.0,0.0,0.0,0.0,0.0,0.0,0.0,0.0,0.0,0.0,0.0,-2.8394,-3.0718,-3.2025,-3.2136,-3.2953,-3.2988,-3.2119,-3.1994,-3.0799,0.0,0.0,0.0,0.0,0.0,0.0,0.0,0.0,0.0,0.0,0.0,0.0,0.0,0.0,0.0,0.0,0.0,0.0,0.0,0.0,0.0,0.0,0.0,0.0,0.0,0.0,0.0,0.0,0.0,0.0,0.0,0.0,0.0,0.0,0.0,0.0,0.0,0.0,0.0,0.0,0.0,-2.7065,-2.7937,-2.8037,-2.8096,0.0,0.0,-2.8051,-2.8034,-2.7312,0.0,0.0,0.0,0.0,0.0,0.0,0.0,0.0,0.0,0.0,0.0,0.0,0.0,0.0,0.0,0.0,0.0,0.0,0.0,0.0,0.0,0.0,0.0,0.0,0.0,0.0,0.0,0.0,0.0,0.0,0.0,0.0,0.0,0.0,0.0,0.0,0.0,0.0,0.0,0.0,0.0,0.0,0.0,0.0,0.0,0.0,0.0,0.0,0.0,0.0,0.0,0.0,0.0,0.0,0.0,-2.829,-2.8368,-3.0321,-3.1374,-3.137,-3.174,-3.1736,-3.1358,-3.1354,-3.0391,0.0,0.0,0.0,0.0,0.0,0.0,0.0,0.0,0.0,0.0,0.0,0.0,0.0,0.0,0.0,0.0,0.0,0.0,0.0,0.0,0.0,0.0,0.0,0.0,0.0,0.0,0.0,0.0,0.0,0.0,0.0,0.0,0.0,0.0,0.0,0.0,0.0,0.0,0.0,0.0,0.0,0.0,-2.8818,-2.8935,0.0,0.0,0.0,-2.8932,-2.8943,0.0,0.0,0.0,0.0,0.0,0.0,0.0,0.0,0.0,0.0,0.0,0.0,0.0,0.0,0.0,0.0,0.0,0.0,0.0,0.0,0.0,0.0,0.0,0.0,0.0,0.0,0.0,0.0,0.0,0.0,0.0,0.0,0.0,0.0,0.0,0.0,0.0,0.0,0.0,0.0,0.0,0.0,0.0,0.0,0.0,0.0,0.0,0.0,0.0,0.0,0.0,0.0,0.0,0.0,0.0,0.0,0.0,-2.8654,-3.0059,-3.0898,-3.1114,-3.0917,-3.0912,-3.1121,-3.0906,0.0,0.0,0.0,0.0,0.0,0.0,0.0,0.0,0.0,0.0,0.0,0.0,0.0,0.0,0.0,0.0,0.0,0.0,0.0,0.0,0.0,0.0,0.0,0.0,0.0,0.0,0.0,-2.0588,0.0,0.0,0.0,0.0,0.0,0.0,0.0,0.0,0.0,0.0,0.0,0.0,0.0,0.0,-2.8826,-2.9702,-2.9816,-3.005,0.0,0.0,-2.9816,-2.9833,-2.9096,-2.8515,0.0,0.0,0.0,0.0,0.0,0.0,0.0,0.0,0.0,0.0,0.0,0.0,0.0,0.0,0.0,0.0,0.0,0.0,0.0,0.0,0.0,0.0,0.0,0.0,0.0,0.0,0.0,0.0,0.0,0.0,0.0,0.0,0.0,0.0,0.0,0.0,0.0,0.0,0.0,0.0,0.0,0.0,0.0,0.0,0.0,0.0,0.0,0.0,0.0,0.0,0.0,0.0,0.0,0.0,0.0,-2.9514,-3.0372,-3.1192,-3.1934,-3.1206,-3.1198,-3.1968,-3.1209,-2.9977,0.0,0.0,0.0,0.0,0.0,0.0,0.0,0.0,0.0,0.0,0.0,0.0,0.0,0.0,0.0,0.0,0.0,0.0,0.0,0.0,0.0,0.0,0.0,0.0,0.0,0.0,0.0,0.0,0.0,0.0,0.0,0.0,0.0,0.0,0.0,0.0,0.0,0.0,0.0,0.0,0.0,-2.9737,-3.0602,-3.0721,-3.0721,0.0,0.0,-3.0697,-3.0708,-2.9988,-2.9416,-2.9402,0.0,0.0,0.0,0.0,0.0,0.0,0.0,0.0,0.0,0.0,0.0,0.0,0.0,0.0,0.0,0.0,0.0,0.0,0.0,0.0,0.0,0.0,0.0,0.0,0.0,0.0,0.0,0.0,0.0,0.0,0.0,0.0,0.0,0.0,0.0,0.0,0.0,0.0,0.0,0.0,0.0,0.0,0.0,0.0,0.0,0.0,0.0,0.0,0.0,0.0,0.0,0.0,0.0,-2.8732,-2.9592,-3.0919,-3.1758,-3.2071,-3.1776,-3.1751,-3.2093,-3.1269,-3.0248,0.0,0.0,0.0,0.0,0.0,0.0,0.0,0.0,0.0,0.0,0.0,0.0,0.0,0.0,0.0,0.0,0.0,0.0,0.0,0.0,0.0,0.0,0.0,0.0,0.0,0.0,0.0,0.0,-2.2608,-2.2933,-2.374,0.0,0.0,0.0,0.0,0.0,0.0,0.0,0.0,0.0,0.0,-3.0407,-3.0743,-3.0801,0.0,0.0,-3.1602,-3.1602,-3.1598,-3.1325,-3.0913,-3.0397,-3.0027,0.0,0.0,0.0,0.0,0.0,0.0,0.0,0.0,0.0,0.0,0.0,0.0,0.0,0.0,0.0,0.0,0.0,0.0,0.0,0.0,0.0,0.0,0.0,0.0,0.0,0.0,0.0,0.0,0.0,0.0,0.0,0.0,0.0,0.0,0.0,0.0,0.0,0.0,0.0,0.0,0.0,0.0,0.0,0.0,0.0,0.0,0.0,0.0,0.0,0.0,0.0,0.0,-2.9103,-2.9962,-3.1369,-3.2247,-3.248,-3.25,-3.2497,-3.2471,-3.1643,-3.0659,0.0,0.0,0.0,0.0,0.0,0.0,0.0,0.0,0.0,0.0,0.0,0.0,0.0,0.0,0.0,0.0,0.0,0.0,0.0,0.0,0.0,0.0,0.0,0.0,0.0,0.0,0.0,0.0,-2.3715,-2.4117,-2.4672,0.0,0.0,0.0,0.0,0.0,0.0,0.0,0.0,0.0,0.0,-3.1178,-3.1178,-3.1412,-3.1804,-3.2391,-3.2484,-3.2501,-3.2482,-3.2482,-3.2287,-3.168,0.0,0.0,0.0,0.0,0.0,0.0,0.0,0.0,0.0,0.0,0.0,0.0,0.0,0.0,0.0,0.0,0.0,0.0,0.0,0.0,0.0,0.0,0.0,0.0,0.0,0.0,0.0,0.0,0.0,0.0,-2.7965,0.0,0.0,0.0,0.0,0.0,0.0,0.0,0.0,0.0,0.0,0.0,0.0,0.0,0.0,0.0,0.0,0.0,0.0,0.0,0.0,0.0,0.0,-2.9963,-3.0761,-3.168,-3.2539,-3.3338,-3.3377,-3.3395,-3.337,-3.2528,-3.1251,-2.9556,0.0,0.0,0.0,0.0,0.0,0.0,0.0,0.0,0.0,0.0,0.0,0.0,0.0,0.0,0.0,0.0,0.0,0.0,0.0,0.0,0.0,0.0,0.0,0.0,0.0,0.0,-2.4321,-2.5132,-2.5653,0.0,0.0,0.0,0.0,0.0,0.0,0.0,0.0,0.0,0.0,-3.1536,-3.2071,-3.2091,-3.2792,-3.3299,-3.3377,-3.3388,-3.3378,-3.338,-3.3378,-3.3358,0.0,0.0,0.0,0.0,0.0,0.0,0.0,0.0,0.0,0.0,0.0,0.0,0.0,0.0,0.0,0.0,0.0,0.0,0.0,0.0,0.0,0.0,0.0,0.0,0.0,0.0,0.0,-2.7928,-2.7994,0.0,0.0,0.0,0.0,0.0,0.0,0.0,0.0,0.0,0.0,0.0,-2.8301,-2.8283,0.0,0.0,0.0,0.0,0.0,0.0,0.0,0.0,0.0,0.0,0.0,0.0,-3.0276,-3.1641,-3.2519,-3.3377,-3.4217,-3.4276,-3.4275,-3.4254,-3.2862,-3.1274,-2.9548,0.0,0.0,0.0,0.0,0.0,0.0,0.0,0.0,0.0,0.0,0.0,0.0,0.0,0.0,0.0,0.0,0.0,0.0,0.0,0.0,0.0,0.0,0.0,0.0,0.0,-2.4552,0.0,0.0,0.0,0.0,0.0,0.0,0.0,0.0,0.0,0.0,0.0,-3.1341,-3.1616,-3.2407,-3.2961,-3.2961,-3.3195,-3.3602,0.0,0.0,0.0,0.0,0.0,0.0,0.0,0.0,0.0,0.0,0.0,0.0,0.0,0.0,-3.1096,-2.9381,-2.8598,-2.8206,-2.8206,0.0,0.0,0.0,0.0,0.0,0.0,0.0,0.0,0.0,0.0,0.0,0.0,0.0,0.0,-2.9699,0.0,-2.984,0.0,0.0,0.0,0.0,0.0,0.0,0.0,0.0,-3.0005,-3.0018,-3.0076,-3.0076,-3.0066,0.0,-3.006,-3.0078,0.0,0.0,0.0,0.0,0.0,0.0,0.0,0.0,-3.1174,-3.2519,-3.3417,-3.412,-3.4687,-3.4998,-3.5018,-3.4687,-3.3,-3.157,-3.0453,-2.9317,-2.8459,0.0,0.0,0.0,0.0,0.0,0.0,0.0,0.0,0.0,0.0,0.0,0.0,0.0,0.0,0.0,0.0,0.0,0.0,0.0,0.0,0.0,0.0,0.0,-2.5871,0.0,0.0,0.0,0.0,0.0,0.0,0.0,0.0,0.0,-3.0403,-3.1387,-3.2214,-3.2508,-3.3315,-3.3867,-3.3867,0.0,0.0,0.0,0.0,0.0,0.0,0.0,-3.4971,-3.4388,-3.431,-3.4193,-3.3901,-3.3842,-3.3745,-3.3452,0.0,0.0,-3.117,-3.0408,-2.9901,-2.9628,-2.9567,-2.9451,-2.9171,-2.9812,-3.0394,0.0,0.0,0.0,0.0,0.0,0.0,0.0,0.0,-3.3003,-3.2954,0.0,-3.3026,0.0,0.0,0.0,0.0,0.0,-3.3213,0.0,0.0,-3.3281,-3.3373,-3.3335,-3.3315,-3.3363,-3.3377,-3.3299,-3.3299,-3.3162,-3.0059,0.0,0.0,0.0,0.0,0.0,0.0,-3.2578,-3.3416,-3.4256,-3.4726,-3.4783,-3.5564,-3.5582,-3.4686,-3.3078,-3.2158,-3.204,-3.0434,-2.9536,-2.9464,-2.7903,0.0,0.0,0.0,0.0,0.0,0.0,0.0,0.0,0.0,0.0,0.0,0.0,0.0,0.0,0.0,0.0,0.0,0.0,0.0,0.0,-2.6541,0.0,0.0,0.0,0.0,0.0,0.0,0.0,0.0,0.0,0.0,-3.2175,-3.2218,-3.2494,-3.3337,0.0,0.0,0.0,0.0,-3.604,-3.6098,-3.6072,-3.6085,-3.6105,-3.6085,-3.6103,-3.6085,0.0,0.0,-3.4993,-3.4819,-3.4548,-3.369,-3.3592,-3.3473,-3.3456,-3.3298,-3.2984,-3.2239,-3.2024,-3.181,-3.1149,-3.1498,-3.2063,-3.8226,0.0,0.0,0.0,0.0,-3.5865,-3.5636,-3.5592,-3.4435,-3.3944,-3.3895,-3.3403,0.0,0.0,0.0,0.0,0.0,0.0,-3.3331,-3.3378,-3.3378,-3.3392,-3.3393,-3.3393,-3.3383,-3.3396,-3.3396,-3.3396,-3.3338,-3.242,-3.1932,-3.1932,0.0,0.0,0.0,0.0,-3.3455,-3.4276,-3.4588,-3.4998,-3.5602,-3.5875,-3.5582,-3.4725,-3.4216,-3.3375,-3.2126,-3.1011,-3.0152,-2.9569,-2.8514,0.0,0.0,0.0,0.0,0.0,0.0,0.0,0.0,0.0,0.0,0.0,0.0,0.0,0.0,0.0,0.0,0.0,0.0,0.0,-2.746,-2.7773,-2.8281,0.0,0.0,0.0,0.0,0.0,0.0,0.0,0.0,0.0,-3.3877,-3.3952,-3.4046,0.0,0.0,-3.5844,-3.6468,-3.6765,-3.7137,-3.7775,-3.7851,0.0,-3.7843,-3.7861,-3.7842,-3.7842,-3.7866,-3.7773,-3.7538,-3.6976,-3.6472,-3.6199,-3.5671,-3.5242,-3.5182,-3.4212,-3.3395,-3.3081,-3.3023,-3.2964,-3.275,-3.2886,-3.3023,-4.0896,-3.9912,-3.8584,-3.8007,-3.795,-3.743,-3.7266,-3.725,-3.6254,-3.5822,-3.5825,-3.5403,-3.5219,-3.5224,-3.5301,0.0,0.0,0.0,-3.5382,-3.5402,-3.5429,-3.5424,-3.5422,-3.5426,-3.5259,-3.4958,-3.494,-3.4763,-3.4431,-3.4431,-3.4431,-3.4392,0.0,0.0,-3.3905,-3.3925,-3.4353,-3.5174,-3.5213,-3.5467,-3.5992,-3.6012,-3.5758,-3.5232,-3.4881,-3.4217,-3.3163,-3.1953,-3.1094,-3.0588,-2.9436,-2.8558,0.0,0.0,0.0,0.0,0.0,0.0,0.0,0.0,0.0,0.0,0.0,-2.4127,-2.5341,0.0,0.0,0.0,-2.72,-2.7885,-2.8726,-2.8807,0.0,0.0,0.0,0.0,0.0,0.0,0.0,-3.3811,-3.3909,-3.4242,-3.5103,-3.5511,-3.5724,-3.5724,-3.6179,-3.6828,-3.7687,0.0,-3.8002,-3.8506,-3.8604,-3.8603,-3.86,-3.86,-3.86,-3.86,-3.8602,-3.8604,-3.8584,-3.8157,-3.7827,-3.7749,-3.7397,-3.6909,-3.6577,-3.5651,-3.4683,-3.4059,-3.3922,-3.3824,-3.3492,-3.3649,-3.3922,-4.312,-4.2816,-3.9719,-3.843,-3.8392,-3.8334,-3.8363,-3.8387,-3.8266,-3.8241,-3.8317,-3.8308,-3.8311,-3.8297,-3.8367,0.0,-3.8408,-3.8487,-3.8468,-3.8522,-3.8519,-3.8512,-3.8523,-3.8495,-3.8113,-3.7399,-3.734,-3.689,-3.6109,-3.6012,-3.6012,-3.5973,-3.4392,-3.4021,-3.4764,-3.4783,-3.5193,-3.5973,-3.5992,-3.6012,-3.6012,-3.6012,-3.6012,-3.5992,-3.5232,-3.4764,-3.4648,-3.3165,-3.2247,-3.2052,-3.0627,-2.9729,-2.9592,0.0,0.0,0.0,0.0,0.0,0.0,0.0,0.0,0.0,0.0,0.0,0.0,0.0,0.0,0.0,-2.8423,0.0,-2.9715,-2.9856,0.0,0.0,0.0,-3.2558,-3.3417,-3.3514,-3.3844,-3.4702,0.0,0.0,-3.5991,-3.6812,-3.7359,-3.7496,-3.7456,-3.773,-3.8589,-3.8707,-3.8726,-3.8882,-3.8824,-3.8843,-3.8978,-3.894,-3.896,-3.896,-3.8804,-3.8863,-3.8765,-3.8609,-3.8609,-3.8395,-3.8414,-3.8102,-3.7301,-3.7007,-3.6695,-3.5073,-3.4799,-3.4584,-3.394,-3.431,-3.4798,-4.3639,-4.3047,-4.222,-4.1873,-4.1835,-4.1181,-4.0931,-4.0875,-3.9636,-3.9116,-3.9166,-3.857,-3.8331,-3.8388,-3.8399,-3.8385,-3.8385,-3.8487,-3.8513,-3.8519,-3.8524,-3.8517,-3.8514,-3.8516,-3.8426,-3.8258,-3.7614,-3.7184,-3.6968,-3.6324,-3.6012,-3.5973,-3.5602,-3.5485,-3.568,-3.5699,-3.5797,-3.6012,-3.6012,-3.6012,-3.6012,-3.6012,-3.6012,-3.6012,-3.5797,-3.5389,-3.4726,-3.4315,-3.3476,-3.2169,-3.172,-3.092,-2.9651,-2.9397,0.0,0.0,0.0,0.0,0.0,0.0,0.0,0.0,0.0,-2.686,-2.7913,0.0,-2.8069,0.0,-2.9475,-3.0568,-3.1428,-3.2096,0.0,0.0,-3.31,-3.3436,-3.4277,-3.4394,-3.4745,-3.5601,-3.5698,-3.6031,-3.6892,-3.7166,-3.7791,-3.9062,-3.869,-3.8611,-3.9452,-3.9589,-3.9824,-4.031,-4.0408,-4.0505,-4.0386,-4.0502,-4.0405,-4.0502,-4.0484,-4.029,-3.9685,-3.9042,-3.8379,-3.7715,-3.705,-3.6582,-3.6406,-3.6289,-3.6211,-3.5781,-3.5701,-3.5639,-3.5425,-3.5542,-3.5678,-4.4554,-4.4175,-4.4192,-4.4201,-4.4124,-4.2912,-4.2406,-4.2352,-4.1487,-4.1124,-4.1081,-4.0328,-3.981,-3.9513,-3.9524,-3.9564,-3.9556,-3.9623,-3.9652,-3.9655,-3.966,-3.9653,-3.965,-3.9653,-3.9463,-3.9118,-3.8648,-3.8024,-3.7301,-3.6812,-3.6402,-3.6012,-3.6012,-3.6012,-3.6012,-3.6012,-3.6012,-3.6012,-3.6012,-3.6012,-3.6012,-3.6012,-3.6012,-3.6012,-3.6012,-3.5778,-3.5291,-3.4901,-3.4256,-3.33,-3.252,-3.1681,-3.0764,-3.0354,-2.9767,0.0,0.0,0.0,0.0,0.0,0.0,0.0,0.0,0.0,0.0,0.0,-2.9181,-2.9923,-3.1191,-3.2167,-3.2636,-3.3107,-3.3558,-3.3929,-3.3974,-3.433,-3.5173,-3.5273,-3.5469,-3.5937,-3.6014,-3.6171,-3.666,-3.707,-3.7636,-3.8633,-3.8652,-3.9062,-4.0214,-4.0469,-4.0527,-4.0546,-4.0566,-4.039,-4.0077,-3.9998,-3.9978,-3.9998,-3.9979,-3.9824,-3.9394,-3.8945,-3.8418,-3.7949,-3.748,-3.7012,-3.668,-3.6582,-3.6484,-3.6094,-3.6015,-3.6014,-3.6014,-3.6014,-3.6014,-4.5534,-4.5504,-4.5568,-4.5594,-4.547,-4.4028,-4.336,-4.3265,-4.3216,-4.3209,-4.3194,-4.2549,-4.1867,-4.1238,-4.1189,-4.1171,-4.1151,-4.111,-4.11,-4.1117,-4.1108,-4.11,-4.1115,-4.1104,-4.0717,-3.9976,-3.9858,-3.9039,-3.7633,-3.7516,-3.7067,-3.6363,-3.6344,-3.6324,-3.6324,-3.6344,-3.6207,-3.6012,-3.6012,-3.6012,-3.6012,-3.6012,-3.6012,-3.6012,-3.6012,-3.6012,-3.5992,-3.5271,-3.4822,-3.4668,-3.3241,-3.2384,-3.2265,-3.1561,-3.0821,0.0,-3.01,0.0,0.0,0.0,0.0,0.0,0.0,0.0,0.0,-3.0022,-3.0705,-3.2148,-3.3046,-3.3573,-3.3552,-3.367,-3.404,-3.4764,-3.4866,-3.5183,-3.5887,-3.6011,-3.6014,-3.6014,-3.6015,-3.6035,-3.625,-3.6836,-3.7324,-3.7656,-3.8223,-3.916,-4.0605,-4.082,-4.043,-3.9805,-3.9844,-3.9805,-3.9355,-3.9121,-3.9121,-3.9062,-3.9199,-3.8906,-3.8906,-3.8691,-3.8555,-3.8398,-3.8144,-3.7871,-3.7246,-3.709,-3.6836,-3.6152,-3.6016,-3.6016,-3.6016,-3.6016,-3.6016,-4.6081,-4.5504,-4.5568,-4.5594,-4.5575,-4.5248,-4.4746,-4.4124,-4.3466,-4.3252,-4.3361,-4.3205,-4.3109,-4.2966,-4.2337,-4.2046,-4.2031,-4.1386,-4.1106,-4.1111,-4.1113,-4.1107,-4.1106,-4.1108,-4.1012,-4.0815,-4.0151,-3.9644,-3.9312,-3.8669,-3.8279,-3.8121,-3.8102,-3.8102,-3.8102,0.0,0.0,0.0,-3.6012,-3.6012,-3.6012,-3.6012,-3.6012,-3.6012,-3.6012,0.0,-3.5992,-3.5836,-3.5408,-3.4744,-3.4374,0.0,0.0,0.0,0.0,0.0,0.0,0.0,0.0,0.0,0.0,0.0,-3.2537,-3.2207,-3.1699,-3.2285,-3.2812,-3.3143,-3.3925,-3.4452,-3.4452,-3.5094,-3.5563,-3.5738,-3.574,-3.5822,-3.6003,-3.6006,-3.6009,-3.6014,-3.6014,-3.6269,-3.6894,-3.7207,-3.7559,-3.8144,-3.8476,-3.9004,-3.998,-3.9609,-3.9082,-3.8906,-3.9473,-4.0078,-4.0625,-4.0547,-4.0371,-4.0703,-4.0703,-4.0351,-3.9668,-3.8984,-3.8301,-3.7754,-3.6973,-3.6523,-3.6328,-3.625,-3.625,-3.6035,-3.6016,-3.6016,-3.6016,-3.6016,-3.6016,-4.7088,0.0,-4.6367,-4.624,0.0,-4.5787,-4.5372,-4.4947,-4.4615,-4.4283,-4.4044,-4.4044,-4.3846,-4.3491,-4.3082,-4.268,-4.226,-4.1878,-4.1467,-4.1113,-4.1113,-4.1109,-4.1109,-4.1109,-4.1109,-4.109,-4.0659,-4.021,-3.98,-3.939,-3.9,-3.8611,-3.8611,-3.8611,-3.8611,-3.8611,-3.816,-3.7301,-3.6851,-3.6636,-3.6617,-3.6207,-3.6012,-3.6012,-3.6012,0.0,0.0,0.0,0.0,0.0,0.0,0.0,0.0,-3.3651,0.0,-3.3396,-3.3396,-3.3396,-3.3396,-3.3396,-3.3396,-3.3396,-3.3788,-3.3671,-3.2792,-3.3534,-3.4042,-3.4061,-3.4822,-3.5349,-3.5369,-3.5758,-3.6012,-3.6012,-3.6012,-3.6014,-3.6017,-3.6022,-3.6007,-3.6012,-3.6014,-3.6191,-3.6582,-3.668,-3.7012,-3.7793,-3.7969,-3.8301,-3.9082,-3.9277,-3.9258,-3.9219,-3.916,-3.9394,-3.9785,-3.9922,-3.9941,-3.9902,-3.9902,-3.9746,-3.9336,-3.8906,-3.8437,-3.7969,-3.7226,-3.666,-3.6601,-3.6309,-3.6016,-3.6016,-3.6016,-3.6016,-3.6016,-3.6016,-3.6016,-4.8152,-4.7951,-4.7367,-4.7124,-4.7048,-4.6201,-4.5748,-4.5631,0.0,0.0,0.0,-4.491,-4.4558,-4.3927,-4.3807,-4.3368,-4.2727,-4.2436,-4.1945,-4.1323,-4.115,-4.1107,-4.1106,-4.1108,-4.1109,-4.1109,-4.1109,-4.0737,-4.0034,-4.0034,-3.9683,-3.9099,-3.906,-3.9021,-3.904,-3.904,-3.904,-3.9001,-3.8024,-3.7438,-3.7282,-3.6597,-3.6148,-3.6012,-3.6012,-3.6012,-3.6012,-3.6012,-3.6012,-3.5992,-3.531,-3.492,-3.4901,-3.4255,-3.3865,-3.3865,-3.3845,-3.3865,-3.3865,-3.3865,-3.3865,-3.3865,-3.451,-3.4549,-3.371,-3.4432,-3.492,-3.492,-3.5582,-3.6012,-3.6012,-3.6012,-3.6012,-3.6012,-3.6012,-3.6012,-3.6012,-3.6018,-3.6004,-3.6009,-3.6168,-3.6229,-3.6308,-3.6504,-3.6699,-3.7363,-3.7676,-3.7832,-3.8652,-3.9277,-3.959,-3.9726,-3.9394,-3.8965,-3.9101,-3.9277,-3.9043,-3.9355,-3.9238,-3.9062,-3.9062,-3.8926,-3.8848,-3.8848,-3.8105,-3.7637,-3.7461,-3.6855,-3.6269,-3.623,-3.6094,-3.6016,-3.6016,-3.6016,-3.6016,-4.864,-4.7999,-4.7943,-4.7932,-4.7875,-4.7048,-4.6324,-4.5693,-4.5684,-4.5676,-4.5646,-4.5712,-4.5716,-4.5595,-4.4929,-4.4554,-4.4342,-4.2961,-4.227,-4.217,-4.144,-4.11,-4.1115,-4.1104,-4.1109,-4.1109,-4.1109,-4.1051,-4.0914,-4.0914,-4.0855,-4.0738,-4.0758,-4.0738,-4.0738,-4.0738,-4.0758,-4.0719,-3.9216,-3.8063,-3.7321,-3.7184,-3.6734,-3.6051,-3.6031,-3.6012,-3.6012,-3.6012,-3.6012,-3.6012,-3.5895,-3.5817,-3.5817,-3.568,-3.5641,-3.5641,-3.5621,-3.5641,-3.5621,-3.5641,-3.5641,-3.5641,-3.5758,-3.5446,-3.4627,-3.5309,-3.5817,-3.5817,-3.5934,-3.6012,-3.6012,-3.6012,-3.6012,-3.6012,-3.6012,-3.6012,-3.6012,-3.6052,-3.6076,-3.6083,-3.6669,-3.7122,-3.7166,-3.7714,-3.8144,-3.8359,-3.8496,-3.8769,-3.9414,-3.916,-3.9141,-3.9687,-3.9805,-4.0039,-4.0469,-4.0801,-4.0664,-4.084,-4.0723,-4.0625,-4.0605,-4.0117,-3.9726,-3.9726,-3.9004,-3.8496,-3.8398,-3.7715,-3.7226,-3.709,-3.6621,-3.6113,-3.6113,-3.6074,-3.6016,-4.9663,-4.9303,-4.8932,-4.8769,-4.8702,-4.7442,-4.671,-4.6313,-4.5883,-4.575,-4.5807,-4.588,-4.5931,-4.5978,-4.5617,-4.5201,-4.4772,-4.3996,-4.3443,-4.301,-4.2189,-4.1818,-4.1755,-4.1314,-4.1104,-4.1108,-4.1109,-4.1109,-4.1109,-4.1109,-4.1109,-4.1109,-4.1109,-4.1109,-4.1109,-4.1109,-4.1109,-4.107,-3.9878,-3.9058,-3.8648,-3.824,-3.7594,-3.6734,-3.6695,-3.648,-3.6031,-3.6012,-3.6012,-3.6012,-3.6012,-3.6012,-3.6012,-3.6012,-3.6012,-3.6012,-3.6012,-3.6012,-3.6012,-3.6012,-3.6012,-3.6012,-3.6012,-3.5856,-3.5447,-3.5758,-3.6012,-3.6012,-3.6012,-3.6012,-3.6012,-3.6012,-3.6012,-3.6012,-3.6012,-3.6012,-3.607,-3.6441,-3.6719,-3.6783,-3.7468,-3.7998,-3.8004,-3.8355,-3.8825,-3.9198,-3.9648,-4.0156,-4.0527,-4.0254,-4.0117,-4.0508,-4.0605,-4.0762,-4.1133,-4.1191,-4.1191,-4.1191,-4.1191,-4.1191,-4.1191,-4.0781,-4.0644,-4.0547,-3.9883,-3.9375,-3.9297,-3.8594,-3.8125,-3.793,-3.7305,-3.6797,-3.668,-3.6348,-3.6016,-5.0446,-5.0434,-4.9843,-4.9538,-4.9279,-4.8009,-4.7259,-4.6855,-4.6234,-4.5912,-4.5798,-4.5847,-4.5906,-4.5986,-4.5991,-4.5656,-4.5123,-4.4874,-4.4476,-4.3847,-4.3049,-4.2585,-4.2351,-4.1694,-4.1293,-4.1126,-4.1108,-4.1109,-4.1109,-4.1109,-4.1109,-4.1109,-4.1109,-4.1109,-4.1109,-4.1109,-4.1109,-4.107,-4.0424,-3.9995,-3.978,-3.9175,-3.8454,-3.7672,-3.7575,-3.7184,-3.6363,-3.6305,-3.6207,-3.6031,-3.6012,-3.6012,-3.6012,-3.6012,-3.6012,-3.6012,-3.6012,-3.6012,-3.6012,-3.6012,-3.6012,-3.6012,-3.6012,-3.6012,-3.6012,-3.6012,-3.6012,-3.6012,-3.6012,-3.6012,-3.6012,-3.6012,-3.6012,-3.6012,-3.6187,-3.6324,-3.6383,-3.7067,-3.7577,-3.7679,-3.8324,-3.8873,-3.8916,-3.9055,-3.9467,-4.0134,-4.078,-4.1152,-4.1191,-4.1191,-4.1191,-4.1172,-4.1191,-4.1172,-4.1191,-4.1191,-4.1191,-4.1191,-4.1191,-4.1191,-4.1191,-4.1191,-4.1191,-4.1074,-4.0664,-4.0254,-4.0117,-3.9492,-3.8984,-3.8828,-3.8184,-3.7559,-3.7226,-3.6562,-3.6055,-5.0446,-5.0481,-5.0448,-5.0057,-4.9433,-4.9202,-4.8298,-4.7028,-4.6803,-4.6353,-4.58,-4.5778,-4.5828,-4.5911,-4.5986,-4.5966,-4.5881,-4.5167,-4.4805,-4.469,-4.389,-4.3107,-4.2524,-4.2332,-4.1874,-4.1213,-4.1143,-4.1166,-4.1108,-4.1109,-4.1109,-4.1109,-4.1109,-4.1109,-4.1109,-4.1109,-4.1109,-4.1109,-4.1031,-4.06,-3.9858,-3.9722,-3.9312,-3.8513,-3.8494,-3.8063,-3.7223,-3.7165,-3.6812,-3.609,-3.6012,-3.6012,-3.6012,-3.6012,-3.6012,-3.6012,-3.6012,-3.6012,-3.6012,-3.6012,-3.6012,-3.6012,-3.6012,-3.6012,-3.6012,-3.6012,-3.6012,-3.6012,-3.6012,-3.6012,-3.6012,-3.6012,-3.6031,-3.6168,-3.6695,-3.7165,-3.7282,-3.7946,-3.8474,-3.8474,-3.9196,-3.9726,-3.981,-4.028,-4.077,-4.0834,-4.0992,-4.1129,-4.1129,-4.1129,-4.1129,-4.1129,-4.1171,-4.1191,-4.1191,-4.1191,-4.1191,-4.1191,-4.1191,-4.1191,-4.1191,-4.1191,-4.1191,-4.1172,-4.1133,-4.0976,-4.082,-4.0391,-3.9824,-3.9668,-3.9082,-3.8262,-3.748,-3.668,-3.6191,-5.0412,-5.05,-5.0532,-5.0392,-5.0125,-4.9625,-4.9029,-4.8317,-4.7316,-4.6716,-4.6353,-4.5943,-4.5793,-4.5899,-4.5917,-4.5972,-4.5997,-4.5697,-4.5584,-4.5529,-4.474,-4.4182,-4.3867,-4.3323,-4.2676,-4.1922,-4.187,-4.1603,-4.1179,-4.1106,-4.1109,-4.1109,-4.1109,-4.1109,-4.1109,-4.1109,-4.1109,-4.1109,-4.1109,-4.0914,-4.062,-4.0561,-4.0171,-3.9409,-3.9313,-3.8921,-3.8121,-3.7575,-3.7126,-3.6753,-3.6265,-3.6012,-3.6012,-3.6012,-3.6012,-3.6012,-3.6012,-3.6012,-3.6012,-3.6012,-3.6012,-3.6012,-3.6012,-3.6012,-3.6012,-3.6012,-3.6012,-3.6012,-3.6012,-3.6012,-3.6031,-3.6012,-3.6187,-3.6695,-3.7106,-3.7497,-3.8043,-3.8804,-3.9312,-3.9352,-4.0034,-4.0563,-4.0625,-4.0882,-4.1099,-4.1103,-4.1105,-4.1107,-4.1107,-4.1107,-4.1107,-4.1108,-4.1129,-4.115,-4.115,-4.115,-4.115,-4.115,-4.1131,-4.1131,-4.1151,-4.1152,-4.1152,-4.1191,-4.1191,-4.1191,-4.1152,-4.1016,-4.0644,-4.0469,-3.996,-3.9101,-3.8241,-3.7381,-3.6873,-5.0371,-5.05,-5.0532,-5.0613,-5.0635,-5.0038,-4.9625,-4.9279,-4.8086,-4.7344,-4.684,-4.6285,-4.5959,-4.5886,-4.5899,-4.5937,-4.5997,-4.606,-4.6085,-4.6042,-4.5495,-4.5091,-4.4814,-4.4273,-4.3529,-4.2838,-4.2751,-4.2427,-4.187,-4.1817,-4.1805,-4.1807,-4.1807,-4.1809,-4.181,-4.1812,-4.1792,-4.1792,-4.1617,-4.1461,-4.142,-4.1207,-4.0795,-4.0229,-4.0151,-3.978,-3.8962,-3.8318,-3.775,-3.7301,-3.6695,-3.6246,-3.6012,-3.6012,-3.6012,-3.6012,-3.6012,-3.6012,-3.6012,-3.6012,-3.6012,-3.6012,-3.6012,-3.6012,-3.6012,-3.6012,-3.6012,-3.6031,-3.6207,-3.6383,-3.6344,-3.6363,-3.6734,-3.7516,-3.7828,-3.8258,-3.8882,-3.9644,-4.0151,-4.0229,-4.0659,-4.1109,-4.1109,-4.1112,-4.1116,-4.1116,-4.11,-4.1103,-4.1103,-4.1103,-4.1103,-4.1103,-4.1103,-4.1104,-4.1106,-4.1108,-4.1107,-4.1107,-4.1108,-4.1108,-4.111,-4.111,-4.111,-4.1151,-4.1152,-4.1152,-4.1152,-4.1133,-4.1133,-4.0996,-4.0487,-3.9723,-3.9079,-3.8257,-3.765,-5.0371,-5.0511,-5.0614,-5.0702,-5.0693,-5.0635,-5.0154,-4.9471,-4.926,-4.8383,-4.712,-4.6829,-4.6455,-4.5873,-4.5886,-4.5938,-4.5991,-4.6003,-4.6049,-4.609,-4.6022,-4.557,-4.4837,-4.4834,-4.44,-4.3608,-4.359,-4.3548,-4.3473,-4.3497,-4.358,-4.3533,-4.3435,-4.35,-4.3448,-4.3409,-4.3548,-4.3333,-4.2707,-4.2357,-4.2259,-4.1576,-4.1187,-4.1051,-4.1031,-4.0581,-3.9858,-3.9702,-3.8961,-3.7399,-3.7243,-3.6851,-3.6148,-3.6012,-3.601,-3.6012,-3.6012,-3.601,-3.601,-3.601,-3.601,-3.601,-3.6009,-3.601,-3.601,-3.6108,-3.6127,-3.6051,-3.6812,-3.7243,-3.7321,-3.7282,-3.7614,-3.8435,-3.9195,-3.9566,-3.9722,-4.0424,-4.0973,-4.0992,-4.1031,-4.1109,-4.1109,-4.1109,-4.1109,-4.1109,-4.1111,-4.1111,-4.1112,-4.1111,-4.1112,-4.1112,-4.1112,-4.1115,-4.1104,-4.1105,-4.1106,-4.1105,-4.1104,-4.1106,-4.1107,-4.1108,-4.1108,-4.1108,-4.1127,-4.1127,-4.1108,-4.1113,-4.1113,-4.0932,-4.0559,-3.9973,-3.9853,-3.9113,-3.8526,-5.0371,-5.0511,-5.0643,-5.0683,-5.0683,-5.0683,-5.0519,-5.0183,-4.9625,-4.9096,-4.8383,-4.739,-4.6741,-4.6494,-4.602,-4.5866,-4.5938,-4.598,-4.6008,-4.603,-4.6085,-4.593,-4.5686,-4.5659,-4.5219,-4.4483,-4.4401,-4.4147,-4.3679,-4.368,-4.3712,-4.3695,-4.3697,-4.37,-4.3702,-4.3704,-4.3706,-4.3673,-4.3363,-4.323,-4.3195,-4.2903,-4.2515,-4.1947,-4.1381,-4.0953,-4.0639,-4.0112,-3.9507,-3.8902,-3.7906,-3.7165,-3.6832,-3.63,-3.6004,-3.6004,-3.6019,-3.6015,-3.6015,-3.6015,-3.6015,-3.6015,-3.6015,-3.6038,-3.612,-3.6492,-3.6827,-3.6988,-3.7633,-3.8279,-3.8687,-3.8453,-3.8454,-3.9234,-3.9624,-4.0034,-4.0522,-4.0914,-4.1109,-4.1109,-4.1109,-4.1109,-4.1109,-4.1109,-4.1109,-4.1109,-4.1109,-4.1108,-4.1109,-4.1109,-4.1108,-4.1108,-4.1104,-4.1101,-4.1106,-4.1114,-4.1116,-4.1116,-4.1116,-4.1098,-4.1099,-4.1117,-4.1116,-4.1099,-4.1099,-4.1116,-4.1116,-4.1116,-4.1116,-4.1038,-4.0627,-4.0546,-4.0659,-3.9879,-3.9367,-5.0412,-5.0511,-5.0623,-5.0692,-5.0683,-5.0683,-5.0683,-5.0635,-5.0067,-4.9663,-4.9211,-4.818,-4.7419,-4.6887,-4.6375,-4.602,-4.5886,-4.5938,-4.5974,-4.5997,-4.6035,-4.6081,-4.6071,-4.6075,-4.5793,-4.5287,-4.5218,-4.4904,-4.4479,-4.4449,-4.4484,-4.4512,-4.4515,-4.4521,-4.4526,-4.4509,-4.4495,-4.4482,-4.4229,-4.4077,-4.4044,-4.3812,-4.3441,-4.2795,-4.1977,-4.1376,-4.1108,-4.0519,-4.0049,-3.9698,-3.8679,-3.786,-3.7273,-3.6467,-3.6015,-3.6013,-3.6009,-3.6005,-3.6005,-3.6005,-3.6122,-3.6376,-3.6395,-3.6456,-3.6793,-3.7361,-3.7638,-3.7856,-3.8465,-3.9265,-3.9597,-3.9541,-3.9642,-4.0112,-4.021,-4.0444,-4.0992,-4.109,-4.1109,-4.1109,-4.1109,-4.1109,-4.1108,-4.1106,-4.1104,-4.1104,-4.1101,-4.1099,-4.1099,-4.1099,-4.1099,-4.1099,-4.1111,-4.1109,-4.1109,-4.1115,-4.1099,-4.1097,-4.1101,-4.1104,-4.1106,-4.1103,-4.1101,-4.1104,-4.1104,-4.1101,-4.1099,-4.1099,-4.1099,-4.1099,-4.1019,-4.0879,-4.0816,-4.0634,-4.0086,-5.0435,-5.05,-5.0582,-5.0633,-5.0673,-5.0683,-5.0683,-5.0673,-5.0644,-5.0183,-4.9567,-4.9298,-4.8383,-4.7255,-4.6887,-4.6494,-4.6,-4.5924,-4.5932,-4.5986,-4.5997,-4.5994,-4.6016,-4.6061,-4.6076,-4.5964,-4.6026,-4.6035,-4.5903,-4.5853,-4.5893,-4.6075,-4.5942,-4.5878,-4.6125,-4.5944,-4.6047,-4.5872,-4.5267,-4.4916,-4.4819,-4.4278,-4.3868,-4.3634,-4.2912,-4.2104,-4.1223,-4.108,-4.0662,-3.9997,-3.9737,-3.8948,-3.7468,-3.6627,-3.612,-3.6218,-3.6138,-3.6101,-3.6118,-3.6213,-3.6599,-3.7047,-3.7208,-3.7496,-3.8066,-3.8378,-3.8517,-3.8638,-3.9265,-3.9869,-4.0008,-4.0463,-4.0883,-4.1067,-4.0952,-4.0992,-4.107,-4.1109,-4.1108,-4.1108,-4.1106,-4.1108,-4.1106,-4.1099,-4.1113,-4.1111,-4.1105,-4.1098,-4.11,-4.11,-4.1115,-4.1115,-4.1093,-4.1069,-4.1091,-4.1113,-4.1111,-4.1111,-4.1098,-4.1103,-4.1085,-4.1081,-4.1076,-4.1079,-4.1069,-4.1083,-4.1083,-4.1083,-4.1064,-4.1067,-4.1086,-4.1086,-4.0942,-4.0761,-4.0571,-5.0412,-5.0446,-5.0562,-5.0603,-5.0633,-5.0673,-5.0683,-5.0683,-5.0683,-5.0558,-5.0212,-4.9663,-4.9096,-4.8422,-4.7477,-4.678,-4.6524,-4.6097,-4.5866,-4.5925,-4.5911,-4.5929,-4.5947,-4.6008,-4.603,-4.6037,-4.6081,-4.611,-4.6114,-4.6108,-4.6126,-4.6134,-4.6138,-4.6142,-4.6138,-4.6119,-4.6146,-4.6154,-4.594,-4.5793,-4.5794,-4.5543,-4.5133,-4.4565,-4.4253,-4.348,-4.2082,-4.1415,-4.0983,-4.0669,-4.0121,-3.928,-3.828,-3.7859,-3.7734,-3.7731,-3.7692,-3.7641,-3.766,-3.7641,-3.7702,-3.7972,-3.803,-3.8159,-3.8528,-3.9076,-3.9377,-3.947,-4.0177,-4.0684,-4.0762,-4.0923,-4.1085,-4.1117,-4.1104,-4.1108,-4.1106,-4.1103,-4.1099,-4.1117,-4.1111,-4.1107,-4.1105,-4.11,-4.11,-4.1098,-4.1093,-4.1091,-4.1091,-4.1108,-4.1113,-4.1113,-4.1081,-4.1045,-4.1045,-4.1058,-4.1052,-4.1058,-4.107,-4.1075,-4.1078,-4.1053,-4.1048,-4.1042,-4.1049,-4.1042,-4.1039,-4.1039,-4.1026,-4.102,-4.1016,-4.1036,-4.1013,-4.0899,-4.0698,-5.039,-5.0412,-5.0489,-5.0542,-5.0603,-5.0643,-5.0673,-5.0683,-5.0683,-5.0683,-5.0577,-5.0135,-4.9683,-4.9173,-4.794,-4.7188,-4.6848,-4.6116,-4.5773,-4.5845,-4.5887,-4.5899,-4.5911,-4.5949,-4.5966,-4.5969,-4.6016,-4.607,-4.6051,-4.6076,-4.6095,-4.6099,-4.6123,-4.6108,-4.6113,-4.6117,-4.6134,-4.6154,-4.6138,-4.6169,-4.6167,-4.6154,-4.5898,-4.5388,-4.504,-4.4338,-4.3286,-4.2172,-4.1398,-4.0998,-4.0232,-3.9502,-3.8973,-3.8646,-3.8462,-3.8455,-3.8422,-3.8369,-3.8385,-3.8314,-3.8579,-3.8774,-3.8871,-3.9077,-3.9409,-4.002,-4.0227,-4.0357,-4.073,-4.1081,-4.1061,-4.1073,-4.1064,-4.1052,-4.1087,-4.1097,-4.1117,-4.1111,-4.1107,-4.1105,-4.11,-4.1113,-4.1113,-4.1064,-4.1061,-4.1059,-4.105,-4.1061,-4.1045,-4.1042,-4.1064,-4.1061,-4.1046,-4.1013,-4.099,-4.0999,-4.1,-4.1015,-4.1036,-4.1042,-4.1026,-4.102,-4.1013,-4.1009,-4.0999,-4.1018,-4.1015,-4.1011,-4.0991,-4.0996,-4.0992,-4.1003,-4.0991,-4.0988,-4.0859,-5.0337,-5.039,-5.0382,-5.0478,-5.0582,-5.0603,-5.0633,-5.0683,-5.0683,-5.0683,-5.0673,-5.0596,-5.0231,-4.9433,-4.8596,-4.7787,-4.6947,-4.624,-4.5811,-4.5777,-4.5812,-4.588,-4.5893,-4.5899,-4.5905,-4.5923,-4.5966,-4.5997,-4.5978,-4.6005,-4.6032,-4.609,-4.609,-4.6105,-4.608,-4.6108,-4.6084,-4.6093,-4.6089,-4.6089,-4.6098,-4.6093,-4.6078,-4.5981,-4.5339,-4.4833,-4.4385,-4.3,-4.1809,-4.1036,-4.0255,-3.9867,-3.963,-3.8984,-3.8727,-3.8786,-3.8591,-3.8681,-3.8607,-3.8813,-3.9027,-3.9649,-3.9766,-4.0073,-4.0634,-4.0731,-4.0813,-4.084,-4.0961,-4.1,-4.0988,-4.1009,-4.1007,-4.1013,-4.1061,-4.1096,-4.1115,-4.1113,-4.1089,-4.1089,-4.1091,-4.1108,-4.1081,-4.1022,-4.101,-4.1003,-4.1006,-4.1015,-4.1011,-4.0995,-4.1,-4.1,-4.1007,-4.1003,-4.0984,-4.0968,-4.0952,-4.0956,-4.0976,-4.0984,-4.1011,-4.0988,-4.0972,-4.0972,-4.0968,-4.0968,-4.0968,-4.096,-4.096,-4.0975,-4.098,-4.0988,-4.0968,-4.096,-4.0956,-5.0302,-5.0344,-5.039,-5.0457,-5.0521,-5.0582,-5.0633,-5.0683,-5.0683,-5.0683,-5.0683,-5.0683,-5.0577,-5.0269,-4.9413,-4.8596,-4.7701,-4.6928,-4.6221,-4.5783,-4.5723,-4.5798,-4.5827,-4.5834,-4.5861,-4.5899,-4.5911,-4.5923,-4.5923,-4.5935,-4.5953,-4.6039,-4.6019,-4.6016,-4.6037,-4.6026,-4.6026,-4.6017,-4.6021,-4.6021,-4.6017,-4.6022,-4.6022,-4.5983,-4.577,-4.5342,-4.4657,-4.3063,-4.1776,-4.1003,-4.0749,-4.0576,-4.0513,-4.0266,-4.0078,-4.0078,-4.0121,-4.0111,-4.0111,-4.0092,-4.0267,-4.0441,-4.0427,-4.0645,-4.0854,-4.0917,-4.0927,-4.0941,-4.0924,-4.0913,-4.0917,-4.0957,-4.0988,-4.0999,-4.1058,-4.1086,-4.1086,-4.1056,-4.1042,-4.1022,-4.1042,-4.1032,-4.1029,-4.1002,-4.0991,-4.0991,-4.098,-4.0992,-4.0988,-4.0984,-4.0975,-4.0984,-4.0988,-4.098,-4.0971,-4.0935,-4.0926,-4.0902,-4.0915,-4.0948,-4.0975,-4.098,-4.0963,-4.093,-4.0926,-4.0926,-4.0926,-4.0921,-4.0926,-4.0926,-4.0926,-4.0926,-4.0926,-4.0921,-4.0921,-5.0302,-5.0302,-5.0337,-5.0401,-5.0468,-5.054,-5.0603,-5.0653,-5.0702,-5.0683,-5.0683,-5.0683,-5.0683,-5.0587,-4.9779,-4.8933,-4.8067,-4.7258,-4.6448,-4.5772,-4.5662,-4.57,-4.5742,-4.5776,-4.5778,-4.5821,-4.5854,-4.5848,-4.5854,-4.5893,-4.5917,-4.5955,-4.5955,-4.5947,-4.5958,-4.5947,-4.596,-4.5958,-4.5947,-4.5947,-4.5964,-4.5964,-4.5944,-4.5944,-4.5944,-4.5551,-4.4616,-4.3645,-4.261,-4.163,-4.1087,-4.0858,-4.0853,-4.0851,-4.0815,-4.0815,-4.0798,-4.0734,-4.0773,-4.0748,-4.0754,-4.0734,-4.0748,-4.0784,-4.0846,-4.0851,-4.0862,-4.0854,-4.0854,-4.0859,-4.0864,-4.0921,-4.0954,-4.0952,-4.0991,-4.1023,-4.1036,-4.102,-4.099,-4.0983,-4.0991,-4.0996,-4.0996,-4.0988,-4.0984,-4.0984,-4.0952,-4.0967,-4.0963,-4.0958,-4.0954,-4.0954,-4.0926,-4.0907,-4.0903,-4.0888,-4.0869,-4.0864,-4.0859,-4.0874,-4.0907,-4.0941,-4.0903,-4.0883,-4.0859,-4.0859,-4.0859,-4.0859,-4.0854,-4.0854,-4.0854,-4.0859,-4.0859,-4.0864,-4.0883,-5.0302,-5.0302,-5.0302,-5.0337,-5.0412,-5.0448,-5.0551,-5.0603,-5.0653,-5.0683,-5.0683,-5.0683,-5.0683,-5.0654,-4.999,-4.9106,-4.824,-4.7509,-4.6509,-4.5883,-4.5612,-4.5646,-4.5684,-4.57,-4.5715,-4.5719,-4.5764,-4.5786,-4.5807,-4.5854,-4.5867,-4.5873,-4.588,-4.5905,-4.5892,-4.5886,-4.5899,-4.5893,-4.588,-4.5854,-4.5854,-4.5854,-4.5854,-4.5854,-4.588,-4.5551,-4.4937,-4.4387,-4.3755,-4.2406,-4.1433,-4.1034,-4.0951,-4.0855,-4.0687,-4.0687,-4.0707,-4.0687,-4.0687,-4.0687,-4.0687,-4.0687,-4.0687,-4.0713,-4.0757,-4.0776,-4.0769,-4.0754,-4.0771,-4.0776,-4.0787,-4.0842,-4.0883,-4.0888,-4.0903,-4.0926,-4.0971,-4.0984,-4.0988,-4.0968,-4.0964,-4.0984,-4.0984,-4.0995,-4.0978,-4.0965,-4.0931,-4.0903,-4.0898,-4.0888,-4.0883,-4.0898,-4.0858,-4.0818,-4.0818,-4.0818,-4.0818,-4.0823,-4.0787,-4.0793,-4.0823,-4.0848,-4.0823,-4.0818,-4.0828,-4.0828,-4.0823,-4.0818,-4.0793,-4.0798,-4.0828,-4.0823,-4.0812,-4.0828,-4.0833,-5.0302,-5.0302,-5.0302,-5.0337,-5.0401,-5.0424,-5.0478,-5.0593,-5.0613,-5.0643,-5.0683,-5.0683,-5.0683,-5.0683,-5.0423,-4.9952,-4.899,-4.8086,-4.7067,-4.571,-4.5594,-4.5603,-4.5637,-4.5682,-4.5695,-4.57,-4.5715,-4.5712,-4.5727,-4.5742,-4.5752,-4.5801,-4.5815,-4.5854,-4.5873,-4.5828,-4.5827,-4.5821,-4.5778,-4.5749,-4.5737,-4.5737,-4.5737,-4.573,-4.5749,-4.5657,-4.5372,-4.4789,-4.4268,-4.3646,-4.2584,-4.1747,-4.1503,-4.1001,-4.0686,-4.0628,-4.0609,-4.0615,-4.0615,-4.0609,-4.0615,-4.0628,-4.0609,-4.0622,-4.0622,-4.0648,-4.0648,-4.0642,-4.0701,-4.0732,-4.0718,-4.0781,-4.0798,-4.0809,-4.0807,-4.0823,-4.0844,-4.0898,-4.0903,-4.0912,-4.0927,-4.0917,-4.0917,-4.0922,-4.0927,-4.0922,-4.0888,-4.0848,-4.0823,-4.0823,-4.0812,-4.0826,-4.0784,-4.0742,-4.0742,-4.0742,-4.0742,-4.0742,-4.073,-4.0718,-4.0756,-4.0767,-4.0748,-4.0784,-4.0812,-4.0801,-4.0754,-4.0765,-4.0759,-4.0776,-4.0796,-4.0765,-4.0754,-4.0771,-4.0765,-5.0302,-5.0302,-5.0302,-5.0314,-5.0348,-5.039,-5.0446,-5.05,-5.0582,-5.0613,-5.0673,-5.0673,-5.0683,-5.0683,-5.0654,-5.0212,-4.924,-4.8086,-4.6836,-4.5806,-4.5594,-4.5594,-4.5594,-4.564,-4.5646,-4.5651,-4.5687,-4.5695,-4.5676,-4.57,-4.5719,-4.5749,-4.5749,-4.5764,-4.5807,-4.5771,-4.5757,-4.5749,-4.5712,-4.5688,-4.5688,-4.5688,-4.5688,-4.5692,-4.5676,-4.5643,-4.5566,-4.5169,-4.4921,-4.4547,-4.3662,-4.2582,-4.1932,-4.1405,-4.0985,-4.0573,-4.0516,-4.0516,-4.0496,-4.0496,-4.0508,-4.0516,-4.0496,-4.0512,-4.0508,-4.0523,-4.0571,-4.0605,-4.0633,-4.0648,-4.0649,-4.0662,-4.0694,-4.0694,-4.0713,-4.0706,-4.0712,-4.0784,-4.0853,-4.0849,-4.0839,-4.0839,-4.0858,-4.0853,-4.0848,-4.0848,-4.0848,-4.0807,-4.0801,-4.0796,-4.0748,-4.0736,-4.0706,-4.0694,-4.0687,-4.0687,-4.0675,-4.0668,-4.0655,-4.0649,-4.0675,-4.0675,-4.0687,-4.0706,-4.0718,-4.07,-4.0675,-4.07,-4.0712,-4.0694,-4.0687,-4.07,-4.07,-4.0687,-4.0681,-5.0302,-5.0302,-5.0302,-5.0302,-5.0302,-5.0367,-5.0401,-5.0424,-5.0511,-5.0553,-5.0603,-5.0673,-5.0673,-5.0683,-5.0683,-5.0144,-4.9009,-4.7952,-4.6759,-4.571,-4.5594,-4.5594,-4.5594,-4.5603,-4.5594,-4.5594,-4.5648,-4.5665,-4.5662,-4.5687,-4.5676,-4.5684,-4.5703,-4.5692,-4.5711,-4.5676,-4.5676,-4.5668,-4.5632,-4.5624,-4.5624,-4.5624,-4.5624,-4.5635,-4.5593,-4.5549,-4.554,-4.5389,-4.5362,-4.5352,-4.4739,-4.3625,-4.2567,-4.1897,-4.1508,-4.0722,-4.072,-4.0633,-4.046,-4.0413,-4.0424,-4.0407,-4.0415,-4.0413,-4.0417,-4.0449,-4.05,-4.0531,-4.0561,-4.0557,-4.0559,-4.0559,-4.0559,-4.0566,-4.0574,-4.0581,-4.0602,-4.0694,-4.0748,-4.079,-4.079,-4.0796,-4.0782,-4.0801,-4.0782,-4.0771,-4.0771,-4.0759,-4.0748,-4.0736,-4.07,-4.0681,-4.0655,-4.0649,-4.0642,-4.0642,-4.0629,-4.0628,-4.0614,-4.06,-4.0593,-4.0586,-4.0607,-4.0615,-4.0615,-4.0609,-4.0609,-4.0636,-4.0629,-4.0595,-4.0602,-4.0642,-4.0629,-4.0595,-4.0595,-5.0302,-5.0302,-5.0302,-5.0302,-5.0302,-5.0314,-5.0367,-5.0401,-5.0424,-5.0489,-5.0593,-5.0594,-5.0643,-5.0673,-5.0683,-4.9837,-4.8702,-4.7913,-4.7048,-4.5874,-4.5643,-4.5605,-4.5577,-4.5577,-4.5559,-4.555,-4.5577,-4.5594,-4.5603,-4.5612,-4.5593,-4.5612,-4.5612,-4.5612,-4.5603,-4.5566,-4.553,-4.553,-4.5512,-4.5494,-4.5485,-4.5485,-4.5485,-4.5485,-4.5476,-4.5457,-4.5448,-4.5438,-4.541,-4.54,-4.5265,-4.4643,-4.3771,-4.3072,-4.2372,-4.1663,-4.1356,-4.1079,-4.0638,-4.0417,-4.0407,-4.0407,-4.0398,-4.0398,-4.0396,-4.0413,-4.043,-4.0438,-4.0447,-4.0447,-4.0438,-4.0468,-4.0438,-4.0454,-4.0512,-4.0569,-4.0603,-4.0626,-4.0649,-4.0681,-4.07,-4.0724,-4.073,-4.073,-4.0718,-4.0706,-4.0694,-4.0681,-4.0668,-4.0649,-4.0622,-4.0609,-4.0602,-4.0602,-4.0602,-4.0595,-4.0607,-4.0579,-4.0557,-4.0527,-4.0531,-4.0511,-4.0519,-4.0527,-4.0564,-4.0586,-4.0566,-4.0566,-4.0579,-4.0557,-4.0579,-4.0581,-4.0552,-4.0542,-4.0571,-5.0302,-5.0302,-5.0302,-5.0302,-5.0302,-5.0302,-5.0314,-5.0367,-5.039,-5.0435,-5.0489,-5.0521,-5.0573,-5.0633,-5.0643,-4.9904,-4.8962,-4.8221,-4.7404,-4.6347,-4.58,-4.5541,-4.5523,-4.5523,-4.5466,-4.5457,-4.5485,-4.5504,-4.5504,-4.5495,-4.5504,-4.5495,-4.5495,-4.5495,-4.5495,-4.5476,-4.5438,-4.5429,-4.5419,-4.54,-4.54,-4.54,-4.54,-4.5419,-4.5419,-4.5409,-4.54,-4.5351,-4.5341,-4.536,-4.5359,-4.5109,-4.4717,-4.4268,-4.3551,-4.2527,-4.1915,-4.1474,-4.0949,-4.0662,-4.0355,-4.0355,-4.0355,-4.0355,-4.0345,-4.0363,-4.0362,-4.0398,-4.0407,-4.0407,-4.0415,-4.0413,-4.0402,-4.0411,-4.0463,-4.0487,-4.0495,-4.0492,-4.0527,-4.0566,-4.0609,-4.0662,-4.0662,-4.0662,-4.0649,-4.0629,-4.0628,-4.0595,-4.0574,-4.0579,-4.0564,-4.0564,-4.0557,-4.0542,-4.0542,-4.0534,-4.0554,-4.0531,-4.0516,-4.0484,-4.046,-4.0447,-4.0447,-4.046,-4.05,-4.0523,-4.05,-4.0476,-4.0492,-4.0508,-4.05,-4.05,-4.0473,-4.0481,-4.0523,-5.0302,-5.0302,-5.0302,-5.0302,-5.0302,-5.0302,-5.0302,-5.0314,-5.0348,-5.039,-5.0393,-5.0457,-5.0511,-5.0572,-5.0477,-5.0114,-4.9327,-4.8452,-4.7569,-4.6695,-4.5869,-4.5457,-4.5419,-4.541,-4.5429,-4.5419,-4.541,-4.5419,-4.5419,-4.5419,-4.5419,-4.5419,-4.541,-4.54,-4.539,-4.539,-4.5371,-4.5371,-4.5371,-4.5371,-4.5371,-4.5371,-4.5371,-4.539,-4.537,-4.5388,-4.5369,-4.5338,-4.5298,-4.5298,-4.5307,-4.5277,-4.5277,-4.5277,-4.4666,-4.3443,-4.2488,-4.1972,-4.1371,-4.0998,-4.0587,-4.0339,-4.0329,-4.031,-4.031,-4.0328,-4.0317,-4.0372,-4.0372,-4.0372,-4.0363,-4.0372,-4.0381,-4.0362,-4.037,-4.0379,-4.0396,-4.0413,-4.0438,-4.0484,-4.0519,-4.0564,-4.0586,-4.0559,-4.0545,-4.0549,-4.0527,-4.0512,-4.0496,-4.0516,-4.0519,-4.0508,-4.05,-4.0487,-4.0479,-4.0479,-4.0471,-4.0455,-4.0447,-4.0411,-4.0405,-4.0379,-4.0388,-4.0396,-4.0398,-4.0415,-4.0389,-4.0407,-4.043,-4.0447,-4.0424,-4.0424,-4.0438,-4.0447,-4.0455,-5.0302,-5.0302,-5.0302,-5.0302,-5.0302,-5.0302,-5.0302,-5.0302,-5.0314,-5.0356,-5.039,-5.0412,-5.0438,-5.05,-5.0521,-5.0023,-4.9236,-4.8383,-4.7616,-4.6829,-4.5908,-4.5429,-4.54,-4.541,-4.539,-4.5399,-4.5399,-4.54,-4.54,-4.539,-4.54,-4.5399,-4.5389,-4.5379,-4.5329,-4.5329,-4.5328,-4.5328,-4.5328,-4.5309,-4.5309,-4.5309,-4.5309,-4.5309,-4.5328,-4.5317,-4.5328,-4.5307,-4.5297,-4.5277,-4.5277,-4.5277,-4.5277,-4.5277,-4.5269,-4.4819,-4.4131,-4.308,-4.1953,-4.138,-4.0998,-4.0559,-4.0358,-4.032,-4.031,-4.031,-4.031,-4.032,-4.031,-4.031,-4.0338,-4.0329,-4.031,-4.0328,-4.0327,-4.0326,-4.0335,-4.0363,-4.037,-4.0379,-4.0447,-4.0468,-4.05,-4.0465,-4.0422,-4.0433,-4.0436,-4.0427,-4.0447,-4.0474,-4.0474,-4.0463,-4.0463,-4.0438,-4.0413,-4.0405,-4.0407,-4.0389,-4.0381,-4.0362,-4.0363,-4.0345,-4.0346,-4.0346,-4.0347,-4.0337,-4.0354,-4.0381,-4.0398,-4.0389,-4.0372,-4.0381,-4.0407,-4.0407,-4.0389,-5.0267,-5.0302,-5.0302,-5.0302,-5.0302,-5.0302,-5.0302,-5.0302,-5.0302,-5.0314,-5.0337,-5.0337,-5.039,-5.0446,-5.0478,-5.0308,-4.9695,-4.8583,-4.7844,-4.7085,-4.6127,-4.539,-4.5341,-4.536,-4.5359,-4.5348,-4.5338,-4.5348,-4.533,-4.5341,-4.5339,-4.5348,-4.5338,-4.5328,-4.5288,-4.5277,-4.5297,-4.5307,-4.5277,-4.5277,-4.5277,-4.5277,-4.5277,-4.5277,-4.5277,-4.5277,-4.5277,-4.5277,-4.5277,-4.5277,-4.5277,-4.5277,-4.5277,-4.5277,-4.5277,-4.5269,-4.4972,-4.415,-4.308,-4.2106,-4.1437,-4.096,-4.0616,-4.032,-4.032,-4.032,-4.032,-4.032,-4.032,-4.032,-4.032,-4.032,-4.032,-4.031,-4.031,-4.0319,-4.0309,-4.0309,-4.0318,-4.0346,-4.0355,-4.0389,-4.0413,-4.0402,-4.0375,-4.0394,-4.0405,-4.0405,-4.0405,-4.0432,-4.0424,-4.0424,-4.0396,-4.0388,-4.037,-4.0334,-4.0345,-4.0346,-4.0356,-4.0328,-4.0328,-4.031,-4.032,-4.032,-4.032,-4.0319,-4.0336,-4.0355,-4.0355,-4.0346,-4.0346,-4.0355,-4.0364,-4.0355,-4.0337,-5.0188,-5.0278,-5.029,-5.0302,-5.0302,-5.0302,-5.0302,-5.0302,-5.0302,-5.0302,-5.0302,-5.0302,-5.0325,-5.0359,-5.0424,-5.0388,-5.0303,-4.8713,-4.808,-4.735,-4.6353,-4.5453,-4.5328,-4.5307,-4.5307,-4.5277,-4.5307,-4.5307,-4.5307,-4.5288,-4.5288,-4.5277,-4.5307,-4.5307,-4.5297,-4.5277,-4.5277,-4.5277,-4.5277,-4.5277,-4.5277,-4.5277,-4.5277,-4.5277,-4.5277,-4.5277,-4.5277,-4.5277,-4.5277,-4.5277,-4.5277,-4.5277,-4.5277,-4.5277,-4.5277,-4.5277,-4.5163,-4.4953,-4.4036,-4.3138,-4.2106,-4.1399,-4.0845,-4.032,-4.032,-4.032,-4.032,-4.032,-4.032,-4.032,-4.032,-4.032,-4.032,-4.032,-4.031,-4.032,-4.032,-4.032,-4.031,-4.0329,-4.0329,-4.032,-4.0346,-4.0354,-4.0363,-4.0372,-4.0372,-4.0381,-4.0381,-4.0381,-4.0391,-4.0382,-4.0354,-4.0345,-4.0336,-4.0318,-4.031,-4.0291,-4.0301,-4.0301,-4.0301,-4.031,-4.031,-4.032,-4.0291,-4.031,-4.0319,-4.032,-4.032,-4.032,-4.0329,-4.032,-4.031,-4.032,-4.0301,-5.0076,-5.02,-5.0278,-5.029,-5.0302,-5.0302,-5.0302,-5.0302,-5.0302,-5.0302,-5.0302,-5.0302,-5.0302,-5.0314,-5.0325,-5.0325,-5.0237,-4.8575,-4.7982,-4.7275,-4.6224,-4.5441,-4.5277,-4.5277,-4.5277,-4.5277,-4.5277,-4.5277,-4.5277,-4.5277,-4.5277,-4.5277,-4.5277,-4.5277,-4.5277,-4.5277,-4.5277,-4.5277,-4.5277,-4.5277,-4.5277,-4.5277,-4.5277,-4.5277,-4.5277,-4.5277,-4.5277,-4.5277,-4.5277,-4.5277,-4.5277,-4.5277,-4.5277,-4.5277,-4.5277,-4.5277,-4.5277,-4.5163,-4.4723,-4.4017,-4.3004,-4.182,-4.0922,-4.0416,-4.032,-4.032,-4.032,-4.032,-4.032,-4.032,-4.032,-4.032,-4.032,-4.032,-4.032,-4.032,-4.032,-4.032,-4.031,-4.032,-4.032,-4.032,-4.032,-4.0319,-4.0337,-4.0337,-4.0337,-4.0337,-4.0328,-4.0347,-4.0338,-4.0329,-4.0301,-4.0291,-4.0291,-4.0272,-4.0253,-4.0244,-4.0244,-4.0253,-4.0263,-4.0282,-4.0263,-4.0273,-4.0263,-4.0282,-4.0291,-4.0273,-4.0263,-4.0291,-4.0301,-4.0282,-4.0273,-4.0244,-4.0253,-4.9959,-5.0044,-5.0114,-5.0231,-5.0302,-5.0302,-5.0302,-5.0302,-5.0302,-5.0302,-5.0302,-5.0302,-5.0302,-5.0302,-5.0302,-5.0302,-5.0054,-4.8552,-4.796,-4.7245,-4.6271,-4.543,-4.5277,-4.5277,-4.5277,-4.5277,-4.5277,-4.5277,-4.5277,-4.5277,-4.5277,-4.5277,-4.5277,-4.5277,-4.5277,-4.5277,-4.5277,-4.5277,-4.5277,-4.5277,-4.5277,-4.5277,-4.5277,-4.5277,-4.5277,-4.5277,-4.5277,-4.5277,-4.5277,-4.5277,-4.5277,-4.5277,-4.5277,-4.5277,-4.5277,-4.5277,-4.5277,-4.5277,-4.5144,-4.4427,-4.3242,-4.1915,-4.1189,-4.0845,-4.0454,-4.032,-4.032,-4.032,-4.032,-4.032,-4.032,-4.032,-4.032,-4.032,-4.032,-4.032,-4.032,-4.032,-4.032,-4.032,-4.032,-4.032,-4.032,-4.031,-4.031,-4.031,-4.032,-4.032,-4.0301,-4.0291,-4.0291,-4.0282,-4.0253,-4.0244,-4.0244,-4.0215,-4.0195,-4.0195,-4.0186,-4.0186,-4.0196,-4.0166,-4.0176,-4.0186,-4.0195,-4.0195,-4.0195,-4.0166,-4.0176,-4.0225,-4.0234,-4.0225,-4.0196,-4.0186,-4.0186,-4.9871,-4.9925,-5.0005,-5.0133,-5.0248,-5.0278,-5.029,-5.0302,-5.0302,-5.0302,-5.0302,-5.0302,-5.0302,-5.0302,-5.0302,-5.0073,-4.9595,-4.8506,-4.7799,-4.6959,-4.6042,-4.5392,-4.5277,-4.5277,-4.5277,-4.5277,-4.5277,-4.5277,-4.5277,-4.5277,-4.5277,-4.5277,-4.5277,-4.5277,-4.5277,-4.5277,-4.5277,-4.5277,-4.5277,-4.5277,-4.5277,-4.5277,-4.5277,-4.5277,-4.5277,-4.5277,-4.5277,-4.5277,-4.5277,-4.5277,-4.5277,-4.5277,-4.5277,-4.5277,-4.5277,-4.5277,-4.5277,-4.5277,-4.5086,-4.4437,-4.3491,-4.2603,-4.1676,-4.1246,-4.0807,-4.0454,-4.032,-4.032,-4.032,-4.032,-4.032,-4.032,-4.032,-4.032,-4.032,-4.032,-4.032,-4.032,-4.032,-4.032,-4.0301,-4.0301,-4.0301,-4.0301,-4.0301,-4.0301,-4.0301,-4.0301,-4.0301,-4.0291,-4.0273,-4.0234,-4.0215,-4.0186,-4.0166,-4.0147,-4.0127,-4.0137,-4.0137,-4.0127,-4.0127,-4.0096,-4.0096,-4.0127,-4.0137,-4.0106,-4.0117,-4.0127,-4.0147,-4.0166,-4.0157,-4.0137,-4.0147,-4.0137,-4.0127,-4.9792,-4.9879,-4.9912,-5.0012,-5.0175,-5.02,-5.0243,-5.029,-5.0302,-5.0302,-5.0302,-5.0302,-5.0302,-5.0302,-5.0302,-4.9939,-4.9194,-4.8277,-4.7425,-4.6596,-4.5812,-4.5354,-4.5277,-4.5277,-4.5277,-4.5277,-4.5277,-4.5277,-4.5277,-4.5277,-4.5277,-4.5277,-4.5277,-4.5277,-4.5277,-4.5277,-4.5277,-4.5277,-4.5277,-4.5277,-4.5277,-4.5277,-4.5277,-4.5277,-4.5277,-4.5277,-4.5277,-4.5277,-4.5277,-4.5277,-4.5277,-4.5277,-4.5277,-4.5277,-4.5277,-4.5277,-4.5277,-4.5277,-4.522,-4.4465,-4.3968,-4.3529,-4.2565,-4.1781,-4.1361,-4.0883,-4.0358,-4.0377,-4.032,-4.032,-4.032,-4.032,-4.032,-4.032,-4.032,-4.032,-4.032,-4.032,-4.032,-4.032,-4.0301,-4.0282,-4.0282,-4.0282,-4.0291,-4.0291,-4.0282,-4.0272,-4.0263,-4.0244,-4.0215,-4.0186,-4.0137,-4.0087,-4.0067,-4.0067,-4.0067,-4.0077,-4.0057,-4.0015,-4.0015,-3.9986,-4.0015,-4.0057,-4.0026,-3.9984,-4.0026,-4.0077,-4.0046,-4.0015,-4.0046,-4.0046,-4.0067,-4.0057,-4.0015,-4.9663,-4.9707,-4.9788,-4.9898,-4.9999,-5.0089,-5.0182,-5.0243,-5.0278,-5.0302,-5.0302,-5.0302,-5.0302,-5.0302,-5.0225,-4.9843,-4.9003,-4.82,-4.733,-4.6443,-4.566,-4.5392,-4.5277,-4.5277,-4.5277,-4.5277,-4.5277,-4.5277,-4.5277,-4.5277,-4.5277,-4.5277,-4.5277,-4.5277,-4.5277,-4.5277,-4.5277,-4.5277,-4.5277,-4.5277,-4.5277,-4.5277,-4.5277,-4.5277,-4.5277,-4.5277,-4.5277,-4.5277,-4.5277,-4.5277,-4.5277,-4.5277,-4.5277,-4.5277,-4.5277,-4.5277,-4.5277,-4.5277,-4.5277,-4.4914,-4.4571,-4.4025,-4.3452,-4.2526,-4.1705,-4.1342,-4.0883,-4.053,-4.0549,-4.0511,-4.032,-4.032,-4.0339,-4.032,-4.032,-4.032,-4.032,-4.032,-4.032,-4.032,-4.0301,-4.0253,-4.0225,-4.0234,-4.0225,-4.0205,-4.0186,-4.0186,-4.0166,-4.0157,-4.0137,-4.0096,-4.0065,-4.0005,-3.9954,-3.9933,-3.9911,-3.9889,-3.9856,-3.9823,-3.9815,-3.9859,-3.9837,-3.9837,-3.9845,-3.9845,-3.9837,-3.9848,-3.9826,-3.9815,-3.9845,-3.9867,-3.9878,-3.9856,-3.9811,-4.9529,-4.9604,-4.9692,-4.9759,-4.9843,-5.0005,-5.0089,-5.0163,-5.0224,-5.0267,-5.0267,-5.029,-5.0302,-5.0302,-5.0225,-4.9576,-4.8697,-4.8105,-4.7016,-4.6194,-4.5583,-4.5335,-4.5277,-4.5277,-4.5277,-4.5277,-4.5297,-4.5277,-4.5277,-4.5277,-4.5277,-4.5277,-4.5277,-4.5277,-4.5277,-4.5277,-4.5277,-4.5277,-4.5277,-4.5277,-4.5277,-4.5277,-4.5277,-4.5277,-4.5277,-4.5277,-4.5277,-4.5277,-4.5277,-4.5277,-4.5277,-4.5277,-4.5277,-4.5277,-4.5277,-4.5277,-4.5277,-4.5277,-4.5277,-4.5277,-4.4914,-4.4541,-4.4236,-4.351,-4.2507,-4.2202,-4.18,-4.1437,-4.1132,-4.1122,-4.1122,-4.1046,-4.1027,-4.1046,-4.1055,-4.1094,-4.0769,-4.0807,-4.0559,-4.0521,-4.0253,-4.0215,-4.0176,-4.0166,-4.0147,-4.0127,-4.0077,-4.0067,-4.0067,-4.0046,-4.0026,-3.9994,-3.9951,-3.9867,-3.9804,-3.9781,-3.9747,-3.972,-3.9696,-3.9684,-3.9677,-3.9724,-3.9658,-3.9623,-3.9647,-3.9647,-3.9623,-3.9623,-3.963,-3.9606,-3.9613,-3.9649,-3.9696,-3.9696,-3.9684,-4.9343,-4.9518,-4.9551,-4.9577,-4.9665,-4.9841,-5.0031,-5.0108,-5.0163,-5.0188,-5.0207,-5.0267,-5.0267,-5.0259,-5.0252,-4.9324,-4.8071,-4.7747,-4.6708,-4.5772,-4.5303,-4.5256,-4.5256,-4.5256,-4.5246,-4.5275,-4.5275,-4.5254,-4.5267,-4.5246,-4.5246,-4.5256,-4.5246,-4.5256,-4.5256,-4.5267,-4.5286,-4.5297,-4.5277,-4.5277,-4.5277,-4.5277,-4.5277,-4.5277,-4.5277,-4.5277,-4.5277,-4.5277,-4.5277,-4.5277,-4.5277,-4.5277,-4.5277,-4.5277,-4.5277,-4.5277,-4.5277,-4.5277,-4.5277,-4.5277,-4.5277,-4.4972,-4.4522,-4.414,-4.3682,-4.31,-4.266,-4.2431,-4.224,-4.2421,-4.2555,-4.2487,-4.243,-4.242,-4.242,-4.2134,-4.1657,-4.1351,-4.1016,-4.071,-4.0299,-4.0127,-4.0096,-4.0086,-4.0036,-3.9984,-3.9933,-3.9922,-3.9922,-3.9911,-3.9889,-3.9878,-3.9823,-3.9724,-3.9677,-3.9654,-3.9625,-3.9588,-3.9613,-3.9613,-3.9594,-3.9582,-3.9564,-3.9539,-3.9502,-3.9502,-3.9508,-3.9483,-3.9446,-3.9439,-3.947,-3.9508,-3.9583,-3.9613,-3.9613,-4.7634,-4.7733,-4.8382,-4.8685,-4.8823,-4.9485,-4.9871,-5.0031,-5.0108,-5.0133,-5.0114,-5.0158,-5.017,-5.012,-4.9548,-4.8665,-4.7826,-4.7007,-4.6169,-4.5521,-4.5181,-4.5159,-4.5159,-4.517,-4.5159,-4.5159,-4.517,-4.517,-4.5159,-4.517,-4.517,-4.5159,-4.517,-4.5192,-4.5213,-4.5224,-4.5265,-4.5286,-4.5286,-4.5277,-4.5277,-4.5277,-4.5277,-4.5277,-4.5277,-4.5277,-4.5277,-4.5277,-4.5277,-4.5277,-4.5277,-4.5277,-4.5277,-4.5277,-4.5277,-4.5277,-4.5277,-4.5277,-4.5277,-4.5277,-4.5277,-4.5256,-4.4949,-4.4539,-4.4149,-4.3786,-4.3423,-4.327,-4.3127,-4.3212,-4.3202,-4.3172,-4.3162,-4.317,-4.3122,-4.2855,-4.2425,-4.2184,-4.1772,-4.0931,-4.0511,-4.0119,-4.0078,-3.9933,-3.99,-3.9834,-3.9789,-3.9758,-3.9758,-3.9758,-3.9735,-3.9724,-3.9696,-3.9613,-3.9576,-3.9552,-3.9521,-3.9483,-3.9508,-3.9521,-3.9452,-3.9426,-3.9464,-3.9419,-3.9362,-3.9388,-3.9432,-3.938,-3.9296,-3.9367,-3.9412,-3.9438,-3.9476,-3.9496,-3.9508,-4.6797,-4.6899,-4.747,-4.7784,-4.7989,-4.8786,-4.924,-4.943,-4.9827,-5.0031,-5.0031,-5.0082,-5.0108,-4.9993,-4.9289,-4.8452,-4.7596,-4.6827,-4.597,-4.5323,-4.5091,-4.5114,-4.5103,-4.5091,-4.5114,-4.5103,-4.5103,-4.5114,-4.5091,-4.5103,-4.5103,-4.5114,-4.5103,-4.5125,-4.5148,-4.5159,-4.517,-4.5233,-4.5265,-4.5297,-4.5277,-4.5297,-4.5277,-4.5277,-4.5277,-4.5277,-4.5277,-4.5277,-4.5297,-4.5277,-4.5277,-4.5277,-4.5297,-4.5286,-4.5243,-4.5213,-4.5203,-4.5203,-4.5203,-4.5222,-4.5213,-4.5203,-4.5181,-4.4914,-4.4685,-4.4448,-4.42,-4.399,-4.3876,-4.3781,-4.3721,-4.3662,-4.3659,-4.3675,-4.358,-4.3485,-4.3273,-4.3087,-4.2302,-4.1347,-4.0745,-4.0295,-4.0045,-3.9898,-3.9758,-3.9701,-3.963,-3.9563,-3.9575,-3.9599,-3.9575,-3.957,-3.957,-3.9546,-3.9489,-3.9445,-3.9419,-3.9412,-3.9438,-3.9425,-3.9315,-3.9261,-3.9261,-3.9221,-3.9198,-3.9193,-3.9175,-3.9193,-3.9152,-3.9212,-3.9207,-3.9193,-3.9248,-3.9373,-3.936,-4.6411,-4.6452,-4.6712,-4.693,-4.7188,-4.7908,-4.8229,-4.8395,-4.9267,-4.9809,-4.9874,-5.0018,-5.0044,-4.9815,-4.896,-4.8194,-4.7327,-4.6491,-4.5675,-4.5068,-4.5022,-4.501,-4.5003,-4.5049,-4.501,-4.5026,-4.5038,-4.4998,-4.5045,-4.5033,-4.501,-4.508,-4.5026,-4.5026,-4.5045,-4.5068,-4.5091,-4.5125,-4.5192,-4.5246,-4.5246,-4.5286,-4.5267,-4.5256,-4.5256,-4.5256,-4.5256,-4.5267,-4.5297,-4.5286,-4.5267,-4.5256,-4.5235,-4.5213,-4.5178,-4.5136,-4.5136,-4.5136,-4.5136,-4.5136,-4.5114,-4.5095,-4.5072,-4.4992,-4.4859,-4.4859,-4.466,-4.4614,-4.45,-4.4448,-4.4395,-4.4353,-4.4349,-4.4303,-4.4223,-4.409,-4.3907,-4.3568,-4.2846,-4.191,-4.1111,-4.0641,-4.0155,-3.9988,-3.9606,-3.9557,-3.9496,-3.9401,-3.9376,-3.9401,-3.9414,-3.9407,-3.9458,-3.9457,-3.9373,-3.9328,-3.9333,-3.9333,-3.932,-3.928,-3.9133,-3.9078,-3.905,-3.9026,-3.8983,-3.8939,-3.8906,-3.8921,-3.8921,-3.8921,-3.8921,-3.8892,-3.8979,-3.9124,-3.9184,-4.4628,-4.4715,-4.5487,-4.6244,-4.6934,-4.7159,-4.7278,-4.7408,-4.83,-4.907,-4.9655,-4.9774,-4.9764,-4.9532,-4.8316,-4.7521,-4.7053,-4.5944,-4.5136,-4.4884,-4.484,-4.4846,-4.4808,-4.4846,-4.484,-4.4815,-4.4802,-4.484,-4.4852,-4.4821,-4.4796,-4.4815,-4.4821,-4.4846,-4.4883,-4.4919,-4.4974,-4.501,-4.508,-4.5106,-4.5136,-4.5148,-4.5148,-4.5148,-4.5159,-4.5159,-4.5159,-4.5159,-4.5159,-4.5148,-4.5148,-4.5148,-4.5148,-4.5136,-4.5114,-4.5103,-4.508,-4.5068,-4.5068,-4.5057,-4.5045,-4.4991,-4.4967,-4.4919,-4.4931,-4.5045,-4.5091,-4.5091,-4.5068,-4.5022,-4.4986,-4.4962,-4.4926,-4.4877,-4.4796,-4.4625,-4.4436,-4.3914,-4.3322,-4.2492,-4.16,-4.0954,-4.0428,-3.9946,-3.9577,-3.9382,-3.9317,-3.9237,-3.917,-3.9183,-3.9237,-3.9269,-3.9367,-3.936,-3.9248,-3.918,-3.9166,-3.911,-3.9068,-3.9026,-3.895,-3.8892,-3.8833,-3.8818,-3.8792,-3.8728,-3.8713,-3.8661,-3.8676,-3.868,-3.868,-3.8695,-3.868,-3.88,-3.8877,-4.3931,-4.4003,-4.4566,-4.517,-4.5728,-4.6117,-4.63,-4.6476,-4.7215,-4.8116,-4.9032,-4.9422,-4.9485,-4.907,-4.7763,-4.69,-4.6542,-4.5334,-4.4908,-4.4744,-4.4699,-4.4725,-4.4712,-4.4699,-4.4725,-4.4712,-4.4712,-4.4725,-4.4699,-4.4712,-4.4725,-4.4699,-4.4712,-4.4706,-4.4745,-4.4796,-4.484,-4.4877,-4.4907,-4.4919,-4.4943,-4.5022,-4.5091,-4.5103,-4.5103,-4.5103,-4.5103,-4.5103,-4.5103,-4.5103,-4.5114,-4.5057,-4.5045,-4.5003,-4.4986,-4.4919,-4.4895,-4.4919,-4.4919,-4.4919,-4.4926,-4.4858,-4.4833,-4.477,-4.477,-4.4846,-4.4865,-4.4846,-4.487,-4.4821,-4.4821,-4.4796,-4.4757,-4.4706,-4.468,-4.4559,-4.4463,-4.4189,-4.3557,-4.2846,-4.1962,-4.1154,-4.0531,-3.9652,-3.9341,-3.917,-3.912,-3.9078,-3.9007,-3.895,-3.9007,-3.9082,-3.9152,-3.9166,-3.9082,-3.9007,-3.8979,-3.8925,-3.8851,-3.8788,-3.8758,-3.8667,-3.8606,-3.8606,-3.859,-3.8575,-3.8525,-3.8491,-3.8491,-3.8525,-3.8525,-3.8507,-3.8507,-3.8491,-3.8588,-4.3788,-4.3802,-4.3929,-4.4085,-4.4349,-4.5002,-4.5335,-4.5496,-4.6187,-4.6999,-4.7766,-4.8754,-4.8805,-4.8324,-4.7363,-4.666,-4.5892,-4.506,-4.4734,-4.4659,-4.4659,-4.4646,-4.4646,-4.4659,-4.4659,-4.4646,-4.4659,-4.4659,-4.4659,-4.4659,-4.4646,-4.4672,-4.4672,-4.464,-4.4659,-4.4659,-4.4672,-4.4653,-4.468,-4.4667,-4.477,-4.4914,-4.4998,-4.5026,-4.5038,-4.5038,-4.5057,-4.5057,-4.5045,-4.5033,-4.501,-4.4962,-4.4914,-4.487,-4.4796,-4.4745,-4.4732,-4.4706,-4.4693,-4.4712,-4.4685,-4.4672,-4.4672,-4.464,-4.4627,-4.46,-4.4619,-4.4632,-4.464,-4.4653,-4.4653,-4.464,-4.46,-4.4546,-4.4519,-4.4477,-4.4388,-4.4317,-4.3754,-4.3102,-4.2276,-4.1413,-4.0634,-3.9736,-3.916,-3.9001,-3.8939,-3.8896,-3.8851,-3.8758,-3.874,-3.8788,-3.8818,-3.8818,-3.8833,-3.8833,-3.8803,-3.8728,-3.8652,-3.8606,-3.8559,-3.8496,-3.8449,-3.8417,-3.8401,-3.8403,-3.8403,-3.8368,-3.8368,-3.8385,-3.8368,-3.8368,-3.8368,-3.8368,-3.8366,-4.3719,-4.3804,-4.3837,-4.3931,-4.4073,-4.4237,-4.437,-4.4659,-4.5368,-4.5851,-4.6258,-4.6903,-4.7481,-4.8127,-4.6586,-4.5778,-4.5533,-4.4838,-4.4612,-4.4524,-4.4537,-4.4556,-4.4556,-4.4537,-4.4524,-4.4524,-4.4537,-4.4542,-4.4556,-4.4542,-4.4528,-4.4482,-4.4468,-4.444,-4.4401,-4.4411,-4.4449,-4.4449,-4.4496,-4.451,-4.4551,-4.4659,-4.4764,-4.477,-4.477,-4.4789,-4.4789,-4.4789,-4.4789,-4.4789,-4.477,-4.4776,-4.4751,-4.4725,-4.4672,-4.4619,-4.4592,-4.4565,-4.457,-4.4524,-4.451,-4.4468,-4.4435,-4.4426,-4.4397,-4.4368,-4.4368,-4.4368,-4.4411,-4.4449,-4.4449,-4.4435,-4.4407,-4.4321,-4.4281,-4.4233,-4.4155,-4.4094,-4.3847,-4.3132,-4.2362,-4.1686,-4.1073,-4.007,-3.8951,-3.8833,-3.8777,-3.875,-3.8719,-3.859,-3.8512,-3.8528,-3.8544,-3.8525,-3.8556,-3.8603,-3.8606,-3.8544,-3.8496,-3.8449,-3.8435,-3.837,-3.8338,-3.8322,-3.829,-3.8257,-3.8257,-3.8272,-3.8274,-3.8274,-3.8257,-3.8241,-3.8241,-3.8274,-3.8272]},{"header":{"parameterUnit":"m.s-1","parameterCategory":1,"la1":31.0,"la2":29.5877,"lo1":-88.7671,"lo2":-86.6584,"dy":0.0162,"dx":0.0185,"nx":115,"ny":88,"refTime":"2023-11-05T18:00:00:Z","depth":0,"parameterNumber":3,"parameterNumberName":"V-component_of_WINDS"},"data":[0.0,0.0,0.0,0.0,0.0,0.0,0.0,0.0,0.0,0.0,0.0,0.0,0.0,0.0,0.0,0.0,0.0,0.0,0.0,0.0,0.0,0.0,0.0,0.0,0.0,0.0,0.0,0.0,0.0,0.0,0.0,0.0,0.0,0.0,0.0,0.0,0.0,0.0,0.0,0.0,0.0,0.0,0.0,0.0,0.0,0.0,0.0,0.0,0.0,0.0,0.0,0.0,0.0,0.0,0.0,0.0,0.0,0.0,0.0,0.0,0.0,0.0,0.0,0.0,0.0,0.0,0.0,0.0,0.0,0.0,0.0,0.0,0.0,0.0,0.0,0.0,0.0,0.0,0.0,0.0,0.0,0.0,0.0,0.0,0.0,0.0,0.0,0.0,0.0,0.0,0.0,0.0,0.0,0.0,0.0,0.0,0.0,0.0,0.0,0.0,0.0,0.0,0.0,0.0,0.0,0.0,0.0,0.0,0.0,0.0,0.0,0.0,0.0,0.0,0.0,0.0,0.0,0.0,0.0,0.0,0.0,0.0,0.0,0.0,0.0,0.0,0.0,0.0,0.0,0.0,0.0,0.0,0.0,0.0,0.0,0.0,0.0,0.0,0.0,0.0,0.0,0.0,0.0,0.0,0.0,0.0,0.0,0.0,0.0,0.0,0.0,0.0,0.0,0.0,0.0,0.0,0.0,0.0,0.0,0.0,0.0,0.0,0.0,0.0,0.0,0.0,0.0,0.0,0.0,0.0,0.0,0.0,0.0,0.0,0.0,0.0,0.0,0.0,0.0,0.0,0.0,0.0,0.0,0.0,0.0,0.0,0.0,0.0,0.0,0.0,0.0,0.0,0.0,0.0,0.0,0.0,0.0,0.0,0.0,0.0,0.0,0.0,0.0,0.0,0.0,0.0,0.0,0.0,0.0,0.0,0.0,0.0,0.0,0.0,0.0,0.0,0.0,0.0,0.0,0.0,0.0,0.0,0.0,0.0,0.0,0.0,0.0,0.0,0.0,0.0,0.0,0.0,0.0,0.0,0.0,0.0,0.0,0.0,0.0,0.0,0.0,0.0,0.0,0.0,0.0,0.0,0.0,0.0,0.0,0.0,0.0,0.0,0.0,0.0,0.0,0.0,0.0,0.0,0.0,0.0,0.0,0.0,0.0,0.0,0.0,0.0,0.0,0.0,0.0,0.0,0.0,0.0,0.0,0.0,0.0,0.0,0.0,0.0,0.0,0.0,0.0,0.0,0.0,0.0,0.0,0.0,0.0,0.0,0.0,0.0,0.0,0.0,0.0,0.0,0.0,0.0,0.0,0.0,0.0,0.0,0.0,0.0,0.0,0.0,0.0,0.0,0.0,0.0,0.0,0.0,0.0,0.0,0.0,0.0,0.0,0.0,0.0,0.0,0.0,0.0,0.0,0.0,0.0,0.0,0.0,0.0,0.0,0.0,0.0,0.0,0.0,0.0,0.0,0.0,0.0,0.0,0.0,0.0,0.0,0.0,0.0,0.0,0.0,0.0,0.0,0.0,0.0,0.0,0.0,0.0,0.0,0.0,0.0,0.0,0.0,0.0,0.0,0.0,0.0,0.0,0.0,0.0,0.0,0.0,0.0,0.0,0.0,0.0,0.0,0.0,0.0,0.0,0.0,0.0,0.0,0.0,0.0,0.0,0.0,0.0,0.0,0.0,0.0,0.0,0.0,0.0,0.0,0.0,0.0,0.0,0.0,0.0,0.0,0.0,0.0,0.0,0.0,0.0,0.0,0.0,0.0,0.0,0.0,0.0,0.0,0.0,0.0,0.0,0.0,0.0,0.0,0.0,0.0,0.0,0.0,0.0,0.0,0.0,0.0,0.0,0.0,0.0,0.0,0.0,0.0,0.0,0.0,0.0,0.0,0.0,0.0,0.0,0.0,0.0,0.0,0.0,0.0,0.0,0.0,0.0,0.0,0.0,0.0,0.0,0.0,0.0,0.0,0.0,0.0,0.0,0.0,0.0,0.0,0.0,0.0,0.0,0.0,0.0,0.0,0.0,0.0,0.0,0.0,0.0,0.0,0.0,0.0,0.0,0.0,0.0,0.0,0.0,0.0,0.0,0.0,0.0,0.0,0.0,0.0,0.0,0.0,0.0,0.0,0.0,0.0,0.0,0.0,0.0,0.0,0.0,0.0,0.0,0.0,0.0,0.0,0.0,0.0,0.0,0.0,0.0,0.0,0.0,0.0,0.0,0.0,0.0,0.0,0.0,0.0,0.0,0.0,0.0,0.0,0.0,0.0,0.0,0.0,0.0,0.0,0.0,0.0,0.0,0.0,0.0,0.0,0.0,0.0,0.0,0.0,0.0,0.0,0.0,0.0,0.0,0.0,0.0,0.0,0.0,0.0,0.0,0.0,0.0,0.0,0.0,0.0,0.0,0.0,0.0,0.0,0.0,0.0,0.0,0.0,0.0,0.0,0.0,0.0,0.0,0.0,0.0,0.0,0.0,0.0,0.0,0.0,0.0,0.0,0.0,0.0,0.0,0.0,0.0,0.0,0.0,0.0,0.0,0.0,0.0,0.0,0.0,0.0,0.0,0.0,0.0,0.0,0.0,0.0,0.0,0.0,0.0,0.0,0.0,0.0,0.0,0.0,0.0,0.0,0.0,0.0,0.0,0.0,0.0,0.0,0.0,0.0,0.0,0.0,0.0,0.0,0.0,0.0,0.0,0.0,0.0,0.0,0.0,0.0,0.0,0.0,0.0,0.0,0.0,0.0,0.0,0.0,0.0,0.0,0.0,0.0,0.0,0.0,0.0,0.0,0.0,0.0,0.0,0.0,0.0,0.0,0.0,0.0,0.0,0.0,0.0,0.0,0.0,0.0,0.0,0.0,0.0,0.0,0.0,0.0,0.0,0.0,0.0,0.0,0.0,0.0,0.0,0.0,0.0,0.0,0.0,0.0,0.0,0.0,0.0,0.0,0.0,0.0,0.0,0.0,0.0,0.0,0.0,0.0,0.0,0.0,0.0,0.0,0.0,0.0,0.0,0.0,0.0,0.0,0.0,0.0,0.0,0.0,0.0,0.0,0.0,0.0,0.0,0.0,0.0,0.0,0.0,0.0,0.0,0.0,0.0,0.0,0.0,0.0,0.0,0.0,0.0,0.0,0.0,0.0,0.0,0.0,0.0,0.0,0.0,0.0,0.0,0.0,0.0,0.0,0.0,0.0,0.0,0.0,0.0,0.0,0.0,0.0,0.0,0.0,0.0,0.0,0.0,0.0,0.0,0.0,0.0,0.0,0.0,0.0,0.0,0.0,0.0,0.0,0.0,0.0,0.0,0.0,0.0,0.0,0.0,0.0,0.0,0.0,0.0,0.0,0.0,0.0,0.0,0.0,0.0,0.0,0.0,0.0,0.0,0.0,0.0,0.0,0.0,0.0,0.0,0.0,0.0,0.0,0.0,0.0,0.0,0.0,0.0,0.0,0.0,0.0,0.0,0.0,0.0,0.0,0.0,0.0,0.0,0.0,0.0,0.0,0.0,0.0,0.0,0.0,0.0,0.0,0.0,0.0,0.0,0.0,0.0,0.0,0.0,0.0,0.0,0.0,0.0,0.0,0.0,0.0,0.0,0.0,0.0,0.0,0.0,0.0,0.0,0.0,0.0,0.0,0.0,0.0,0.0,0.0,0.0,0.0,0.0,0.0,0.0,0.0,0.0,0.0,0.0,0.0,0.0,0.0,0.0,0.0,0.0,0.0,0.0,0.0,0.0,0.0,0.0,0.0,0.0,0.0,0.0,0.0,0.0,0.0,0.0,0.0,0.0,0.0,0.0,0.0,0.0,0.0,0.0,0.0,0.0,0.0,0.0,0.0,0.0,0.0,0.0,0.0,0.0,0.0,0.0,0.0,0.0,0.0,0.0,0.0,0.0,0.0,0.0,0.0,0.0,0.0,0.0,0.0,0.0,0.0,0.0,0.0,0.0,0.0,0.0,0.0,0.0,0.0,0.0,0.0,0.0,0.0,0.0,0.0,0.0,0.0,0.0,0.0,0.0,0.0,0.0,0.0,0.0,0.0,0.0,0.0,0.0,0.0,0.0,0.0,0.0,0.0,0.0,0.0,0.0,0.0,0.0,0.0,0.0,0.0,0.0,0.0,0.0,0.0,0.0,0.0,0.0,0.0,0.0,0.0,0.0,0.0,0.0,0.0,0.0,0.0,0.0,0.0,0.0,0.0,0.0,0.0,0.0,0.0,0.0,0.0,0.0,0.0,0.0,0.0,0.0,0.0,0.0,-0.0697,0.0,0.0,0.0,0.0,0.0,0.0,0.0,0.0,0.0,0.0,0.0,0.0,0.0,0.0,0.0,0.0,0.0,0.0,0.0,0.0,0.0,0.0,0.0,0.0,0.0,0.0,0.0,0.0,0.0,0.0,0.0,0.0,0.0,0.0,0.0,0.0,0.0,0.0,0.0,0.0,0.0,0.0,0.0,0.0,0.0,0.0,0.0,0.0,0.0,0.0,0.0,0.0,0.0,0.0,0.0,0.0,0.0,0.0,0.0,0.0,0.0,0.0,0.0,0.0,0.0,0.0,0.0,0.0,0.0,0.0,0.0,0.0,0.0,0.0,0.0,0.0,0.0,0.0,0.0,0.0,0.0,0.0,0.0,0.0,0.0,0.0,0.0,0.0,0.0,0.0,0.0,0.0,0.0,0.0,0.0,0.0,0.0,0.0,0.0,0.0,0.0,0.0,0.0,0.0,0.0,0.0,0.0,0.0,0.0,0.0,-0.0764,-0.0697,-0.0697,-0.0697,-0.0697,0.0,0.0,0.0,0.0,0.0,0.0,0.0,0.0,0.0,0.0,0.0,0.0,0.0,0.0,0.0,0.0,0.0,0.0,0.0,0.0,0.0,0.0,0.0,0.0,0.0,0.0,0.0,0.0,0.0,0.0,0.0,0.0,0.0,0.0,0.0,0.0,0.0,0.0,0.0,0.0,0.0,0.0,0.0,0.0,0.0,0.0,0.0,0.0,0.0,0.0,0.0,0.0,0.0,0.0,0.0,0.0,0.0,0.0,0.0,0.0,0.0,0.0,0.0,0.0,0.0,0.0,0.0,0.0,0.0,0.0,0.0,0.0,0.0,0.0,0.0,0.0,0.0,0.0,0.0,0.0,0.0,0.0,0.0,0.0,0.0,0.0,0.0,0.0,0.0,0.0,0.0,0.0,0.0,0.0,0.0,0.0,0.0,0.0,0.0,0.0,0.0,0.0,0.0,0.0,0.0,0.0,0.0,0.0,0.0,0.0,0.0,0.0,-0.0697,-0.0697,-0.0697,0.0,0.0,0.0,0.0,0.0,0.0,0.0,0.0,0.0,0.0,0.0,0.0,0.0,0.0,0.0,0.0,0.0,0.0,0.0,0.0,0.0,0.0,0.0,0.0,0.0,0.0,0.0,0.0,0.0,0.0,0.0,0.0,0.0,0.0,0.0,0.0,0.0,0.0,0.0,0.0,0.0,0.0,0.0,0.0,0.0,0.0,0.0,0.0,0.0,0.0,0.0,0.0,0.0,0.0,0.0,0.0,0.0,0.0,0.0,0.0,0.0,0.0,0.0,0.0,0.0,0.0,0.0,0.0,0.0,0.0,0.0,0.0,0.0,0.0,0.0,0.0,0.0,0.0,0.0,0.0,0.0,0.0,0.0,0.0,0.0,0.0,0.0,0.0,0.0,0.0,0.0,0.0,0.0,0.0,0.0,0.0,0.0,0.0,0.0,0.0,0.0,0.0,0.0,0.0,0.0,0.0,0.0,0.0,0.0,0.0,-0.0697,-0.0697,-0.0697,0.0,-0.0697,0.0,0.0,0.0,0.0,0.0,0.0,0.0,0.0,0.0,0.0,0.0,0.0,0.0,0.0,0.0,0.0,0.0,0.0,0.0,0.0,0.0,0.0,0.0,0.0,0.0,0.0,0.0,0.0,0.0,0.0,0.0,0.0,0.0,0.0,0.0,0.0,0.0,0.0,0.0,0.0,0.0,0.0,0.0,0.0,0.0,0.0,0.0,0.0,0.0,0.0,0.0,0.0,0.0,0.0,0.0,0.0,0.0,0.0,0.0,0.0,0.0,0.0,0.0,0.0,0.0,0.0,0.0,0.0,0.0,0.0,0.0,0.0,0.0,0.0,0.0,0.0,0.0,0.0,0.0,0.0,0.0,0.0,0.0,0.0,0.0,0.0,0.0,0.0,0.0,0.0,0.0,0.0,0.0,0.0,0.0,0.0,0.0,0.0,0.0,0.0,0.0,0.0,0.0,0.0,0.0,0.0,0.0,0.0,0.0,0.0,-0.0584,-0.0607,-0.0652,-0.0697,0.0,0.0,0.0,0.0,0.0,0.0,0.0,0.0,0.0,0.0,0.0,0.0,0.0,0.0,0.0,0.0,0.0,0.0,0.0,0.0,0.0,0.0,0.0,0.0,0.0,0.0,0.0,0.0,0.0,0.0,0.0,0.0,0.0,0.0,0.0,0.0,0.0,0.0,0.0,0.0,0.0,0.0,0.0,0.0,0.0,0.0,0.0,0.0,0.0,0.0,0.0,0.0,0.0,0.0,0.0,0.0,0.0,0.0,0.0,0.0,0.0,0.0,0.0,0.0,0.0,0.0,0.0,0.0,0.0,0.0,0.0,0.0,0.0,0.0,0.0,0.0,0.0,0.0,0.0,0.0,0.0,0.0,0.0,0.0,0.0,0.0,0.0,0.0,0.0,0.0,0.0,0.0,0.0,0.0,0.0,0.0,0.0,0.0,0.0,0.0,0.0,0.0,0.0,0.0,0.0,0.0,0.0,0.0,0.0,0.0,-0.0432,-0.048,-0.0503,-0.0633,-0.0674,-0.0629,0.0,0.0,0.0,0.0,0.0,0.0,0.0,0.0,0.0,0.0,0.0,0.0,0.0,0.0,0.0,0.0,0.0,0.0,0.0,0.0,0.0,0.0,0.0,0.0,0.0,0.0,0.0,0.0,0.0,0.0,0.0,0.0,0.0,0.0,0.0,0.0,0.0,0.0,0.0,0.0,0.0,0.0,0.0,0.0,0.0,0.0,0.0,0.0,0.0,0.0,0.0,0.0,0.0,0.0,0.0,0.0,0.0,0.0,0.0,0.0,0.0,0.0,0.0,0.0,0.0,0.0,0.0,0.0,0.0,0.0,0.0,0.0,0.0,0.0,0.0,0.0,0.0,0.0,0.0,0.0,0.0,0.0,0.0,0.0,0.0,0.0,0.0,0.0,0.0,0.0,0.0,0.0,0.0,0.0,0.0,0.0,0.0,0.0,0.0,0.0,0.0,0.0,0.0,0.0,0.0,0.0,0.0,0.0,-0.0225,-0.0327,-0.0429,-0.0476,-0.0643,-0.0629,0.0,0.0,0.0,0.0,0.0,0.0,0.0,0.0,0.0,0.0,0.0,0.0,0.0,0.0,0.0,0.0,0.0,0.0,0.0,0.0,0.0,0.0,0.0,0.0,0.0,0.0,0.0,0.0,0.0,0.0,0.0,0.0,0.0,0.0,0.0,0.0,0.0,0.0,0.0,0.0,0.0,0.0,0.0,0.0,0.0,0.0,0.0,0.0,0.0,0.0,0.0,0.0,0.0,0.0,0.0,0.0,0.0,0.0,0.0,0.0,0.0,0.0,0.0,0.0,0.0,0.0,0.0,0.0,0.0,0.0,0.0,0.0,0.0,0.0,0.0,0.0,0.0,0.0,0.0,0.0,0.0,0.0,0.0,0.0,0.0,0.0,0.0,0.0,0.0,0.0,0.0,0.0,0.0,0.0,0.0,0.0,0.0,0.0,0.0,0.0,0.0,0.0,0.0,0.0,0.0,0.0,0.0,0.0,0.0,-0.007,-0.0194,-0.0346,-0.0445,-0.0525,-0.0515,0.0,0.0,0.0,0.0,0.0,0.0,0.0,0.0,0.0,0.0,0.0,0.0,0.0,0.0,0.0,0.0,0.0,0.0,0.0,0.0,0.0,0.0,0.0,0.0,0.0,0.0,0.0,0.0,0.0,0.0,0.0,0.0,0.0,0.0,0.0,0.0,0.0,0.0,0.0,0.0,0.0,0.0,0.0,0.0,0.0,0.0,0.0,0.0,0.0,0.0,0.0,0.0,0.0,0.0,0.0,0.0,0.0,0.0,0.0,0.0,0.0,0.0,0.0,0.0,0.0,0.0,0.0,0.0,0.0,0.0,0.0,0.0,0.0,0.0,0.0,0.0,0.0,0.0,0.0,0.0,0.0,0.0,0.0,0.0,0.0,0.0,0.0,0.0,0.0,0.0,0.0,0.0,0.0,0.0,0.0,0.0,0.0,0.0,0.0,0.0,0.0,0.0,0.0,0.0,0.0,0.0,0.0,0.0,0.0,0.0,0.0,-0.0253,-0.0333,-0.0441,-0.043,0.0,0.0,0.0,0.0,0.0,0.0,0.0,0.0,0.0,0.0,0.0,0.0,0.0,0.0,0.0,0.0,0.0,0.0,0.0,0.0,0.0,0.0,0.0,0.0,0.0,0.0,0.0,0.0,0.0,0.0,0.0,0.0,0.0,0.0,0.0,0.0,0.0,0.0,0.0,0.0,0.0,0.0,0.0,0.0,0.0,0.0,0.0,0.0,0.0,0.0,0.0,0.0,0.0,0.0,0.0,0.0,0.0,0.0,0.0,0.0,0.0,0.0,0.0,0.0,0.0,0.0,0.0,0.0,0.0,0.0,0.0,0.0,0.0,0.0,0.0,0.0,0.0,0.0,0.0,0.0,0.0,0.0,0.0,0.0,0.0,0.0,0.0,0.0,0.0,0.0,0.0,0.0,0.0,0.0,0.0,0.0,0.0,0.0,0.0,0.0,0.0,0.0,0.0,0.0,0.0,0.0,0.0,0.0,0.0,0.0,-0.0129,-0.0206,-0.0212,-0.0324,-0.0335,0.0,0.0,0.0,0.0,0.0,0.0,0.0,0.0,0.0,0.0,0.0,0.0,0.0,0.0,0.0,0.0,0.0,0.0,0.0,0.0,0.0,0.0,0.0,0.0,0.0,0.0,0.0,0.0,0.0,0.0,0.0,0.0,0.0,0.0,0.0,0.0,0.0,0.0,0.0,0.0,0.0,0.0,0.0,0.0,0.0,0.0,0.0,0.0,0.0,0.0,0.0,0.0,0.0,0.0,0.0,0.0,0.0,0.0,0.0,0.0,0.0,0.0,0.0,0.0,0.0,0.0,0.0,0.0,0.0,0.0,0.0,0.0,0.0,0.0,0.0,0.0,0.0,0.0,0.0,0.0,0.0,0.0,0.0,0.0,0.0,0.0,0.0,0.0,0.0,0.0,0.0,0.0,0.0,0.0,0.0,0.0,0.0,0.0,0.0,0.0,0.0,0.0,0.0,0.0,0.0,0.0,0.0,0.0,0.0,0.0,-0.0027,-0.0055,-0.0055,-0.0185,-0.0204,0.0,0.0,0.0,0.0,0.0,0.0,0.0,0.0,0.0,0.0,0.0,0.0,0.0,0.0,0.0,0.0,0.0,0.0,0.0,0.0,0.0,0.0,0.0,0.0,0.0,0.0,0.0,0.0,0.0,0.0,0.0,0.0,0.0,0.0,0.0,0.0,0.0,0.0,0.0,0.0,0.0,0.0,0.0,0.0,0.0,0.0,0.0,0.0,0.0,0.0,0.0,0.0,0.0,0.0,0.0,0.0,0.0,0.0,0.0,0.0,0.0,0.0,0.0,0.0,0.0,0.0,0.0,0.0,0.0,0.0,0.0,0.0,0.0,0.0,0.0,0.0,0.0,0.0,0.0,0.0,0.0,0.0,0.0,0.0,0.0,0.0,0.0,0.0,0.0,0.0,0.0,0.0,0.0,0.0,0.0,0.0,0.0,0.0,0.0,0.0,0.0,0.0,0.0,0.0,0.0,0.0,0.0,0.0,0.0,0.0,0.0056,0.0084,0.0056,0.0054,0.0053,0.0129,0.0,0.0,0.0,0.0,0.0,0.0,0.0,0.0,0.0,0.0,0.0,0.0,0.0,0.0,0.0,0.0,0.0,0.0,0.0,0.0,0.0,0.0,0.0,0.0,0.0,0.0,0.0,0.0,0.0,0.0,0.0,0.0,0.0,0.0,0.0,0.0,0.0,0.0,0.0,0.0,0.0,0.0,0.0,0.0,0.0,0.0,0.0,0.0,0.0,0.0,0.0,0.0,0.0,0.0,0.0,0.0,0.0,0.0,0.0,0.0,0.0,0.0,0.0,0.0,0.0,0.0,0.0,0.0,0.0,0.0,0.0,0.0,0.0,0.0,0.0,0.0,0.0,0.0,0.0,0.0,0.0,0.0,0.0,0.0,0.0,0.0,0.0,0.0,0.0,0.0,0.0,0.0,0.0,0.0,0.0,0.0,0.0,0.0,0.0,0.0,0.0,0.0,0.0,0.0,0.0,0.0,0.0,0.0,0.0,0.0143,0.0198,0.0197,0.0327,0.0401,0.0,0.0,0.0,0.0,0.0,0.0,0.0,0.0,0.0,0.0,0.0,0.0,0.0,0.0,0.0,0.0,0.0,0.0,0.0,0.0,0.0,0.0,0.0,0.0,0.0,0.0,0.0,0.0,0.0,0.0,0.0,0.0,0.0,0.0,0.0,0.0,0.0,0.0,0.0,0.0,0.0,0.0,0.0,0.0,0.0,0.0,0.0,0.0,0.0,0.0,0.0,0.0,0.0,0.0,0.0,0.0,0.0,0.0,0.0,0.0,0.0,0.0,0.0,0.0,0.0,0.0,0.0,0.0,0.0,0.0,0.0,0.0,0.0,0.0,0.0,0.0,0.0,0.0,0.0,0.0,0.0,0.0,0.0,0.0,0.0,0.0,0.0,0.0,0.0,0.0,0.0,0.0,0.0,0.0,0.0,0.0,0.0,0.0,0.0,0.0,0.0,0.0,0.0,0.0,0.0,0.0,0.0,0.0,0.0,0.0213,0.034,0.0366,0.0204,0.0375,0.0449,0.0,0.0,0.0,0.0,0.0,0.0,0.0,0.0,0.0,0.0,0.0,0.0,0.0,0.0,0.0,0.0,0.0,0.0,0.0,0.0,0.0,0.0,0.0,0.0,0.0,0.0,0.0,0.0,0.0,0.0,0.0,0.0,0.0,0.0,0.0,0.0,0.0,0.0,0.0,0.0,0.0,0.0,0.0,0.0,0.0,0.0,0.0,0.0,0.0,0.0,0.0,0.0,0.0,0.0,0.0,0.0,0.0,0.0,0.0,0.0,0.0,0.0,0.0,0.0,0.0,0.0,0.0,0.0,0.0,0.0,0.0,0.0,0.0,0.0,0.0,0.0,0.0,0.0,0.0,0.0,0.0,0.0,0.0,0.0,0.0,0.0,0.0,0.0,0.0,0.0,0.0,0.0,0.0,0.0,0.0,0.0,0.0,0.0,0.0,0.0,0.0,0.0,0.0,0.0,0.0,0.0,0.0,0.0,0.0092,0.0288,0.0462,0.0491,0.0438,0.0609,0.0675,0.0,0.0,0.0,0.0,0.0,0.0,0.0,0.0,0.0,0.0,0.0,0.0,0.0,0.0,0.0,0.0,0.0,0.0,0.0,0.0,0.0,0.0,0.0,0.0,0.0,0.0,0.0,0.0,0.0,0.0,0.0,0.0,0.0,0.0,0.0,0.0,0.0,0.0,0.0,0.0,0.0,0.0,0.0,0.0,0.0,0.0,0.0,0.0,0.0,0.0,0.0,0.0,0.0,0.0,0.0,0.0,0.0,0.0,0.0,0.0,0.0,0.0,0.0,0.0,0.0,0.0,0.0,0.0,0.0,0.0,0.0,0.0,0.0,0.0,0.0,0.0,0.0,0.0,0.0,0.0,0.0,0.0,0.0,0.0,0.0,0.0,0.0,0.0,0.0,0.0,0.0,0.0,0.0,0.0,0.0,0.0,0.0,0.0,0.0,0.0,0.0,0.0,0.0,0.0,0.0,0.0,0.0,0.0,0.0128,0.0338,0.0487,0.0663,0.0849,0.0962,0.0977,0.0,0.0,0.0,0.0,0.0,0.0,0.0,0.0,0.0,0.0,0.0,0.0,0.0,0.0,0.0,0.0,0.0,0.0,0.0,0.0,0.0,0.0,0.0,0.0,0.0,0.0,0.0,0.0,0.0,0.0,0.0,0.0,0.0,0.0,0.0,0.0,0.0,0.0,0.0,0.0,0.0,0.0,0.0,0.0,0.0,0.0,0.0,0.0,0.0,0.0,0.0,0.0,0.0,0.0,0.0,0.0,0.0,0.0,0.0,0.0,0.0,0.0,0.0,0.0,0.0,0.0,0.0,0.0,0.0,0.0,0.0,0.0,0.0,0.0,0.0,0.0,0.0,0.0,0.0,0.0,0.0,0.0,0.0,0.0,0.0,0.0,0.0,0.0,0.0,0.0,0.0,0.0,0.0,0.0,0.0,0.0,0.0,0.0,0.0,0.0,0.0,0.0,0.0,0.0,0.0,0.0,0.0,0.0,0.0164,0.0521,0.0582,0.0773,0.1112,0.1034,0.0967,0.0,0.0,0.0,0.0,0.0,0.0,0.0,0.0,0.0,0.0,0.0,0.0,0.0,0.0,0.0,0.0,0.0,0.0,0.0,0.0,0.0,0.0,0.0,0.0,0.0,0.0,0.0,0.0,0.0,0.0,0.0,0.0,0.0,0.0,0.0,0.0,0.0,0.0,0.0,0.0,0.0,0.0,0.0,0.0,0.0,0.0,0.0,0.0,-0.3613,0.0,0.0,0.0,0.0,0.0,0.0,0.0,0.0,0.0,0.0,0.0,0.0,0.0,0.0,0.0,0.0,0.0,0.0,0.0,0.0,0.0,0.0,0.0,0.0,0.0,0.0,0.0,0.0,0.0,0.0,0.0,0.0,0.0,0.0,0.0,0.0,0.0,0.0,0.0,0.0,0.0,0.0,0.0,0.0,0.0,0.0,0.0,0.0,0.0,0.0,0.0,0.0,0.0,0.0,0.0,0.0,0.0,0.0,0.0,0.0203,0.0606,0.0601,0.0795,0.1167,0.1162,0.1122,0.0,0.0,0.0,0.0,0.0,0.0,0.0,0.0,0.0,0.0,0.0,0.0,0.0,0.0,0.0,0.0,0.0,0.0,0.0,0.0,0.0,0.0,0.0,0.0,0.0,0.0,0.0,0.0,0.0,0.0,0.0,0.0,0.0,0.0,0.0,0.0,0.0,0.0,0.0,0.0,0.0,0.0,0.0,0.0,0.0,0.0,0.0,0.0,0.0,0.0,0.0,0.0,0.0,0.0,0.0,0.0,0.0,0.0,0.0,0.0,0.0,0.0,0.0,0.0,0.0,0.0,0.0,0.0,0.0,0.0,0.0,0.0,0.0,0.0,0.0,0.0,0.0,0.0,0.0,0.0,0.0,0.0,0.0,0.0,0.0,0.0,0.0,0.0,0.0,0.0,0.0,0.0,0.0,0.0,0.0,0.0,0.0,0.0,0.0,0.0,0.0,0.0,0.0,0.0,0.0,0.0,0.0,0.0,0.0208,0.0583,0.0613,0.0767,0.1168,0.1286,0.1316,0.1237,0.0,0.0,0.0,0.0,0.0,0.0,0.0,0.0,0.0,0.0,0.0,0.0,0.0,0.0,0.0,0.0,0.0,0.0,0.0,0.0,0.0,0.0,0.0,0.0,0.0,0.0,0.0,0.0,0.0,0.0,0.0,0.0,0.0,0.0,0.0,0.0,0.0,0.0,-0.3569,-0.3444,0.0,0.0,0.0,0.0,0.0,0.0,0.0,0.0,-0.3105,0.0,0.0,0.0,0.0,0.0,0.0,0.0,0.0,0.0,0.0,0.0,0.0,0.0,0.0,0.0,0.0,0.0,0.0,0.0,0.0,0.0,0.0,0.0,0.0,0.0,0.0,0.0,0.0,0.0,0.0,0.0,0.0,0.0,0.0,0.0,0.0,0.0,0.0,0.0,0.0,0.0,0.0,0.0,0.0,0.0,0.0,0.0,0.0,0.0,0.0,0.0,0.0,0.0,0.0,0.0,0.0,0.0,0.0,0.0212,0.0583,0.0613,0.0767,0.1205,0.1415,0.151,0.1363,0.0,0.0,0.0,0.0,0.0,0.0,0.0,0.0,0.0,0.0,0.0,0.0,0.0,0.0,0.0,0.0,0.0,0.0,0.0,0.0,0.0,0.0,0.0,0.0,0.0,0.0,0.0,0.0,0.0,0.0,0.0,0.0,0.0,0.0,0.0,0.0,0.0,0.0,0.0,-0.3274,-0.316,0.0,0.0,0.0,0.0,0.0,0.0,0.0,0.0,-0.3105,0.0,0.0,0.0,0.0,0.0,0.0,0.0,0.0,0.0,0.0,0.0,0.0,0.0,0.0,0.0,0.0,0.0,0.0,0.0,0.0,0.0,0.0,0.0,0.0,0.0,0.0,0.0,0.0,0.0,0.0,0.0,0.0,0.0,0.0,0.0,0.0,0.0,0.0,0.0,0.0,0.0,0.0,0.0,0.0,0.0,0.0,0.0,0.0,0.0,0.0,0.0,0.0,0.0,0.0,0.0,0.0248,0.0266,0.0418,0.075,0.0779,0.0891,0.1144,0.1323,0.1429,0.0,0.0,0.0,0.0,0.0,0.0,0.0,0.0,0.0,0.0,0.0,0.0,0.0,0.0,0.0,0.0,0.0,0.0,0.0,0.0,0.0,0.0,0.0,0.0,0.0,0.0,0.0,0.0,0.0,0.0,0.0,0.0,0.0,0.0,0.0,0.0,0.0,0.0,0.0,0.0,-0.3079,-0.3014,-0.3033,0.0,0.0,0.0,0.0,0.0,0.0,-0.2915,-0.2882,0.0,0.0,0.0,0.0,0.0,0.0,0.0,0.0,0.0,0.0,0.0,0.0,0.0,0.0,0.0,0.0,0.0,0.0,0.0,0.0,0.0,0.0,0.0,0.0,0.0,0.0,0.0,0.0,0.0,0.0,0.0,0.0,0.0,0.0,0.0,0.0,0.0,0.0,0.0,0.0,0.0,0.0,0.0,0.0,0.0,0.0,0.0,0.0,0.0,0.0,0.0,0.0,0.0,0.0,0.0,0.0494,0.0494,0.0618,0.0911,0.0899,0.1008,0.1157,0.1303,0.1384,0.0,0.0,0.0,0.0,0.0,0.0,0.0,0.0,0.0,0.0,0.0,0.0,0.0,0.0,0.0,0.0,0.0,0.0,0.0,0.0,0.0,0.0,0.0,0.0,0.0,0.0,0.0,0.0,0.0,0.0,0.0,0.0,0.0,0.0,0.0,0.0,0.0,0.0,0.0,0.0,0.0,-0.2864,-0.2863,-0.2791,0.0,0.0,0.0,0.0,-0.2763,-0.2719,0.0,0.0,0.0,0.0,0.0,0.0,0.0,0.0,0.0,0.0,0.0,0.0,0.0,0.0,0.0,0.0,0.0,0.0,0.0,0.0,0.0,0.0,0.0,0.0,0.0,0.0,0.0,0.0,0.0,0.0,0.0,0.0,0.0,0.0,0.0,0.0,0.0,0.0,0.0,0.0,0.0,0.0,0.0,0.0,0.0,0.0,0.0,0.0,0.0,0.0,0.0,0.0,0.0,0.0,0.0,0.0,0.0496,0.0503,0.0629,0.0877,0.1007,0.1152,0.1367,0.1537,0.158,0.0,0.0,0.0,0.0,0.0,0.0,0.0,0.0,0.0,0.0,0.0,0.0,0.0,0.0,0.0,0.0,0.0,0.0,0.0,0.0,0.0,0.0,0.0,0.0,0.0,0.0,0.0,0.0,0.0,0.0,0.0,0.0,0.0,0.0,0.0,0.0,0.0,0.0,0.0,0.0,0.0,-0.2576,-0.2475,-0.2453,-0.2458,0.0,0.0,-0.2516,-0.2699,-0.266,0.0,0.0,0.0,0.0,0.0,0.0,0.0,0.0,0.0,0.0,0.0,0.0,0.0,0.0,0.0,0.0,0.0,0.0,0.0,0.0,0.0,0.0,0.0,0.0,0.0,0.0,0.0,0.0,0.0,0.0,0.0,0.0,0.0,0.0,0.0,0.0,0.0,0.0,0.0,0.0,0.0,0.0,0.0,0.0,0.0,0.0,0.0,0.0,0.0,0.0,0.0,0.0,0.0,0.0,0.0,0.0772,0.0774,0.0827,0.089,0.1027,0.1074,0.1178,0.1335,0.1437,0.1526,0.0,0.0,0.0,0.0,0.0,0.0,0.0,0.0,0.0,0.0,0.0,0.0,0.0,0.0,0.0,0.0,0.0,0.0,0.0,0.0,0.0,0.0,0.0,0.0,0.0,0.0,0.0,0.0,0.0,0.0,0.0,0.0,0.0,0.0,0.0,0.0,0.0,0.0,0.0,0.0,0.0,0.0,-0.249,-0.25,0.0,0.0,0.0,-0.2531,-0.2628,0.0,0.0,0.0,0.0,0.0,0.0,0.0,0.0,0.0,0.0,0.0,0.0,0.0,0.0,0.0,0.0,0.0,0.0,0.0,0.0,0.0,0.0,0.0,0.0,0.0,0.0,0.0,0.0,0.0,0.0,0.0,0.0,0.0,0.0,0.0,0.0,0.0,0.0,0.0,0.0,0.0,0.0,0.0,0.0,0.0,0.0,0.0,0.0,0.0,0.0,0.0,0.0,0.0,0.0,0.0,0.0,0.0,0.1001,0.1082,0.1113,0.1087,0.1113,0.1248,0.1393,0.1383,0.0,0.0,0.0,0.0,0.0,0.0,0.0,0.0,0.0,0.0,0.0,0.0,0.0,0.0,0.0,0.0,0.0,0.0,0.0,0.0,0.0,0.0,0.0,0.0,0.0,0.0,0.0,-0.1982,0.0,0.0,0.0,0.0,0.0,0.0,0.0,0.0,0.0,0.0,0.0,0.0,0.0,0.0,-0.2395,-0.2468,-0.251,-0.253,0.0,0.0,-0.251,-0.2544,-0.245,-0.2369,0.0,0.0,0.0,0.0,0.0,0.0,0.0,0.0,0.0,0.0,0.0,0.0,0.0,0.0,0.0,0.0,0.0,0.0,0.0,0.0,0.0,0.0,0.0,0.0,0.0,0.0,0.0,0.0,0.0,0.0,0.0,0.0,0.0,0.0,0.0,0.0,0.0,0.0,0.0,0.0,0.0,0.0,0.0,0.0,0.0,0.0,0.0,0.0,0.0,0.0,0.0,0.0,0.0,0.0,0.0,0.0998,0.1061,0.1089,0.1115,0.1226,0.143,0.1675,0.1601,0.1604,0.0,0.0,0.0,0.0,0.0,0.0,0.0,0.0,0.0,0.0,0.0,0.0,0.0,0.0,0.0,0.0,0.0,0.0,0.0,0.0,0.0,0.0,0.0,0.0,0.0,0.0,0.0,0.0,0.0,0.0,0.0,0.0,0.0,0.0,0.0,0.0,0.0,0.0,0.0,0.0,0.0,-0.2275,-0.2241,-0.2216,-0.2216,0.0,0.0,-0.2281,-0.2383,-0.2327,-0.238,-0.254,0.0,0.0,0.0,0.0,0.0,0.0,0.0,0.0,0.0,0.0,0.0,0.0,0.0,0.0,0.0,0.0,0.0,0.0,0.0,0.0,0.0,0.0,0.0,0.0,0.0,0.0,0.0,0.0,0.0,0.0,0.0,0.0,0.0,0.0,0.0,0.0,0.0,0.0,0.0,0.0,0.0,0.0,0.0,0.0,0.0,0.0,0.0,0.0,0.0,0.0,0.0,0.0,0.0,0.1003,0.1001,0.108,0.1109,0.1085,0.1144,0.1282,0.1506,0.157,0.1651,0.0,0.0,0.0,0.0,0.0,0.0,0.0,0.0,0.0,0.0,0.0,0.0,0.0,0.0,0.0,0.0,0.0,0.0,0.0,0.0,0.0,0.0,0.0,0.0,0.0,0.0,0.0,0.0,-0.1754,-0.1855,-0.2051,0.0,0.0,0.0,0.0,0.0,0.0,0.0,0.0,0.0,0.0,-0.2226,-0.2183,-0.2188,0.0,0.0,-0.221,-0.221,-0.2279,-0.2259,-0.2263,-0.2359,-0.233,0.0,0.0,0.0,0.0,0.0,0.0,0.0,0.0,0.0,0.0,0.0,0.0,0.0,0.0,0.0,0.0,0.0,0.0,0.0,0.0,0.0,0.0,0.0,0.0,0.0,0.0,0.0,0.0,0.0,0.0,0.0,0.0,0.0,0.0,0.0,0.0,0.0,0.0,0.0,0.0,0.0,0.0,0.0,0.0,0.0,0.0,0.0,0.0,0.0,0.0,0.0,0.0,0.1016,0.1046,0.1061,0.1091,0.1134,0.1135,0.1206,0.1382,0.152,0.164,0.0,0.0,0.0,0.0,0.0,0.0,0.0,0.0,0.0,0.0,0.0,0.0,0.0,0.0,0.0,0.0,0.0,0.0,0.0,0.0,0.0,0.0,0.0,0.0,0.0,0.0,0.0,0.0,-0.1606,-0.1739,-0.1915,0.0,0.0,0.0,0.0,0.0,0.0,0.0,0.0,0.0,0.0,-0.2112,-0.2112,-0.2128,-0.2119,-0.2123,-0.22,-0.2237,-0.2236,-0.2236,-0.2222,-0.2215,0.0,0.0,0.0,0.0,0.0,0.0,0.0,0.0,0.0,0.0,0.0,0.0,0.0,0.0,0.0,0.0,0.0,0.0,0.0,0.0,0.0,0.0,0.0,0.0,0.0,0.0,0.0,0.0,0.0,0.0,0.3341,0.0,0.0,0.0,0.0,0.0,0.0,0.0,0.0,0.0,0.0,0.0,0.0,0.0,0.0,0.0,0.0,0.0,0.0,0.0,0.0,0.0,0.0,0.1014,0.1108,0.1106,0.1136,0.1201,0.1202,0.1239,0.1384,0.142,0.1535,0.1775,0.0,0.0,0.0,0.0,0.0,0.0,0.0,0.0,0.0,0.0,0.0,0.0,0.0,0.0,0.0,0.0,0.0,0.0,0.0,0.0,0.0,0.0,0.0,0.0,0.0,0.0,-0.1301,-0.1482,-0.1597,0.0,0.0,0.0,0.0,0.0,0.0,0.0,0.0,0.0,0.0,-0.2032,-0.1926,-0.1928,-0.197,-0.2,-0.2005,-0.2152,-0.2297,-0.2261,-0.2297,-0.2296,0.0,0.0,0.0,0.0,0.0,0.0,0.0,0.0,0.0,0.0,0.0,0.0,0.0,0.0,0.0,0.0,0.0,0.0,0.0,0.0,0.0,0.0,0.0,0.0,0.0,0.0,0.0,0.433,0.4153,0.0,0.0,0.0,0.0,0.0,0.0,0.0,0.0,0.0,0.0,0.0,0.1483,0.1451,0.0,0.0,0.0,0.0,0.0,0.0,0.0,0.0,0.0,0.0,0.0,0.0,0.1024,0.1105,0.1136,0.1202,0.1195,0.1197,0.1234,0.1271,0.1363,0.1468,0.1581,0.0,0.0,0.0,0.0,0.0,0.0,0.0,0.0,0.0,0.0,0.0,0.0,0.0,0.0,0.0,0.0,0.0,0.0,0.0,0.0,0.0,0.0,0.0,0.0,0.0,-0.0938,0.0,0.0,0.0,0.0,0.0,0.0,0.0,0.0,0.0,0.0,0.0,-0.202,-0.2003,-0.1876,-0.1763,-0.1763,-0.1776,-0.1835,0.0,0.0,0.0,0.0,0.0,0.0,0.0,0.0,0.0,0.0,0.0,0.0,0.0,0.0,-0.1868,-0.2055,-0.2062,-0.2065,-0.2065,0.0,0.0,0.0,0.0,0.0,0.0,0.0,0.0,0.0,0.0,0.0,0.0,0.0,0.0,0.4637,0.0,0.3929,0.0,0.0,0.0,0.0,0.0,0.0,0.0,0.0,0.2098,0.1902,0.1576,0.1576,0.1378,0.0,0.105,0.1083,0.0,0.0,0.0,0.0,0.0,0.0,0.0,0.0,0.1055,0.1136,0.1167,0.1191,0.1173,0.1222,0.1223,0.1173,0.1333,0.1413,0.1463,0.1504,0.146,0.0,0.0,0.0,0.0,0.0,0.0,0.0,0.0,0.0,0.0,0.0,0.0,0.0,0.0,0.0,0.0,0.0,0.0,0.0,0.0,0.0,0.0,0.0,-0.0649,0.0,0.0,0.0,0.0,0.0,0.0,0.0,0.0,0.0,-0.1993,-0.192,-0.1829,-0.181,-0.171,-0.1627,-0.1627,0.0,0.0,0.0,0.0,0.0,0.0,0.0,-0.1833,-0.1765,-0.1761,-0.1755,-0.174,-0.1737,-0.1732,-0.1717,0.0,0.0,-0.1941,-0.1926,-0.1894,-0.1877,-0.1906,-0.1898,-0.1976,-0.2052,-0.2125,0.0,0.0,0.0,0.0,0.0,0.0,0.0,0.0,0.5375,0.5183,0.0,0.4421,0.0,0.0,0.0,0.0,0.0,0.2906,0.0,0.0,0.2291,0.2078,0.1711,0.171,0.153,0.1202,0.1199,0.1199,0.1194,0.1082,0.0,0.0,0.0,0.0,0.0,0.0,0.1138,0.1203,0.1196,0.1175,0.1215,0.1242,0.1281,0.1211,0.1336,0.1369,0.1399,0.1462,0.1419,0.1286,0.1218,0.0,0.0,0.0,0.0,0.0,0.0,0.0,0.0,0.0,0.0,0.0,0.0,0.0,0.0,0.0,0.0,0.0,0.0,0.0,0.0,-0.0318,0.0,0.0,0.0,0.0,0.0,0.0,0.0,0.0,0.0,0.0,-0.1827,-0.1759,-0.1703,-0.1674,0.0,0.0,0.0,0.0,-0.1574,-0.1576,-0.1733,-0.1852,-0.1853,-0.1852,-0.1892,-0.1852,0.0,0.0,-0.1796,-0.1749,-0.1697,-0.1655,-0.165,-0.1681,-0.1644,-0.1672,-0.1693,-0.1725,-0.1713,-0.1702,-0.1632,-0.1685,-0.1715,0.6697,0.0,0.0,0.0,0.0,0.6364,0.6203,0.5996,0.557,0.53,0.5103,0.4398,0.0,0.0,0.0,0.0,0.0,0.0,0.266,0.2297,0.2297,0.2079,0.1714,0.1714,0.1531,0.1203,0.1203,0.1203,0.1201,0.1168,0.115,0.115,0.0,0.0,0.0,0.0,0.1205,0.1197,0.1208,0.1222,0.1282,0.1292,0.1281,0.1213,0.1232,0.1238,0.1192,0.1218,0.1185,0.1097,0.1089,0.0,0.0,0.0,0.0,0.0,0.0,0.0,0.0,0.0,0.0,0.0,0.0,0.0,0.0,0.0,0.0,0.0,0.0,0.0,0.018,0.0,-0.0185,0.0,0.0,0.0,0.0,0.0,0.0,0.0,0.0,0.0,-0.1405,-0.1482,-0.1561,0.0,0.0,-0.1056,-0.1074,-0.0963,-0.0932,-0.1154,-0.1239,0.0,-0.1446,-0.1488,-0.1487,-0.1487,-0.1364,-0.1237,-0.1229,-0.1089,-0.0955,-0.0908,-0.0934,-0.0923,-0.096,-0.1344,-0.1677,-0.1698,-0.1695,-0.1692,-0.1681,-0.1688,-0.1695,0.7303,0.7037,0.6803,0.6702,0.6692,0.66,0.6404,0.615,0.5823,0.5554,0.5274,0.4622,0.4363,0.4325,0.3827,0.0,0.0,0.0,0.2746,0.2476,0.2361,0.2128,0.1818,0.174,0.1539,0.1259,0.122,0.1252,0.124,0.124,0.124,0.1239,0.0,0.0,0.1184,0.1185,0.1237,0.1228,0.123,0.1239,0.1296,0.1297,0.1288,0.123,0.1218,0.1195,0.1158,0.1116,0.1086,0.1035,0.0996,0.0966,0.0,0.0,0.0,0.0,0.0,0.0,0.0,0.0,0.0,0.0,0.0,0.0816,0.0719,0.0,0.0,0.0,0.0623,0.0578,0.0501,0.0314,0.0,0.0,0.0,0.0,0.0,0.0,0.0,-0.107,-0.1073,-0.1046,-0.0996,-0.1085,-0.113,-0.113,-0.0947,-0.0763,-0.0781,0.0,-0.0663,-0.084,-0.0842,-0.0884,-0.1011,-0.1011,-0.1011,-0.1011,-0.0927,-0.0842,-0.0842,-0.0708,-0.0619,-0.0618,-0.0612,-0.0604,-0.0599,-0.0972,-0.1287,-0.1264,-0.1259,-0.1255,-0.1243,-0.1249,-0.1259,0.7846,0.755,0.7004,0.6776,0.677,0.6759,0.6592,0.6338,0.6104,0.5886,0.5641,0.5001,0.4662,0.4617,0.399,0.0,0.336,0.3114,0.2859,0.2652,0.2398,0.2187,0.1977,0.1765,0.1539,0.1306,0.1304,0.1329,0.13,0.1297,0.1297,0.1295,0.1239,0.1225,0.1214,0.1215,0.1229,0.1295,0.1296,0.1297,0.1297,0.1297,0.1297,0.1296,0.123,0.1214,0.1172,0.1122,0.1091,0.1084,0.1036,0.1006,0.1001,0.0,0.0,0.0,0.0,0.0,0.0,0.0,0.0,0.0,0.0,0.0,0.0,0.0,0.0,0.0,0.0899,0.0,0.0811,0.0651,0.0,0.0,0.0,-0.0036,-0.0182,-0.0329,-0.048,-0.0568,0.0,0.0,-0.0589,-0.0562,-0.0571,-0.0573,-0.0572,-0.0576,-0.0589,-0.0549,-0.0549,-0.0594,-0.0593,-0.0593,-0.068,-0.0637,-0.0638,-0.0638,-0.0593,-0.0594,-0.0592,-0.0548,-0.0548,-0.0503,-0.0545,-0.054,-0.0529,-0.0565,-0.056,-0.0574,-0.0607,-0.0604,-0.0592,-0.0636,-0.0683,0.794,0.759,0.7444,0.7383,0.7377,0.7261,0.6987,0.6611,0.6322,0.5977,0.5504,0.495,0.4494,0.4162,0.3867,0.3612,0.34,0.3114,0.2778,0.2398,0.2314,0.2103,0.1766,0.1724,0.1552,0.1336,0.1313,0.1299,0.1331,0.1308,0.1297,0.1295,0.1282,0.1278,0.1285,0.1286,0.1289,0.1297,0.1297,0.1297,0.1297,0.1297,0.1297,0.1297,0.1289,0.1236,0.1175,0.1198,0.1169,0.1088,0.1073,0.1046,0.1003,0.0994,0.0,0.0,0.0,0.0,0.0,0.0,0.0,0.0,0.0,0.0909,0.0975,0.0,0.098,0.0,0.0997,0.1034,0.1029,0.0911,0.0,0.0,0.0578,0.0328,0.0,-0.0113,-0.0227,-0.0583,-0.0623,-0.055,-0.0402,-0.0365,-0.033,-0.017,-0.0295,-0.0379,-0.0344,-0.0259,-0.0217,-0.0396,-0.0441,-0.0486,-0.0617,-0.0663,-0.0661,-0.0663,-0.0574,-0.044,-0.0433,-0.0256,-0.0126,-0.0123,-0.0162,-0.016,0.0,-0.0119,0.0,-0.0156,-0.0389,-0.0622,-0.058,-0.0582,-0.0623,0.8258,0.7938,0.7842,0.7794,0.778,0.7567,0.7287,0.6897,0.6617,0.6284,0.5911,0.522,0.4624,0.4109,0.3806,0.3592,0.3461,0.3118,0.2729,0.2382,0.2295,0.2078,0.1731,0.1645,0.1507,0.1323,0.135,0.1328,0.1303,0.1326,0.1311,0.1297,0.1297,0.1297,0.1297,0.1297,0.1297,0.1297,0.1297,0.1297,0.1297,0.1297,0.1297,0.1297,0.1297,0.1288,0.1232,0.1219,0.1196,0.1163,0.11,0.1072,0.1041,0.1027,0.1039,0.0,0.0,0.0,0.0,0.0,0.0,0.0,0.0,0.0,0.0,0.0,0.1019,0.1045,0.1123,0.1158,0.114,0.1084,0.1025,0.1037,0.0853,0.0637,0.0422,0.0231,0.0039,-0.0196,-0.0275,-0.0276,-0.02,-0.0162,-0.0123,0.0,-0.0126,-0.017,-0.0175,-0.0044,-0.0044,-0.0177,-0.0221,-0.0264,-0.035,-0.0393,-0.0393,-0.0393,-0.0305,-0.0217,-0.0215,-0.0127,0.0,0.0,0.0,0.0,0.0,0.0,0.0,0.0,-0.0157,-0.0314,-0.0314,-0.0314,-0.0314,0.8645,0.8382,0.8137,0.7988,0.8018,0.7763,0.7499,0.724,0.6941,0.6602,0.6311,0.5554,0.4863,0.4334,0.383,0.3602,0.36,0.3145,0.2739,0.247,0.2289,0.2064,0.175,0.1525,0.1422,0.1396,0.1392,0.1363,0.1314,0.131,0.1294,0.131,0.1309,0.1308,0.1308,0.1309,0.1304,0.1297,0.1297,0.1297,0.1297,0.1297,0.1297,0.1297,0.1297,0.1297,0.1296,0.1232,0.1216,0.1173,0.1161,0.1095,0.1127,0.1137,0.1076,0.0,0.1018,0.0,0.0,0.0,0.0,0.0,0.0,0.0,0.0,0.1016,0.1039,0.1123,0.1154,0.1172,0.1208,0.1213,0.1226,0.1214,0.1065,0.0921,0.0901,0.0589,0.0354,0.0314,0.0118,0.0039,0.0,0.0,0.0,0.0,0.0,0.0,0.0,0.0,0.0,0.0,0.0,0.0,0.0,0.0,0.0,0.0,0.0,0.0,0.0,0.0,0.0,0.0,0.0,0.0,0.0,0.0,0.0,0.0,0.0,0.0,0.0,0.0,0.0,0.8801,0.8382,0.8137,0.7988,0.7985,0.7928,0.7739,0.7433,0.6982,0.6319,0.5516,0.5353,0.5007,0.4516,0.3937,0.3679,0.3631,0.3121,0.2649,0.2244,0.22,0.193,0.148,0.1436,0.1387,0.1425,0.1402,0.1384,0.1373,0.1308,0.1295,0.1331,0.1331,0.1331,0.1331,0.0,0.0,0.0,0.1297,0.1297,0.1297,0.1297,0.1297,0.1297,0.1297,0.0,0.1296,0.1291,0.1236,0.1213,0.12,0.0,0.0,0.0,0.0,0.0,0.0,0.0,0.0,0.0,0.0,0.0,0.1172,0.1125,0.1107,0.1127,0.1146,0.1194,0.1185,0.1203,0.1203,0.1264,0.1281,0.1287,0.1248,0.1134,0.0943,0.0825,0.0668,0.0354,0.0275,0.0158,0.0,0.0,0.0,0.0,0.0,0.0,0.0,0.0,0.0,0.0,0.0,0.0,0.0,0.0,0.0,0.0,0.0,0.0,0.0,0.0,0.0,0.0,0.0,0.0,0.0,0.0,0.0,0.0,0.0,0.0,0.0,0.0,0.0,0.9046,0.0,0.8332,0.8153,0.0,0.8022,0.7898,0.7723,0.7216,0.6421,0.5408,0.5408,0.5093,0.4571,0.4148,0.3828,0.3697,0.3342,0.2809,0.22,0.22,0.1885,0.1391,0.1391,0.1391,0.139,0.142,0.1404,0.139,0.1376,0.1362,0.1306,0.1306,0.1306,0.1306,0.1306,0.1333,0.1303,0.1327,0.1319,0.1319,0.1304,0.1297,0.1297,0.1297,0.0,0.0,0.0,0.0,0.0,0.0,0.0,0.0,0.1175,0.0,0.1203,0.1203,0.1203,0.1203,0.1203,0.1203,0.1203,0.118,0.1176,0.1145,0.1171,0.1189,0.1189,0.1216,0.1234,0.1235,0.1288,0.1297,0.1297,0.1297,0.1218,0.114,0.0983,0.0786,0.0511,0.0354,0.0237,0.0,0.0,0.0,0.0,0.0,0.0,0.0,0.0,0.0,0.0,0.0,0.0,0.0,0.0,0.0,0.0,0.0,0.0,0.0,0.0,0.0,0.0,0.0,0.0,0.0,0.0,0.0,0.0,0.0,0.0,0.0,0.0,0.0,0.9305,0.9212,0.8619,0.8309,0.8296,0.8147,0.8015,0.7892,0.0,0.0,0.0,0.5564,0.5224,0.4714,0.4363,0.4033,0.3738,0.348,0.2979,0.2301,0.2247,0.193,0.148,0.1436,0.1391,0.1391,0.1391,0.1423,0.1398,0.1398,0.1386,0.1323,0.1321,0.132,0.1321,0.1321,0.1321,0.1319,0.1328,0.1307,0.1302,0.1318,0.1302,0.1297,0.1297,0.1297,0.1297,0.1297,0.1297,0.1296,0.1233,0.1219,0.1219,0.1234,0.122,0.122,0.1219,0.122,0.122,0.122,0.122,0.122,0.1205,0.1206,0.1177,0.1202,0.1219,0.1219,0.1281,0.1297,0.1297,0.1297,0.1297,0.1297,0.1297,0.1297,0.1297,0.11,0.0904,0.0707,0.0552,0.0316,0.0119,0.0,0.004,0.0,0.0,0.0,0.0,0.0,0.0,0.0,0.0,0.0,0.0,0.0,0.0,0.0,0.0,0.0,0.0,0.0,0.0,0.0,0.0,0.0,0.0,0.0,0.0,0.0,0.0,0.0,0.0,0.0,0.0,0.9455,0.9276,0.8724,0.8452,0.8442,0.8296,0.8012,0.7646,0.7338,0.6877,0.6263,0.5765,0.5411,0.5094,0.4524,0.4143,0.3879,0.3523,0.3095,0.2533,0.2308,0.2064,0.175,0.1525,0.1391,0.1391,0.1391,0.1389,0.1384,0.1384,0.1382,0.1378,0.1379,0.1378,0.1378,0.1378,0.1379,0.1377,0.1327,0.1329,0.1303,0.1299,0.1323,0.1298,0.1298,0.1297,0.1297,0.1297,0.1297,0.1297,0.1293,0.129,0.129,0.1285,0.1284,0.1284,0.1283,0.1284,0.1283,0.1284,0.1284,0.1284,0.1288,0.1277,0.1209,0.1272,0.129,0.129,0.1294,0.1297,0.1297,0.1297,0.1297,0.1297,0.1297,0.1297,0.1297,0.1259,0.1142,0.0866,0.088,0.0729,0.0324,0.0288,0.025,0.0,0.0,0.0,0.0,0.0,0.0,0.0,0.0,0.0,0.0,0.0,0.0,0.0,0.0,0.0,0.0,0.0,0.0,0.0,0.0,0.0,0.0,0.0,0.0,0.0,0.0,0.0,0.0,0.0,0.0,0.9822,0.9528,0.9069,0.8764,0.8587,0.8419,0.8184,0.7958,0.7575,0.7042,0.6387,0.5989,0.5589,0.5188,0.4895,0.4552,0.4114,0.3801,0.3371,0.2866,0.2534,0.2192,0.1869,0.1668,0.1525,0.1436,0.1391,0.1391,0.1391,0.1391,0.1391,0.1391,0.1391,0.1391,0.1391,0.1391,0.1391,0.1389,0.1393,0.1364,0.135,0.1294,0.1313,0.1323,0.1321,0.1314,0.1298,0.1297,0.1297,0.1297,0.1297,0.1297,0.1297,0.1297,0.1297,0.1297,0.1297,0.1297,0.1297,0.1297,0.1297,0.1297,0.1297,0.1291,0.1238,0.1288,0.1297,0.1297,0.1297,0.1297,0.1297,0.1297,0.1297,0.1297,0.1297,0.1297,0.1299,0.1312,0.1202,0.1003,0.0981,0.0871,0.0539,0.0544,0.0466,0.0257,0.013,0.0,0.0,0.0,0.0,0.0,0.0,0.0,0.0,0.0,0.0,0.0,0.0,0.0,0.0,0.0,0.0,0.0,0.0,0.0,0.0,0.0,0.0,0.0,0.0,0.0,0.0,0.0,0.0,1.0091,0.9746,0.9407,0.9014,0.8689,0.8465,0.8333,0.8262,0.7841,0.7272,0.6589,0.6239,0.5789,0.529,0.524,0.4899,0.4345,0.4074,0.3696,0.321,0.2869,0.2465,0.2081,0.1912,0.1713,0.1481,0.1436,0.1391,0.1391,0.1391,0.1391,0.1391,0.1391,0.1391,0.1391,0.1391,0.1391,0.1389,0.1412,0.1397,0.1389,0.1368,0.1301,0.1316,0.1312,0.1299,0.131,0.1307,0.1304,0.1298,0.1297,0.1297,0.1297,0.1297,0.1297,0.1297,0.1297,0.1297,0.1297,0.1297,0.1297,0.1297,0.1297,0.1297,0.1297,0.1297,0.1297,0.1297,0.1297,0.1297,0.1297,0.1297,0.1297,0.1297,0.1303,0.1308,0.131,0.1294,0.123,0.111,0.1087,0.1018,0.0849,0.0767,0.0689,0.0482,0.0267,0.018,0.0135,0.0135,0.018,0.0135,0.009,0.0,0.0,0.0,0.0,0.0,0.0,0.0,0.0,0.0,0.0,0.0,0.0,0.0,0.0,0.0,0.0,0.0,0.0,0.0,0.0,0.0,0.0,1.0091,0.9812,0.9464,0.9108,0.8716,0.8676,0.8516,0.8292,0.799,0.7601,0.7101,0.6587,0.6084,0.5586,0.529,0.4933,0.4418,0.4299,0.3969,0.3468,0.3165,0.2873,0.2508,0.208,0.1828,0.1754,0.1527,0.1438,0.1436,0.1391,0.1391,0.1391,0.1391,0.1391,0.1391,0.1391,0.1391,0.1391,0.1388,0.1418,0.1392,0.1387,0.1373,0.1303,0.1302,0.1329,0.13,0.1298,0.1326,0.13,0.1297,0.1297,0.1297,0.1297,0.1297,0.1297,0.1297,0.1297,0.1297,0.1297,0.1297,0.1297,0.1297,0.1297,0.1297,0.1297,0.1297,0.1297,0.1297,0.1297,0.1297,0.1297,0.1298,0.1303,0.1321,0.1298,0.1302,0.1325,0.1302,0.1302,0.1326,0.1257,0.1042,0.1011,0.0934,0.0713,0.0581,0.0538,0.0538,0.0583,0.0583,0.0538,0.0314,0.0,0.0,0.0,0.0,0.0,0.0,0.0,0.0,0.0,0.0,0.0,0.0,0.0,0.0,0.0,0.0,0.0,0.0,0.0,0.0,0.0,0.0,1.0257,0.9816,0.9651,0.934,0.8838,0.875,0.8645,0.852,0.8237,0.7922,0.7601,0.7071,0.6487,0.5839,0.5536,0.5238,0.4834,0.4501,0.4239,0.3983,0.357,0.3186,0.2923,0.2555,0.2237,0.2059,0.192,0.1771,0.1618,0.148,0.1391,0.1391,0.1391,0.1391,0.1391,0.1391,0.1391,0.1391,0.1391,0.1384,0.1418,0.1416,0.1403,0.1376,0.133,0.1359,0.1331,0.1312,0.1296,0.1324,0.1306,0.1297,0.1297,0.1297,0.1297,0.1297,0.1297,0.1297,0.1297,0.1297,0.1297,0.1297,0.1297,0.1297,0.1297,0.1297,0.1297,0.1297,0.1297,0.1297,0.1298,0.1297,0.1303,0.1321,0.1296,0.1309,0.1328,0.1355,0.1373,0.1331,0.1398,0.1372,0.1241,0.116,0.1076,0.0897,0.0807,0.0718,0.0718,0.0718,0.0718,0.0673,0.0538,0.0404,0.0404,0.0404,0.0404,0.0404,0.0404,0.0404,0.0269,0.0224,0.0,0.0045,0.0,0.0,0.0,0.0,0.0,0.0,0.0174,0.0256,0.025,0.0326,0.0402,1.0363,0.9816,0.9651,0.9323,0.8871,0.8767,0.875,0.8689,0.8479,0.8188,0.7891,0.7538,0.6971,0.6245,0.5839,0.5539,0.519,0.479,0.4539,0.4383,0.393,0.3598,0.3379,0.2999,0.271,0.2479,0.2287,0.2131,0.192,0.178,0.1597,0.1551,0.1551,0.1506,0.146,0.1414,0.1414,0.1414,0.1408,0.1403,0.1446,0.1394,0.1425,0.1405,0.1402,0.1389,0.1318,0.1296,0.1318,0.1303,0.1321,0.1305,0.1297,0.1297,0.1297,0.1297,0.1297,0.1297,0.1297,0.1297,0.1297,0.1297,0.1297,0.1297,0.1297,0.1297,0.1297,0.1298,0.1304,0.131,0.1309,0.131,0.1323,0.131,0.1321,0.1336,0.1358,0.1384,0.1402,0.1405,0.142,0.1391,0.1391,0.1301,0.1166,0.1166,0.1031,0.0897,0.0897,0.0897,0.0897,0.0897,0.0897,0.0852,0.0762,0.0673,0.0718,0.0718,0.0673,0.0628,0.0493,0.0493,0.0493,0.0359,0.0224,0.0,0.0,0.0,0.0,0.0,0.0353,0.052,0.0469,0.0626,0.0698,1.0363,0.9761,0.921,0.894,0.8881,0.8871,0.8787,0.8723,0.8686,0.8368,0.7991,0.7837,0.7462,0.6753,0.6245,0.5691,0.524,0.514,0.4891,0.4489,0.4381,0.4187,0.3824,0.3381,0.3153,0.3002,0.2666,0.2378,0.2326,0.2232,0.2141,0.1901,0.1896,0.1757,0.1565,0.1563,0.1521,0.1513,0.1538,0.1479,0.1476,0.1452,0.1393,0.1389,0.1388,0.1417,0.1392,0.1386,0.1361,0.1306,0.1301,0.1327,0.1302,0.1297,0.1336,0.1297,0.1297,0.1336,0.1336,0.1336,0.1336,0.1336,0.1375,0.1336,0.1336,0.134,0.1341,0.1298,0.1326,0.1301,0.1303,0.1302,0.1313,0.13,0.1369,0.1382,0.1387,0.1412,0.1386,0.1387,0.1388,0.1391,0.1391,0.1391,0.1391,0.1391,0.1346,0.1346,0.1301,0.1346,0.1301,0.1301,0.1301,0.1211,0.0852,0.0807,0.0762,0.0807,0.0852,0.0762,0.0718,0.0673,0.0673,0.0673,0.0673,0.0673,0.0673,0.0,0.0,0.067,0.0752,0.0785,0.0913,0.0768,0.0841,1.0363,0.9761,0.9158,0.8937,0.8937,0.8937,0.8851,0.8849,0.875,0.8602,0.8368,0.8037,0.7769,0.7468,0.6826,0.6242,0.5691,0.534,0.509,0.4889,0.4539,0.4321,0.4198,0.3844,0.3708,0.3599,0.3397,0.3135,0.2815,0.248,0.2243,0.2194,0.2147,0.2099,0.2051,0.2004,0.1956,0.1811,0.1751,0.1651,0.1556,0.1498,0.1438,0.1465,0.1445,0.1385,0.1419,0.1401,0.138,0.1358,0.1324,0.1298,0.1326,0.1426,0.1493,0.1493,0.1612,0.1691,0.1691,0.1691,0.1691,0.1691,0.1691,0.1613,0.1538,0.1514,0.1447,0.1332,0.1314,0.1295,0.1351,0.1343,0.1301,0.137,0.1384,0.1398,0.1415,0.1384,0.1391,0.1391,0.1391,0.1391,0.1391,0.1391,0.1391,0.1391,0.1391,0.1436,0.1391,0.1391,0.1436,0.1436,0.1525,0.1615,0.148,0.1256,0.1166,0.1166,0.1166,0.1121,0.1076,0.1122,0.1166,0.1076,0.1076,0.1166,0.1166,0.1166,0.1166,0.1164,0.1197,0.1283,0.142,0.1349,0.1461,1.0257,0.9761,0.9268,0.8995,0.8937,0.8937,0.8937,0.8871,0.8828,0.8757,0.8622,0.8279,0.8095,0.7846,0.7345,0.6826,0.6245,0.5691,0.5391,0.519,0.4839,0.4589,0.4487,0.4234,0.4107,0.4062,0.3956,0.3731,0.3403,0.3011,0.2769,0.2625,0.2576,0.2479,0.2382,0.2333,0.2235,0.2088,0.2076,0.1973,0.1827,0.1769,0.1754,0.1775,0.1695,0.158,0.1436,0.1503,0.153,0.1516,0.1562,0.1529,0.1546,0.1632,0.1691,0.173,0.1808,0.1887,0.1887,0.1887,0.1893,0.1906,0.1907,0.1871,0.1767,0.1754,0.1684,0.1611,0.1553,0.1586,0.1599,0.151,0.1428,0.1401,0.1404,0.1412,0.1387,0.139,0.1391,0.1391,0.1391,0.1391,0.1436,0.148,0.1525,0.1525,0.1615,0.166,0.166,0.166,0.166,0.166,0.184,0.1885,0.1885,0.175,0.166,0.1705,0.1615,0.1525,0.148,0.157,0.1615,0.1525,0.1525,0.1615,0.166,0.166,0.166,0.166,0.1701,0.1785,0.1871,0.1996,0.2013,1.0147,0.9816,0.9489,0.9213,0.8992,0.8937,0.8937,0.8878,0.893,0.8849,0.874,0.8693,0.8368,0.8014,0.7846,0.7468,0.6824,0.625,0.5741,0.529,0.519,0.5037,0.4836,0.4587,0.4437,0.4375,0.4128,0.4028,0.3966,0.386,0.3612,0.3272,0.3213,0.3007,0.2468,0.2559,0.2464,0.2454,0.2422,0.2403,0.2398,0.2272,0.2251,0.2239,0.2202,0.193,0.1485,0.1659,0.182,0.1834,0.1952,0.2084,0.1964,0.196,0.1932,0.1938,0.1973,0.1931,0.1972,0.2017,0.2118,0.2144,0.2072,0.217,0.212,0.2137,0.2103,0.2025,0.2015,0.2046,0.2009,0.1899,0.1696,0.1479,0.143,0.1387,0.1389,0.1391,0.1436,0.1436,0.148,0.1436,0.148,0.166,0.1795,0.184,0.1974,0.2109,0.2064,0.2064,0.2155,0.2155,0.2199,0.2287,0.2243,0.22,0.2244,0.2244,0.2109,0.2019,0.1973,0.2063,0.2153,0.2108,0.2287,0.2378,0.2378,0.2378,0.2377,0.2332,0.2333,0.2333,0.2459,0.2538,0.2437,1.0257,1.0091,0.9599,0.9379,0.9213,0.8992,0.8937,0.8937,0.8937,0.8858,0.8797,0.8757,0.8602,0.8375,0.8105,0.7776,0.7525,0.6838,0.6242,0.5792,0.5586,0.5436,0.5286,0.509,0.4889,0.4636,0.4386,0.4288,0.4237,0.4085,0.3883,0.3783,0.3732,0.3682,0.3479,0.3478,0.3379,0.2975,0.2961,0.2801,0.245,0.2387,0.2365,0.2384,0.2368,0.2184,0.1975,0.2035,0.2058,0.2087,0.2103,0.2102,0.2132,0.2316,0.2432,0.2473,0.276,0.2921,0.2923,0.2921,0.2884,0.2947,0.2951,0.2794,0.2567,0.2561,0.2452,0.2198,0.215,0.2177,0.2181,0.21,0.1973,0.1705,0.1525,0.1436,0.148,0.157,0.166,0.1705,0.184,0.193,0.1974,0.2064,0.2064,0.2109,0.2199,0.2243,0.2243,0.2289,0.22,0.22,0.2423,0.269,0.269,0.2781,0.2871,0.2781,0.2602,0.2512,0.2467,0.2556,0.2645,0.2735,0.2915,0.3005,0.305,0.305,0.2959,0.3048,0.3093,0.3094,0.3138,0.3084,0.2891,1.0366,1.0257,0.9871,0.9596,0.9379,0.9158,0.8992,0.8937,0.8937,0.8937,0.8861,0.8784,0.876,0.8615,0.8292,0.8055,0.784,0.7356,0.6892,0.6392,0.5939,0.5687,0.5586,0.5438,0.5288,0.5085,0.4836,0.469,0.4688,0.4437,0.4236,0.4185,0.4137,0.4085,0.4034,0.3984,0.3783,0.3531,0.3479,0.333,0.3077,0.2975,0.3008,0.3025,0.2952,0.2906,0.2837,0.281,0.2668,0.2508,0.2549,0.2632,0.264,0.283,0.2943,0.3026,0.3193,0.3357,0.34,0.331,0.3418,0.3435,0.3444,0.3333,0.3102,0.3062,0.2901,0.2734,0.2714,0.2738,0.2736,0.2557,0.2377,0.2241,0.1929,0.1705,0.1705,0.184,0.193,0.1974,0.2064,0.22,0.22,0.2377,0.2422,0.2466,0.2601,0.2736,0.269,0.2735,0.2691,0.2736,0.296,0.3138,0.3181,0.3317,0.3542,0.3363,0.3094,0.3005,0.2959,0.3048,0.3138,0.3183,0.3317,0.3318,0.3363,0.3408,0.3406,0.3587,0.3631,0.3497,0.3406,0.3451,0.335,1.0527,1.0366,1.0308,0.9926,0.9489,0.9379,0.9213,0.8937,0.8937,0.8937,0.8878,0.8865,0.8801,0.8716,0.8514,0.8265,0.7962,0.7686,0.7409,0.6995,0.6489,0.5989,0.5737,0.5687,0.5636,0.5486,0.5288,0.519,0.5188,0.4937,0.4686,0.4489,0.4489,0.4338,0.4183,0.4085,0.4133,0.4033,0.4083,0.4083,0.3982,0.4033,0.3981,0.3972,0.3917,0.3873,0.3834,0.3762,0.3474,0.3094,0.3301,0.3488,0.3511,0.3496,0.3516,0.3521,0.3504,0.3597,0.3547,0.3652,0.3672,0.373,0.3741,0.3594,0.3689,0.3698,0.366,0.3573,0.3539,0.3542,0.3451,0.3183,0.2957,0.2868,0.2422,0.2154,0.2155,0.22,0.2288,0.2288,0.2243,0.2289,0.2423,0.2734,0.2913,0.3002,0.3227,0.3363,0.3408,0.3361,0.3542,0.3542,0.3452,0.3497,0.3496,0.3674,0.3853,0.3808,0.3585,0.3496,0.3408,0.3451,0.363,0.363,0.3674,0.3674,0.3674,0.3764,0.3764,0.381,0.3765,0.3676,0.3674,0.3764,0.3808,1.0692,1.0586,1.0366,1.0036,0.9706,0.9489,0.9213,0.8937,0.8937,0.8937,0.8937,0.8937,0.8861,0.8807,0.8713,0.8514,0.8304,0.7958,0.7683,0.7456,0.7089,0.6589,0.6237,0.6187,0.5987,0.5687,0.5586,0.5486,0.5486,0.5386,0.5236,0.4991,0.4989,0.4836,0.4636,0.4736,0.4736,0.4634,0.4786,0.4786,0.4634,0.4583,0.4583,0.458,0.4558,0.4516,0.4497,0.4526,0.4253,0.3723,0.3924,0.4086,0.4124,0.4232,0.4345,0.4345,0.4483,0.457,0.457,0.4568,0.4588,0.4608,0.4561,0.4541,0.4429,0.4391,0.4302,0.4168,0.3941,0.3849,0.3805,0.3583,0.3451,0.3317,0.2781,0.2333,0.2333,0.2511,0.2735,0.2734,0.3005,0.3139,0.3184,0.3272,0.3406,0.3406,0.354,0.3631,0.3676,0.3721,0.381,0.3721,0.3676,0.3765,0.3855,0.4032,0.4121,0.4164,0.403,0.3898,0.381,0.3765,0.3944,0.4076,0.4121,0.4121,0.4121,0.4166,0.4121,0.4121,0.4121,0.4121,0.4121,0.4166,0.4166,1.0692,1.0692,1.0527,1.0312,0.9981,0.971,0.9379,0.9103,0.894,0.8937,0.8937,0.8937,0.8937,0.892,0.8777,0.8628,0.8476,0.8227,0.7981,0.7762,0.759,0.7238,0.6836,0.6739,0.6587,0.6287,0.6037,0.5934,0.5884,0.5737,0.5536,0.5388,0.5388,0.5286,0.5186,0.5286,0.5338,0.5186,0.5286,0.5286,0.5135,0.5135,0.5133,0.5133,0.5133,0.514,0.5231,0.5456,0.5232,0.4697,0.4636,0.4746,0.479,0.4971,0.5102,0.5102,0.5235,0.5272,0.5277,0.5319,0.5275,0.5272,0.5319,0.5188,0.5015,0.4971,0.4882,0.461,0.4429,0.4385,0.434,0.4166,0.4034,0.3853,0.3406,0.3004,0.2825,0.3048,0.3181,0.327,0.3406,0.3587,0.3587,0.3676,0.3721,0.3721,0.3853,0.39,0.3944,0.3989,0.4034,0.4034,0.4121,0.43,0.4344,0.4478,0.4476,0.452,0.4565,0.4431,0.43,0.4168,0.4344,0.4523,0.4565,0.4565,0.4565,0.4565,0.461,0.461,0.461,0.4565,0.4565,0.452,0.4523,1.0692,1.0692,1.0692,1.0527,1.0257,0.9978,0.9655,0.9379,0.9103,0.8937,0.8937,0.8937,0.8937,0.8875,0.8815,0.8659,0.8506,0.8377,0.8201,0.8039,0.7889,0.769,0.7338,0.7238,0.7138,0.6986,0.6686,0.6537,0.6387,0.6037,0.5784,0.5734,0.5684,0.5636,0.5584,0.5634,0.5687,0.5737,0.5837,0.5884,0.5884,0.5884,0.5884,0.5884,0.5837,0.5946,0.6116,0.6386,0.6247,0.5442,0.5501,0.5539,0.5573,0.5696,0.5764,0.5764,0.5766,0.5764,0.5764,0.5764,0.5764,0.5764,0.5764,0.5722,0.5547,0.5549,0.5458,0.5275,0.5142,0.5097,0.5008,0.4879,0.4703,0.4478,0.4344,0.4121,0.3855,0.3721,0.3676,0.3674,0.3719,0.3721,0.3721,0.3812,0.3991,0.4125,0.4257,0.4344,0.4389,0.4478,0.4523,0.4569,0.4746,0.4921,0.4921,0.4921,0.4921,0.4877,0.5008,0.4964,0.4877,0.4835,0.4877,0.4921,0.4832,0.4832,0.4877,0.4921,0.4964,0.4919,0.4832,0.4877,0.4966,0.4832,0.4788,1.0692,1.0692,1.0692,1.0527,1.0312,1.0202,0.9926,0.9434,0.9323,0.9158,0.8937,0.8937,0.8937,0.8937,0.8834,0.8808,0.8638,0.8479,0.8299,0.8008,0.7988,0.7939,0.7739,0.7593,0.7391,0.7238,0.7138,0.7036,0.6936,0.6836,0.6634,0.6284,0.6184,0.6037,0.5734,0.6084,0.6237,0.6287,0.6587,0.6786,0.6734,0.6734,0.6734,0.6783,0.6786,0.6874,0.6933,0.6994,0.6912,0.6718,0.6554,0.6472,0.6388,0.6311,0.6308,0.6299,0.6296,0.6251,0.6251,0.6296,0.6251,0.6299,0.6296,0.6207,0.6207,0.6166,0.6166,0.6074,0.5947,0.5725,0.5542,0.5369,0.5235,0.5146,0.501,0.4877,0.4699,0.4569,0.4344,0.4255,0.4302,0.4391,0.421,0.4346,0.4482,0.4527,0.4659,0.4835,0.4877,0.4877,0.4966,0.5013,0.5188,0.5364,0.5364,0.5364,0.5364,0.5364,0.5453,0.5542,0.5411,0.5322,0.5319,0.5188,0.4966,0.5055,0.5275,0.5186,0.523,0.5097,0.5099,0.5186,0.5275,0.5142,0.5186,1.0692,1.0692,1.0692,1.0637,1.0472,1.0366,1.0091,0.9816,0.9489,0.9323,0.9106,0.8992,0.8937,0.8937,0.8875,0.8797,0.8682,0.8479,0.8258,0.8025,0.7988,0.7988,0.7988,0.7842,0.769,0.7537,0.7441,0.7391,0.7388,0.7238,0.6986,0.6786,0.6786,0.6686,0.6387,0.6637,0.6736,0.6786,0.7036,0.7185,0.7185,0.7185,0.7185,0.7288,0.7388,0.7587,0.7574,0.7812,0.787,0.7855,0.7699,0.7413,0.7158,0.7115,0.7135,0.7109,0.7098,0.7098,0.7095,0.7095,0.7143,0.7098,0.7095,0.7007,0.6915,0.6827,0.6653,0.6567,0.639,0.6166,0.603,0.5941,0.5855,0.5855,0.5722,0.563,0.5586,0.5188,0.479,0.4654,0.4743,0.4743,0.4746,0.479,0.4835,0.4835,0.4835,0.501,0.5055,0.5099,0.5319,0.5408,0.563,0.5719,0.5764,0.5764,0.5852,0.5897,0.5985,0.603,0.5988,0.5852,0.5764,0.563,0.5542,0.5675,0.5852,0.5675,0.5586,0.5719,0.5764,0.5675,0.5675,0.5764,0.5808,1.0692,1.0692,1.0692,1.0692,1.0692,1.0476,1.0312,1.0202,0.9761,0.9541,0.9379,0.9106,0.8992,0.8937,0.8937,0.8842,0.8642,0.8455,0.8245,0.8008,0.7988,0.7988,0.7988,0.7939,0.7988,0.7988,0.7793,0.7693,0.759,0.7441,0.7388,0.7338,0.7341,0.7288,0.7291,0.7388,0.7388,0.7437,0.7534,0.7584,0.7584,0.7584,0.7584,0.7637,0.7885,0.8134,0.8184,0.8464,0.8715,0.8764,0.8747,0.8332,0.7937,0.7907,0.8068,0.7916,0.7823,0.776,0.7727,0.7764,0.7812,0.79,0.7856,0.7764,0.7536,0.736,0.7187,0.701,0.6833,0.6741,0.6605,0.6605,0.6605,0.6561,0.6517,0.6473,0.634,0.5719,0.5319,0.5144,0.5144,0.5099,0.5053,0.5055,0.5053,0.5142,0.5142,0.523,0.5319,0.5408,0.5675,0.5808,0.5985,0.603,0.6074,0.6074,0.6163,0.6299,0.6387,0.6476,0.652,0.6564,0.6432,0.6251,0.6251,0.6296,0.6296,0.6118,0.6163,0.6384,0.634,0.6074,0.6163,0.6384,0.6384,1.0692,1.0692,1.0692,1.0692,1.0692,1.0637,1.0476,1.0312,1.0202,0.9871,0.9434,0.932,0.9158,0.8992,0.8937,0.8788,0.8587,0.8448,0.8296,0.8089,0.8048,0.8041,0.8088,0.8088,0.8187,0.8237,0.8088,0.7988,0.7939,0.7889,0.7885,0.7889,0.7889,0.7889,0.7939,0.8035,0.8131,0.8131,0.823,0.8329,0.8379,0.8379,0.8379,0.8379,0.8531,0.863,0.868,0.873,0.8775,0.8825,0.9004,0.8931,0.8707,0.8519,0.8332,0.8193,0.8133,0.8125,0.8037,0.7948,0.79,0.79,0.7944,0.7944,0.7852,0.7764,0.7676,0.7632,0.7588,0.7588,0.7632,0.7363,0.7312,0.7224,0.7007,0.6789,0.6704,0.6435,0.603,0.5808,0.5675,0.5497,0.5453,0.5453,0.5542,0.563,0.5719,0.5808,0.5897,0.603,0.6207,0.6296,0.634,0.634,0.634,0.6384,0.6432,0.6609,0.6741,0.6918,0.701,0.7234,0.719,0.6918,0.6697,0.6564,0.6561,0.6561,0.6609,0.6741,0.6609,0.6473,0.665,0.683,0.6653,1.0692,1.0692,1.0692,1.0692,1.0692,1.0692,1.0637,1.0476,1.0366,1.0147,0.9871,0.9706,0.943,0.9213,0.9158,0.8968,0.8688,0.8503,0.8412,0.8329,0.8282,0.8287,0.8386,0.8386,0.8478,0.8528,0.8482,0.8382,0.8382,0.8432,0.8382,0.8432,0.8432,0.8432,0.8432,0.8531,0.8627,0.8676,0.8726,0.8825,0.8825,0.8825,0.8825,0.8829,0.8931,0.8981,0.9031,0.9175,0.9225,0.9229,0.9331,0.9383,0.925,0.9107,0.891,0.8652,0.8528,0.8438,0.8378,0.8319,0.8256,0.8256,0.8256,0.8256,0.8208,0.812,0.8028,0.7944,0.79,0.79,0.7856,0.7764,0.7716,0.7672,0.7499,0.7367,0.7323,0.7231,0.6918,0.6561,0.6296,0.6077,0.5941,0.5941,0.603,0.6163,0.6299,0.6384,0.6517,0.6609,0.6697,0.6697,0.6741,0.683,0.683,0.6874,0.6877,0.701,0.7098,0.7275,0.7408,0.7588,0.7588,0.7408,0.7187,0.7054,0.7187,0.7319,0.7231,0.7143,0.7187,0.7187,0.7228,0.7183,0.7054,1.0692,1.0692,1.0692,1.0692,1.0692,1.0692,1.0692,1.0637,1.0472,1.0366,1.0253,1.0036,0.9761,0.9544,0.9412,0.9231,0.8864,0.8762,0.8709,0.8707,0.8553,0.863,0.8726,0.8775,0.8779,0.8829,0.8878,0.8829,0.8726,0.8726,0.8829,0.8829,0.8878,0.8928,0.8977,0.8977,0.8973,0.8973,0.8973,0.8973,0.8973,0.8973,0.8973,0.8977,0.9179,0.9286,0.9282,0.943,0.9525,0.9525,0.9579,0.9624,0.9624,0.9624,0.9494,0.9234,0.9031,0.8922,0.8746,0.8714,0.8581,0.8528,0.8572,0.8568,0.8568,0.8388,0.8248,0.8076,0.8076,0.8076,0.812,0.8076,0.8032,0.8028,0.7984,0.794,0.7852,0.7764,0.7632,0.7275,0.6962,0.6697,0.6564,0.6605,0.6694,0.6786,0.6918,0.7007,0.7095,0.7098,0.719,0.7143,0.7187,0.7367,0.7411,0.7411,0.7455,0.7544,0.7588,0.7672,0.7808,0.794,0.7896,0.7852,0.7944,0.7856,0.7988,0.79,0.7676,0.7588,0.7812,0.7812,0.7632,0.7588,0.7544,1.0692,1.0692,1.0692,1.0692,1.0692,1.0692,1.0692,1.0692,1.0637,1.0531,1.0366,1.0257,1.0033,0.9816,0.9706,0.961,0.9459,0.9241,0.9094,0.905,0.8872,0.8779,0.8825,0.8775,0.8977,0.9133,0.9133,0.9031,0.8928,0.8874,0.8928,0.9133,0.9183,0.9232,0.9377,0.9377,0.948,0.948,0.948,0.9476,0.9476,0.9476,0.9476,0.9476,0.948,0.9529,0.948,0.9579,0.9628,0.9624,0.9624,0.9624,0.9624,0.9624,0.9571,0.9527,0.938,0.9157,0.8917,0.8796,0.8714,0.8621,0.8624,0.8616,0.8568,0.8568,0.8476,0.8524,0.8476,0.8476,0.8436,0.848,0.8476,0.8388,0.8296,0.8204,0.816,0.812,0.7984,0.794,0.7588,0.7363,0.7187,0.7272,0.7401,0.7448,0.754,0.7584,0.7588,0.7547,0.7547,0.7499,0.7499,0.7632,0.7764,0.7808,0.79,0.7988,0.8032,0.8028,0.812,0.8208,0.83,0.83,0.8392,0.8344,0.8164,0.8032,0.7944,0.7988,0.8076,0.8032,0.79,0.79,0.7988,1.0857,1.0692,1.0692,1.0692,1.0692,1.0692,1.0692,1.0692,1.0692,1.0637,1.0527,1.0527,1.0366,1.0091,0.9926,0.9779,0.966,0.9444,0.9354,0.9366,0.9175,0.908,0.9225,0.9229,0.9331,0.9381,0.943,0.9381,0.9274,0.9225,0.9327,0.9381,0.943,0.948,0.9575,0.9624,0.9628,0.9579,0.9624,0.9624,0.9624,0.9624,0.9624,0.9624,0.9624,0.9624,0.9624,0.9624,0.9624,0.9624,0.9624,0.9624,0.9624,0.9624,0.9624,0.9571,0.9559,0.9384,0.9157,0.895,0.8808,0.8706,0.8633,0.8616,0.8616,0.8616,0.8616,0.8616,0.8616,0.8616,0.8616,0.8616,0.8616,0.8568,0.8476,0.8432,0.8384,0.8384,0.834,0.83,0.8256,0.7988,0.7764,0.7716,0.7757,0.776,0.7808,0.7808,0.7808,0.7768,0.7812,0.7812,0.7852,0.7896,0.7984,0.8069,0.8208,0.83,0.8348,0.8388,0.8388,0.8476,0.8524,0.8524,0.8524,0.8432,0.8252,0.8256,0.8256,0.83,0.83,0.8256,0.8212,0.8256,0.8344,1.1126,1.0802,1.0747,1.0692,1.0692,1.0692,1.0692,1.0692,1.0692,1.0692,1.0692,1.0692,1.0582,1.0417,1.0202,1.008,1.0006,0.969,0.9673,0.9633,0.9536,0.9454,0.948,0.9579,0.9579,0.9624,0.9579,0.9579,0.9579,0.9575,0.9575,0.9624,0.9579,0.9579,0.9628,0.9624,0.9624,0.9624,0.9624,0.9624,0.9624,0.9624,0.9624,0.9624,0.9624,0.9624,0.9624,0.9624,0.9624,0.9624,0.9624,0.9624,0.9624,0.9624,0.9624,0.9624,0.96,0.9555,0.936,0.9169,0.895,0.88,0.8682,0.8616,0.8616,0.8616,0.8616,0.8616,0.8616,0.8616,0.8616,0.8616,0.8616,0.8616,0.8568,0.8616,0.8616,0.8524,0.8476,0.848,0.848,0.8524,0.83,0.8164,0.812,0.8076,0.8076,0.8032,0.8032,0.8032,0.808,0.8124,0.8164,0.8208,0.8252,0.834,0.8476,0.8564,0.8612,0.8612,0.8612,0.8568,0.8568,0.8616,0.8656,0.8568,0.8432,0.8524,0.8616,0.8524,0.848,0.8524,0.8568,0.8616,0.8612,1.1618,1.1072,1.0802,1.0747,1.0692,1.0692,1.0692,1.0692,1.0692,1.0692,1.0692,1.0692,1.0692,1.0637,1.0582,1.0582,1.0621,1.0269,1.0144,0.9995,0.9773,0.9607,0.9624,0.9624,0.9624,0.9624,0.9624,0.9624,0.9624,0.9624,0.9624,0.9624,0.9624,0.9624,0.9624,0.9624,0.9624,0.9624,0.9624,0.9624,0.9624,0.9624,0.9624,0.9624,0.9624,0.9624,0.9624,0.9624,0.9624,0.9624,0.9624,0.9624,0.9624,0.9624,0.9624,0.9624,0.9624,0.96,0.9506,0.9356,0.9141,0.8889,0.8698,0.8637,0.8616,0.8616,0.8616,0.8616,0.8616,0.8616,0.8616,0.8616,0.8616,0.8616,0.8616,0.8616,0.8616,0.8616,0.8568,0.8616,0.8616,0.8616,0.8616,0.8432,0.8344,0.8344,0.8344,0.8344,0.8388,0.8392,0.8436,0.848,0.852,0.8564,0.8564,0.8652,0.874,0.8784,0.8784,0.874,0.8696,0.87,0.8788,0.8744,0.8788,0.87,0.8656,0.8744,0.8788,0.8656,0.8612,0.87,0.8744,0.8784,0.874,1.211,1.1841,1.1455,1.1021,1.0692,1.0692,1.0692,1.0692,1.0692,1.0692,1.0692,1.0692,1.0692,1.0692,1.0692,1.0692,1.0639,1.0375,1.0249,1.0042,0.9835,0.9657,0.9624,0.9624,0.9624,0.9624,0.9624,0.9624,0.9624,0.9624,0.9624,0.9624,0.9624,0.9624,0.9624,0.9624,0.9624,0.9624,0.9624,0.9624,0.9624,0.9624,0.9624,0.9624,0.9624,0.9624,0.9624,0.9624,0.9624,0.9624,0.9624,0.9624,0.9624,0.9624,0.9624,0.9624,0.9624,0.9624,0.9596,0.9494,0.9241,0.8909,0.8755,0.8682,0.8645,0.8616,0.8616,0.8616,0.8616,0.8616,0.8616,0.8616,0.8616,0.8616,0.8616,0.8616,0.8616,0.8616,0.8616,0.8616,0.8616,0.8616,0.8616,0.8568,0.8568,0.8568,0.8616,0.8616,0.8612,0.8656,0.8656,0.87,0.874,0.8784,0.8784,0.8915,0.9003,0.9003,0.8955,0.8955,0.8911,0.9043,0.9091,0.9047,0.9003,0.9003,0.9003,0.9043,0.8999,0.8872,0.8828,0.8872,0.8911,0.8955,0.8955,1.255,1.2332,1.2005,1.1459,1.0852,1.0802,1.0747,1.0692,1.0692,1.0692,1.0692,1.0692,1.0692,1.0692,1.0692,1.0643,1.0542,1.031,1.016,0.9981,0.9786,0.9648,0.9624,0.9624,0.9624,0.9624,0.9624,0.9624,0.9624,0.9624,0.9624,0.9624,0.9624,0.9624,0.9624,0.9624,0.9624,0.9624,0.9624,0.9624,0.9624,0.9624,0.9624,0.9624,0.9624,0.9624,0.9624,0.9624,0.9624,0.9624,0.9624,0.9624,0.9624,0.9624,0.9624,0.9624,0.9624,0.9624,0.9583,0.9445,0.9294,0.9056,0.8811,0.8767,0.8674,0.8645,0.8616,0.8616,0.8616,0.8616,0.8616,0.8616,0.8616,0.8616,0.8616,0.8616,0.8616,0.8616,0.8616,0.8616,0.8612,0.8612,0.8612,0.8612,0.8612,0.8612,0.8612,0.8612,0.8612,0.8656,0.8744,0.8828,0.8915,0.8955,0.9043,0.913,0.9218,0.9174,0.9174,0.9218,0.9218,0.9349,0.9349,0.9218,0.9174,0.9305,0.9262,0.9218,0.913,0.9043,0.9087,0.9174,0.913,0.9174,0.9218,1.2935,1.2436,1.2387,1.1891,1.1181,1.1072,1.0966,1.0747,1.0692,1.0692,1.0692,1.0692,1.0692,1.0692,1.0692,1.0615,1.0456,1.0262,1.0135,0.9904,0.9738,0.964,0.9624,0.9624,0.9624,0.9624,0.9624,0.9624,0.9624,0.9624,0.9624,0.9624,0.9624,0.9624,0.9624,0.9624,0.9624,0.9624,0.9624,0.9624,0.9624,0.9624,0.9624,0.9624,0.9624,0.9624,0.9624,0.9624,0.9624,0.9624,0.9624,0.9624,0.9624,0.9624,0.9624,0.9624,0.9624,0.9624,0.9612,0.9502,0.9396,0.9302,0.9047,0.8881,0.8792,0.869,0.8624,0.8629,0.8616,0.8616,0.8616,0.8616,0.8616,0.8616,0.8616,0.8616,0.8616,0.8616,0.8616,0.8616,0.8612,0.8608,0.8608,0.8608,0.8656,0.8656,0.8608,0.8652,0.8696,0.8784,0.8915,0.9047,0.9174,0.9301,0.9388,0.9388,0.9388,0.9345,0.9432,0.9607,0.9607,0.9646,0.9607,0.9432,0.9563,0.9738,0.9563,0.9345,0.9476,0.9607,0.9476,0.9476,0.9388,0.9432,0.9607,1.3423,1.3261,1.2876,1.2441,1.1946,1.1564,1.124,1.0966,1.0802,1.0692,1.0692,1.0692,1.0692,1.0692,1.0676,1.0595,1.0416,1.0245,1.0114,0.9872,0.9705,0.9648,0.9624,0.9624,0.9624,0.9624,0.9624,0.9624,0.9624,0.9624,0.9624,0.9624,0.9624,0.9624,0.9624,0.9624,0.9624,0.9624,0.9624,0.9624,0.9624,0.9624,0.9624,0.9624,0.9624,0.9624,0.9624,0.9624,0.9624,0.9624,0.9624,0.9624,0.9624,0.9624,0.9624,0.9624,0.9624,0.9624,0.9624,0.9547,0.9474,0.9408,0.9286,0.9039,0.8865,0.8787,0.869,0.8661,0.8665,0.8657,0.8616,0.8616,0.862,0.8616,0.8616,0.8616,0.8616,0.8616,0.8616,0.8616,0.8612,0.874,0.878,0.8828,0.8872,0.8959,0.8955,0.8955,0.9043,0.9087,0.9174,0.9349,0.948,0.965,0.9777,0.9864,0.9951,1.0038,1.0168,1.0299,1.025,1.0077,1.0164,1.0164,1.0212,1.0212,1.0164,1.012,1.0207,1.025,1.0212,1.0125,1.0081,1.0168,1.0342,1.391,1.364,1.3315,1.2985,1.2659,1.2005,1.1564,1.1236,1.0962,1.0857,1.0857,1.0747,1.0692,1.0692,1.0676,1.0538,1.0351,1.0225,0.9994,0.9819,0.9689,0.9636,0.9624,0.9624,0.9624,0.9624,0.9628,0.9624,0.9624,0.9624,0.9624,0.9624,0.9624,0.9624,0.9624,0.9624,0.9624,0.9624,0.9624,0.9624,0.9624,0.9624,0.9624,0.9624,0.9624,0.9624,0.9624,0.9624,0.9624,0.9624,0.9624,0.9624,0.9624,0.9624,0.9624,0.9624,0.9624,0.9624,0.9624,0.9624,0.9547,0.9518,0.9453,0.9298,0.9035,0.897,0.8885,0.8808,0.8743,0.8788,0.8788,0.8771,0.8767,0.8771,0.882,0.8828,0.8759,0.8767,0.8806,0.8798,0.8832,0.8915,0.8999,0.9043,0.913,0.9218,0.9345,0.9388,0.9388,0.9476,0.9563,0.9694,0.9868,1.0125,1.0294,1.0381,1.0511,1.0689,1.0776,1.0819,1.0771,1.0598,1.0766,1.0895,1.0809,1.0809,1.0895,1.0895,1.0944,1.103,1.1079,1.0949,1.0776,1.0776,1.0819,1.4207,1.3732,1.3684,1.3516,1.3192,1.2427,1.1896,1.1568,1.1236,1.1126,1.1131,1.0857,1.0857,1.0798,1.0739,1.0597,1.0382,1.0312,1.0035,0.9834,0.9785,0.9723,0.9723,0.9723,0.9772,0.9727,0.9727,0.9826,0.9673,0.9772,0.9772,0.9723,0.9772,0.9723,0.9723,0.9673,0.9677,0.9628,0.9624,0.9624,0.9624,0.9624,0.9624,0.9624,0.9624,0.9624,0.9624,0.9624,0.9624,0.9624,0.9624,0.9624,0.9624,0.9624,0.9624,0.9624,0.9624,0.9624,0.9624,0.9624,0.9624,0.9559,0.9514,0.9433,0.9335,0.9161,0.9068,0.9019,0.8978,0.9065,0.9094,0.9128,0.9116,0.9162,0.9162,0.91,0.8997,0.9025,0.9093,0.9118,0.9165,0.9218,0.9349,0.9393,0.9519,0.9738,0.9864,0.9907,0.9907,0.9951,1.0038,1.0081,1.0299,1.0598,1.0771,1.0857,1.1035,1.1165,1.1079,1.1079,1.1073,1.1117,1.1251,1.1338,1.1327,1.1327,1.1375,1.1462,1.1591,1.1682,1.1645,1.1516,1.1257,1.1079,1.1079,1.3997,1.38,1.3588,1.3444,1.3311,1.3028,1.255,1.1896,1.1568,1.1459,1.1455,1.135,1.1295,1.1341,1.1212,1.0956,1.0767,1.0583,1.0394,1.0248,1.0068,1.0167,1.0167,1.0117,1.0167,1.0167,1.0117,1.0117,1.0167,1.0117,1.0117,1.0167,1.0117,1.0019,0.992,0.9871,0.9776,0.9677,0.9677,0.9624,0.9624,0.9624,0.9624,0.9624,0.9624,0.9624,0.9624,0.9624,0.9624,0.9624,0.9624,0.9624,0.9624,0.9624,0.9624,0.9624,0.9624,0.9624,0.9624,0.9624,0.9624,0.9723,0.9759,0.962,0.9485,0.9407,0.9329,0.9296,0.9314,0.9382,0.9429,0.9472,0.9519,0.9571,0.9609,0.955,0.9503,0.9594,0.9644,0.9638,0.9632,0.9678,0.9761,0.9864,0.9994,1.0255,1.0429,1.0467,1.0467,1.0467,1.0554,1.0598,1.0776,1.1079,1.1208,1.1295,1.1472,1.1602,1.1516,1.1472,1.1639,1.1725,1.1736,1.1817,1.194,1.1854,1.1774,1.1946,1.2155,1.1989,1.1909,1.1823,1.1693,1.1559,1.1516,1.414,1.4004,1.3724,1.3477,1.3252,1.3301,1.2964,1.2382,1.2077,1.1896,1.1896,1.1678,1.1568,1.1542,1.1379,1.1186,1.0988,1.0757,1.056,1.0412,1.0462,1.0364,1.0413,1.0462,1.0364,1.0413,1.0413,1.0364,1.0462,1.0413,1.0413,1.0364,1.0413,1.0314,1.0216,1.0167,1.0117,0.9924,0.9776,0.9628,0.9624,0.9628,0.9624,0.9624,0.9624,0.9624,0.9624,0.9624,0.9628,0.9624,0.9624,0.9624,0.9628,0.9677,0.9875,0.992,0.9969,0.9969,0.9969,0.9974,0.992,0.9969,1.0068,1.0009,0.9958,0.9854,0.9799,0.9752,0.9727,0.9706,0.9793,0.988,0.9979,1.0083,1.0061,1.0039,1.009,1.0195,1.0205,1.0165,1.0159,1.0187,1.0217,1.0318,1.0467,1.0684,1.0944,1.1111,1.1068,1.0982,1.1068,1.116,1.13,1.1527,1.165,1.1731,1.1817,1.1909,1.1823,1.1866,1.216,1.2332,1.2332,1.246,1.2595,1.2546,1.254,1.2546,1.2674,1.2552,1.2503,1.2546,1.2375,1.2037,1.208,1.4466,1.4202,1.3948,1.3623,1.3142,1.3399,1.3262,1.3024,1.2627,1.2476,1.2377,1.1951,1.1841,1.1959,1.1754,1.1515,1.1362,1.1162,1.0966,1.056,1.0757,1.0806,1.0752,1.0556,1.0806,1.0654,1.0605,1.0855,1.0659,1.0708,1.0806,1.0511,1.0654,1.0654,1.0659,1.056,1.0462,1.0314,1.0019,0.9772,0.9772,0.9677,0.9673,0.9723,0.9723,0.9723,0.9723,0.9673,0.9628,0.9677,0.9673,0.9723,0.9821,0.992,1.0171,1.0265,1.0265,1.0265,1.0265,1.0265,1.0364,1.0359,1.0458,1.0542,1.0511,1.0253,1.0157,1.0095,1.0069,1.021,1.0351,1.0444,1.0545,1.0738,1.0821,1.0789,1.0795,1.0863,1.0931,1.0887,1.0776,1.0795,1.0948,1.1043,1.103,1.1203,1.1419,1.1671,1.1757,1.1671,1.1628,1.172,1.1688,1.1828,1.2037,1.2118,1.2166,1.2166,1.2209,1.2338,1.2668,1.2839,1.2924,1.3058,1.3185,1.3313,1.3349,1.3307,1.3307,1.3307,1.3307,1.3392,1.3137,1.2759,1.2637,1.4339,1.426,1.4015,1.3808,1.368,1.3745,1.3613,1.3371,1.3225,1.3148,1.3073,1.293,1.2812,1.2695,1.2327,1.2124,1.2059,1.1668,1.1673,1.1556,1.1492,1.1389,1.1536,1.1389,1.1492,1.159,1.1639,1.1492,1.1443,1.1487,1.1585,1.159,1.1487,1.1389,1.1243,1.1096,1.0953,1.0806,1.0511,1.031,1.0265,1.0216,1.0216,1.0216,1.0167,1.0167,1.0167,1.0167,1.0167,1.0216,1.0216,1.0216,1.0216,1.0265,1.0364,1.0413,1.0511,1.056,1.056,1.0609,1.0659,1.0801,1.09,1.1096,1.1047,1.0659,1.0462,1.0462,1.056,1.0757,1.0904,1.1002,1.1149,1.1345,1.1585,1.1541,1.1492,1.1561,1.1659,1.1585,1.1439,1.1502,1.164,1.169,1.1629,1.1806,1.202,1.2277,1.2491,1.2448,1.2277,1.224,1.1989,1.208,1.2375,1.2589,1.2631,1.2802,1.293,1.3058,1.3222,1.3392,1.3561,1.3603,1.3737,1.3857,1.3899,1.3928,1.3886,1.3935,1.3935,1.3893,1.3935,1.3597,1.3434,1.4646,1.4617,1.4212,1.3918,1.3762,1.3825,1.3825,1.3712,1.3762,1.374,1.3655,1.3416,1.3259,1.3148,1.2742,1.2567,1.2471,1.2147,1.1928,1.1937,1.2029,1.1932,1.198,1.2029,1.1932,1.198,1.198,1.1932,1.2029,1.198,1.1932,1.2029,1.198,1.1927,1.178,1.1585,1.1492,1.1345,1.1145,1.1096,1.0998,1.0757,1.0462,1.0413,1.0413,1.0413,1.0413,1.0413,1.0413,1.0413,1.0364,1.0609,1.0659,1.0752,1.0904,1.1096,1.1194,1.1096,1.1096,1.1096,1.1149,1.134,1.1438,1.1683,1.1683,1.1389,1.1394,1.1389,1.1292,1.1487,1.1487,1.1585,1.1731,1.1927,1.2024,1.2096,1.2226,1.241,1.249,1.2488,1.238,1.2288,1.2392,1.2455,1.2404,1.2491,1.2711,1.2839,1.3052,1.3222,1.3052,1.2887,1.2674,1.2631,1.2887,1.3052,1.3137,1.3355,1.3568,1.3688,1.3773,1.4026,1.4195,1.4195,1.4237,1.4279,1.4356,1.4391,1.4391,1.4356,1.4356,1.4349,1.4349,1.4391,1.4188,1.5131,1.5029,1.4592,1.4112,1.3665,1.3866,1.3914,1.3855,1.4066,1.4145,1.4036,1.3635,1.3306,1.3062,1.2802,1.2557,1.2404,1.2338,1.2196,1.2175,1.2175,1.2224,1.2224,1.2175,1.2175,1.2224,1.2175,1.2175,1.2175,1.2175,1.2224,1.2127,1.2127,1.217,1.2175,1.2175,1.2127,1.2122,1.2024,1.2073,1.1683,1.1198,1.0855,1.0654,1.0605,1.0605,1.0609,1.0609,1.0659,1.0708,1.0806,1.1002,1.1198,1.1292,1.1585,1.178,1.1829,1.1927,1.1975,1.198,1.2078,1.2127,1.2127,1.217,1.2219,1.2316,1.2322,1.2273,1.217,1.2122,1.2122,1.217,1.2316,1.2511,1.2608,1.2754,1.299,1.3232,1.3273,1.3332,1.3228,1.3107,1.3105,1.3151,1.315,1.3192,1.3313,1.344,1.3568,1.3773,1.3766,1.3688,1.3603,1.3603,1.3561,1.3561,1.3646,1.3857,1.4068,1.4195,1.4321,1.4489,1.4615,1.4699,1.4741,1.479,1.479,1.4824,1.4824,1.4783,1.4824,1.4824,1.4824,1.4824,1.4776,1.5267,1.5083,1.4987,1.4646,1.4214,1.4214,1.399,1.3653,1.387,1.3963,1.4032,1.406,1.3896,1.363,1.3193,1.2965,1.2895,1.2698,1.2635,1.2662,1.2613,1.2619,1.2619,1.2613,1.2662,1.2662,1.2613,1.2667,1.2619,1.2667,1.2716,1.2807,1.2856,1.2953,1.3152,1.305,1.2851,1.2851,1.2759,1.271,1.2565,1.2175,1.1785,1.1683,1.1683,1.1688,1.1688,1.1688,1.1688,1.1688,1.1683,1.1736,1.1834,1.1932,1.2127,1.2322,1.2419,1.2516,1.257,1.2662,1.271,1.2856,1.2899,1.3001,1.3098,1.3195,1.3195,1.3195,1.305,1.2851,1.2851,1.2899,1.2996,1.3286,1.3485,1.3576,1.3763,1.3956,1.4088,1.4014,1.3918,1.3847,1.3893,1.3748,1.3459,1.3561,1.3779,1.3913,1.3997,1.4237,1.4447,1.4405,1.4363,1.4356,1.4272,1.4146,1.4195,1.4363,1.4489,1.4615,1.4706,1.4873,1.4957,1.4999,1.5131,1.5215,1.5215,1.5124,1.5173,1.5173,1.5215,1.5257,1.5257,1.5173,1.5124]}]]